<?xml version="1.0" encoding="UTF-8" standalone="no" ?>
<gpx xmlns="http://www.topografix.com/GPX/1/1" xmlns:xsi="http://www.w3.org/2001/XMLSchema-instance" xsi:schemaLocation="http://www.topografix.com/GPX/1/1 http://www.topografix.com/GPX/1/1/gpx.xsd" version="1.1" creator="VisuGPX - https://www.visugpx.com">
  <metadata>
    <name>La Rando des rochers 2012 à Saint-Vite (47)</name>
    <desc><![CDATA[Du roulant et rien de bien difficile]]></desc>
  </metadata>
  <trk>
    <name><![CDATA[La Rando des rochers 2012 à Saint-Vite (47)_1]]></name>
    <trkseg>
      <trkpt lat="44.47201" lon="0.93442">
        <ele>68</ele>
        <time>2012-06-24T05:59:55Z</time>
      </trkpt>
      <trkpt lat="44.47177" lon="0.93464">
        <ele>61</ele>
        <time>2012-06-24T06:03:50Z</time>
      </trkpt>
      <trkpt lat="44.4716" lon="0.93471">
        <ele>61</ele>
        <time>2012-06-24T06:03:55Z</time>
      </trkpt>
      <trkpt lat="44.47144" lon="0.93477">
        <ele>60</ele>
        <time>2012-06-24T06:04:00Z</time>
      </trkpt>
      <trkpt lat="44.47129" lon="0.93483">
        <ele>60</ele>
        <time>2012-06-24T06:04:05Z</time>
      </trkpt>
      <trkpt lat="44.47116" lon="0.9349">
        <ele>60</ele>
        <time>2012-06-24T06:04:10Z</time>
      </trkpt>
      <trkpt lat="44.47119" lon="0.93513">
        <ele>60</ele>
        <time>2012-06-24T06:04:15Z</time>
      </trkpt>
      <trkpt lat="44.47128" lon="0.93536">
        <ele>60</ele>
        <time>2012-06-24T06:04:20Z</time>
      </trkpt>
      <trkpt lat="44.47139" lon="0.93561">
        <ele>60</ele>
        <time>2012-06-24T06:04:25Z</time>
      </trkpt>
      <trkpt lat="44.4715" lon="0.93586">
        <ele>60</ele>
        <time>2012-06-24T06:04:30Z</time>
      </trkpt>
      <trkpt lat="44.4716" lon="0.93611">
        <ele>60</ele>
        <time>2012-06-24T06:04:35Z</time>
      </trkpt>
      <trkpt lat="44.4717" lon="0.93635">
        <ele>60</ele>
        <time>2012-06-24T06:04:40Z</time>
      </trkpt>
      <trkpt lat="44.47181" lon="0.93661">
        <ele>60</ele>
        <time>2012-06-24T06:04:45Z</time>
      </trkpt>
      <trkpt lat="44.47192" lon="0.93686">
        <ele>60</ele>
        <time>2012-06-24T06:04:50Z</time>
      </trkpt>
      <trkpt lat="44.47203" lon="0.93712">
        <ele>60</ele>
        <time>2012-06-24T06:04:55Z</time>
      </trkpt>
      <trkpt lat="44.47214" lon="0.9374">
        <ele>61</ele>
        <time>2012-06-24T06:05:00Z</time>
      </trkpt>
      <trkpt lat="44.47216" lon="0.93768">
        <ele>62</ele>
        <time>2012-06-24T06:05:05Z</time>
      </trkpt>
      <trkpt lat="44.472" lon="0.93783">
        <ele>63</ele>
        <time>2012-06-24T06:05:10Z</time>
      </trkpt>
      <trkpt lat="44.47177" lon="0.93774">
        <ele>64</ele>
        <time>2012-06-24T06:05:15Z</time>
      </trkpt>
      <trkpt lat="44.47155" lon="0.93763">
        <ele>64</ele>
        <time>2012-06-24T06:05:20Z</time>
      </trkpt>
      <trkpt lat="44.47133" lon="0.93752">
        <ele>64</ele>
        <time>2012-06-24T06:05:25Z</time>
      </trkpt>
      <trkpt lat="44.47113" lon="0.93741">
        <ele>64</ele>
        <time>2012-06-24T06:05:30Z</time>
      </trkpt>
      <trkpt lat="44.47094" lon="0.93731">
        <ele>65</ele>
        <time>2012-06-24T06:05:35Z</time>
      </trkpt>
      <trkpt lat="44.47075" lon="0.93722">
        <ele>66</ele>
        <time>2012-06-24T06:05:40Z</time>
      </trkpt>
      <trkpt lat="44.47056" lon="0.93712">
        <ele>67</ele>
        <time>2012-06-24T06:05:45Z</time>
      </trkpt>
      <trkpt lat="44.47036" lon="0.93701">
        <ele>67</ele>
        <time>2012-06-24T06:05:50Z</time>
      </trkpt>
      <trkpt lat="44.47016" lon="0.9369">
        <ele>68</ele>
        <time>2012-06-24T06:05:55Z</time>
      </trkpt>
      <trkpt lat="44.46995" lon="0.93679">
        <ele>68</ele>
        <time>2012-06-24T06:06:00Z</time>
      </trkpt>
      <trkpt lat="44.46973" lon="0.93667">
        <ele>69</ele>
        <time>2012-06-24T06:06:05Z</time>
      </trkpt>
      <trkpt lat="44.46949" lon="0.93656">
        <ele>69</ele>
        <time>2012-06-24T06:06:10Z</time>
      </trkpt>
      <trkpt lat="44.46923" lon="0.93646">
        <ele>69</ele>
        <time>2012-06-24T06:06:15Z</time>
      </trkpt>
      <trkpt lat="44.46898" lon="0.93637">
        <ele>69</ele>
        <time>2012-06-24T06:06:20Z</time>
      </trkpt>
      <trkpt lat="44.46875" lon="0.93629">
        <ele>69</ele>
        <time>2012-06-24T06:06:25Z</time>
      </trkpt>
      <trkpt lat="44.46858" lon="0.93644">
        <ele>69</ele>
        <time>2012-06-24T06:06:30Z</time>
      </trkpt>
      <trkpt lat="44.46845" lon="0.93675">
        <ele>69</ele>
        <time>2012-06-24T06:06:35Z</time>
      </trkpt>
      <trkpt lat="44.46832" lon="0.93707">
        <ele>74</ele>
        <time>2012-06-24T06:06:40Z</time>
      </trkpt>
      <trkpt lat="44.46818" lon="0.93744">
        <ele>77</ele>
        <time>2012-06-24T06:06:46Z</time>
      </trkpt>
      <trkpt lat="44.46808" lon="0.93777">
        <ele>77</ele>
        <time>2012-06-24T06:06:51Z</time>
      </trkpt>
      <trkpt lat="44.46797" lon="0.93809">
        <ele>77</ele>
        <time>2012-06-24T06:06:56Z</time>
      </trkpt>
      <trkpt lat="44.46791" lon="0.93846">
        <ele>76</ele>
        <time>2012-06-24T06:07:01Z</time>
      </trkpt>
      <trkpt lat="44.4678" lon="0.9388">
        <ele>73</ele>
        <time>2012-06-24T06:07:06Z</time>
      </trkpt>
      <trkpt lat="44.46771" lon="0.93915">
        <ele>71</ele>
        <time>2012-06-24T06:07:11Z</time>
      </trkpt>
      <trkpt lat="44.46761" lon="0.93949">
        <ele>67</ele>
        <time>2012-06-24T06:07:16Z</time>
      </trkpt>
      <trkpt lat="44.46751" lon="0.93982">
        <ele>66</ele>
        <time>2012-06-24T06:07:21Z</time>
      </trkpt>
      <trkpt lat="44.46741" lon="0.94013">
        <ele>66</ele>
        <time>2012-06-24T06:07:26Z</time>
      </trkpt>
      <trkpt lat="44.46722" lon="0.94028">
        <ele>66</ele>
        <time>2012-06-24T06:07:31Z</time>
      </trkpt>
      <trkpt lat="44.46696" lon="0.94018">
        <ele>66</ele>
        <time>2012-06-24T06:07:36Z</time>
      </trkpt>
      <trkpt lat="44.4667" lon="0.94007">
        <ele>66</ele>
        <time>2012-06-24T06:07:41Z</time>
      </trkpt>
      <trkpt lat="44.46643" lon="0.93998">
        <ele>66</ele>
        <time>2012-06-24T06:07:46Z</time>
      </trkpt>
      <trkpt lat="44.46617" lon="0.93999">
        <ele>67</ele>
        <time>2012-06-24T06:07:51Z</time>
      </trkpt>
      <trkpt lat="44.46591" lon="0.94011">
        <ele>68</ele>
        <time>2012-06-24T06:07:56Z</time>
      </trkpt>
      <trkpt lat="44.46566" lon="0.94023">
        <ele>69</ele>
        <time>2012-06-24T06:08:01Z</time>
      </trkpt>
      <trkpt lat="44.4654" lon="0.94035">
        <ele>69</ele>
        <time>2012-06-24T06:08:06Z</time>
      </trkpt>
      <trkpt lat="44.46515" lon="0.94049">
        <ele>69</ele>
        <time>2012-06-24T06:08:11Z</time>
      </trkpt>
      <trkpt lat="44.46492" lon="0.94071">
        <ele>69</ele>
        <time>2012-06-24T06:08:16Z</time>
      </trkpt>
      <trkpt lat="44.46469" lon="0.94097">
        <ele>69</ele>
        <time>2012-06-24T06:08:21Z</time>
      </trkpt>
      <trkpt lat="44.46447" lon="0.94122">
        <ele>69</ele>
        <time>2012-06-24T06:08:26Z</time>
      </trkpt>
      <trkpt lat="44.46424" lon="0.94147">
        <ele>69</ele>
        <time>2012-06-24T06:08:31Z</time>
      </trkpt>
      <trkpt lat="44.46402" lon="0.94172">
        <ele>69</ele>
        <time>2012-06-24T06:08:36Z</time>
      </trkpt>
      <trkpt lat="44.4638" lon="0.94197">
        <ele>69</ele>
        <time>2012-06-24T06:08:41Z</time>
      </trkpt>
      <trkpt lat="44.46357" lon="0.94222">
        <ele>69</ele>
        <time>2012-06-24T06:08:46Z</time>
      </trkpt>
      <trkpt lat="44.46333" lon="0.94248">
        <ele>69</ele>
        <time>2012-06-24T06:08:51Z</time>
      </trkpt>
      <trkpt lat="44.4631" lon="0.94274">
        <ele>69</ele>
        <time>2012-06-24T06:08:56Z</time>
      </trkpt>
      <trkpt lat="44.46287" lon="0.94299">
        <ele>68</ele>
        <time>2012-06-24T06:09:01Z</time>
      </trkpt>
      <trkpt lat="44.46265" lon="0.94323">
        <ele>68</ele>
        <time>2012-06-24T06:09:06Z</time>
      </trkpt>
      <trkpt lat="44.46246" lon="0.94343">
        <ele>68</ele>
        <time>2012-06-24T06:09:11Z</time>
      </trkpt>
      <trkpt lat="44.4623" lon="0.9436">
        <ele>68</ele>
        <time>2012-06-24T06:09:16Z</time>
      </trkpt>
      <trkpt lat="44.46226" lon="0.94379">
        <ele>68</ele>
        <time>2012-06-24T06:09:21Z</time>
      </trkpt>
      <trkpt lat="44.46216" lon="0.944">
        <ele>68</ele>
        <time>2012-06-24T06:09:26Z</time>
      </trkpt>
      <trkpt lat="44.46209" lon="0.94423">
        <ele>68</ele>
        <time>2012-06-24T06:09:31Z</time>
      </trkpt>
      <trkpt lat="44.46202" lon="0.94444">
        <ele>68</ele>
        <time>2012-06-24T06:09:36Z</time>
      </trkpt>
      <trkpt lat="44.46208" lon="0.94462">
        <ele>68</ele>
        <time>2012-06-24T06:09:41Z</time>
      </trkpt>
      <trkpt lat="44.46223" lon="0.94481">
        <ele>70</ele>
        <time>2012-06-24T06:09:47Z</time>
      </trkpt>
      <trkpt lat="44.46235" lon="0.94497">
        <ele>70</ele>
        <time>2012-06-24T06:09:52Z</time>
      </trkpt>
      <trkpt lat="44.46247" lon="0.94513">
        <ele>71</ele>
        <time>2012-06-24T06:09:57Z</time>
      </trkpt>
      <trkpt lat="44.46266" lon="0.94537">
        <ele>71</ele>
        <time>2012-06-24T06:10:03Z</time>
      </trkpt>
      <trkpt lat="44.4628" lon="0.94557">
        <ele>71</ele>
        <time>2012-06-24T06:10:08Z</time>
      </trkpt>
      <trkpt lat="44.46296" lon="0.94577">
        <ele>71</ele>
        <time>2012-06-24T06:10:14Z</time>
      </trkpt>
      <trkpt lat="44.46311" lon="0.946">
        <ele>71</ele>
        <time>2012-06-24T06:10:20Z</time>
      </trkpt>
      <trkpt lat="44.46331" lon="0.94627">
        <ele>75</ele>
        <time>2012-06-24T06:10:26Z</time>
      </trkpt>
      <trkpt lat="44.46347" lon="0.94649">
        <ele>77</ele>
        <time>2012-06-24T06:10:31Z</time>
      </trkpt>
      <trkpt lat="44.46362" lon="0.9467">
        <ele>81</ele>
        <time>2012-06-24T06:10:36Z</time>
      </trkpt>
      <trkpt lat="44.46375" lon="0.94689">
        <ele>83</ele>
        <time>2012-06-24T06:10:41Z</time>
      </trkpt>
      <trkpt lat="44.46382" lon="0.94709">
        <ele>83</ele>
        <time>2012-06-24T06:10:46Z</time>
      </trkpt>
      <trkpt lat="44.46369" lon="0.94729">
        <ele>83</ele>
        <time>2012-06-24T06:10:51Z</time>
      </trkpt>
      <trkpt lat="44.46358" lon="0.9475">
        <ele>83</ele>
        <time>2012-06-24T06:10:56Z</time>
      </trkpt>
      <trkpt lat="44.46343" lon="0.94778">
        <ele>83</ele>
        <time>2012-06-24T06:11:02Z</time>
      </trkpt>
      <trkpt lat="44.46332" lon="0.94803">
        <ele>83</ele>
        <time>2012-06-24T06:11:07Z</time>
      </trkpt>
      <trkpt lat="44.4632" lon="0.94833">
        <ele>83</ele>
        <time>2012-06-24T06:11:12Z</time>
      </trkpt>
      <trkpt lat="44.46306" lon="0.94872">
        <ele>81</ele>
        <time>2012-06-24T06:11:17Z</time>
      </trkpt>
      <trkpt lat="44.4629" lon="0.94914">
        <ele>79</ele>
        <time>2012-06-24T06:11:22Z</time>
      </trkpt>
      <trkpt lat="44.46272" lon="0.94965">
        <ele>79</ele>
        <time>2012-06-24T06:11:28Z</time>
      </trkpt>
      <trkpt lat="44.46258" lon="0.95008">
        <ele>79</ele>
        <time>2012-06-24T06:11:33Z</time>
      </trkpt>
      <trkpt lat="44.46232" lon="0.95048">
        <ele>79</ele>
        <time>2012-06-24T06:11:39Z</time>
      </trkpt>
      <trkpt lat="44.46203" lon="0.95072">
        <ele>79</ele>
        <time>2012-06-24T06:11:44Z</time>
      </trkpt>
      <trkpt lat="44.46172" lon="0.95091">
        <ele>78</ele>
        <time>2012-06-24T06:11:49Z</time>
      </trkpt>
      <trkpt lat="44.46136" lon="0.9511">
        <ele>77</ele>
        <time>2012-06-24T06:11:54Z</time>
      </trkpt>
      <trkpt lat="44.46111" lon="0.95127">
        <ele>77</ele>
        <time>2012-06-24T06:12:00Z</time>
      </trkpt>
      <trkpt lat="44.46085" lon="0.95153">
        <ele>76</ele>
        <time>2012-06-24T06:12:05Z</time>
      </trkpt>
      <trkpt lat="44.46063" lon="0.9518">
        <ele>75</ele>
        <time>2012-06-24T06:12:10Z</time>
      </trkpt>
      <trkpt lat="44.46041" lon="0.95208">
        <ele>74</ele>
        <time>2012-06-24T06:12:15Z</time>
      </trkpt>
      <trkpt lat="44.46019" lon="0.95235">
        <ele>73</ele>
        <time>2012-06-24T06:12:20Z</time>
      </trkpt>
      <trkpt lat="44.45998" lon="0.95255">
        <ele>73</ele>
        <time>2012-06-24T06:12:25Z</time>
      </trkpt>
      <trkpt lat="44.45977" lon="0.95276">
        <ele>73</ele>
        <time>2012-06-24T06:12:30Z</time>
      </trkpt>
      <trkpt lat="44.45956" lon="0.95292">
        <ele>73</ele>
        <time>2012-06-24T06:12:35Z</time>
      </trkpt>
      <trkpt lat="44.45932" lon="0.95302">
        <ele>73</ele>
        <time>2012-06-24T06:12:40Z</time>
      </trkpt>
      <trkpt lat="44.4591" lon="0.95293">
        <ele>73</ele>
        <time>2012-06-24T06:12:45Z</time>
      </trkpt>
      <trkpt lat="44.45887" lon="0.95295">
        <ele>75</ele>
        <time>2012-06-24T06:12:50Z</time>
      </trkpt>
      <trkpt lat="44.45866" lon="0.95309">
        <ele>77</ele>
        <time>2012-06-24T06:12:55Z</time>
      </trkpt>
      <trkpt lat="44.45845" lon="0.95323">
        <ele>78</ele>
        <time>2012-06-24T06:13:00Z</time>
      </trkpt>
      <trkpt lat="44.45823" lon="0.95338">
        <ele>79</ele>
        <time>2012-06-24T06:13:05Z</time>
      </trkpt>
      <trkpt lat="44.45802" lon="0.95352">
        <ele>79</ele>
        <time>2012-06-24T06:13:10Z</time>
      </trkpt>
      <trkpt lat="44.45783" lon="0.95366">
        <ele>79</ele>
        <time>2012-06-24T06:13:15Z</time>
      </trkpt>
      <trkpt lat="44.45763" lon="0.95381">
        <ele>79</ele>
        <time>2012-06-24T06:13:20Z</time>
      </trkpt>
      <trkpt lat="44.45744" lon="0.95395">
        <ele>79</ele>
        <time>2012-06-24T06:13:25Z</time>
      </trkpt>
      <trkpt lat="44.45724" lon="0.95411">
        <ele>79</ele>
        <time>2012-06-24T06:13:30Z</time>
      </trkpt>
      <trkpt lat="44.45702" lon="0.95427">
        <ele>79</ele>
        <time>2012-06-24T06:13:35Z</time>
      </trkpt>
      <trkpt lat="44.45684" lon="0.9544">
        <ele>79</ele>
        <time>2012-06-24T06:13:40Z</time>
      </trkpt>
      <trkpt lat="44.45665" lon="0.95455">
        <ele>79</ele>
        <time>2012-06-24T06:13:45Z</time>
      </trkpt>
      <trkpt lat="44.45645" lon="0.95472">
        <ele>79</ele>
        <time>2012-06-24T06:13:50Z</time>
      </trkpt>
      <trkpt lat="44.45626" lon="0.9549">
        <ele>79</ele>
        <time>2012-06-24T06:13:55Z</time>
      </trkpt>
      <trkpt lat="44.45608" lon="0.95508">
        <ele>79</ele>
        <time>2012-06-24T06:14:00Z</time>
      </trkpt>
      <trkpt lat="44.45592" lon="0.95525">
        <ele>79</ele>
        <time>2012-06-24T06:14:05Z</time>
      </trkpt>
      <trkpt lat="44.45573" lon="0.95544">
        <ele>79</ele>
        <time>2012-06-24T06:14:10Z</time>
      </trkpt>
      <trkpt lat="44.45553" lon="0.95566">
        <ele>79</ele>
        <time>2012-06-24T06:14:15Z</time>
      </trkpt>
      <trkpt lat="44.45535" lon="0.9559">
        <ele>79</ele>
        <time>2012-06-24T06:14:20Z</time>
      </trkpt>
      <trkpt lat="44.45517" lon="0.95613">
        <ele>79</ele>
        <time>2012-06-24T06:14:25Z</time>
      </trkpt>
      <trkpt lat="44.45499" lon="0.95638">
        <ele>79</ele>
        <time>2012-06-24T06:14:30Z</time>
      </trkpt>
      <trkpt lat="44.45481" lon="0.95664">
        <ele>79</ele>
        <time>2012-06-24T06:14:35Z</time>
      </trkpt>
      <trkpt lat="44.45464" lon="0.95691">
        <ele>79</ele>
        <time>2012-06-24T06:14:40Z</time>
      </trkpt>
      <trkpt lat="44.45448" lon="0.95719">
        <ele>80</ele>
        <time>2012-06-24T06:14:46Z</time>
      </trkpt>
      <trkpt lat="44.4543" lon="0.95754">
        <ele>81</ele>
        <time>2012-06-24T06:14:51Z</time>
      </trkpt>
      <trkpt lat="44.45414" lon="0.95784">
        <ele>81</ele>
        <time>2012-06-24T06:14:56Z</time>
      </trkpt>
      <trkpt lat="44.45396" lon="0.95812">
        <ele>81</ele>
        <time>2012-06-24T06:15:01Z</time>
      </trkpt>
      <trkpt lat="44.45385" lon="0.95838">
        <ele>81</ele>
        <time>2012-06-24T06:15:06Z</time>
      </trkpt>
      <trkpt lat="44.45394" lon="0.95869">
        <ele>81</ele>
        <time>2012-06-24T06:15:11Z</time>
      </trkpt>
      <trkpt lat="44.45408" lon="0.95909">
        <ele>82</ele>
        <time>2012-06-24T06:15:16Z</time>
      </trkpt>
      <trkpt lat="44.45425" lon="0.95956">
        <ele>82</ele>
        <time>2012-06-24T06:15:21Z</time>
      </trkpt>
      <trkpt lat="44.45443" lon="0.96007">
        <ele>82</ele>
        <time>2012-06-24T06:15:26Z</time>
      </trkpt>
      <trkpt lat="44.45463" lon="0.96056">
        <ele>82</ele>
        <time>2012-06-24T06:15:31Z</time>
      </trkpt>
      <trkpt lat="44.45481" lon="0.96098">
        <ele>82</ele>
        <time>2012-06-24T06:15:36Z</time>
      </trkpt>
      <trkpt lat="44.45497" lon="0.9614">
        <ele>82</ele>
        <time>2012-06-24T06:15:41Z</time>
      </trkpt>
      <trkpt lat="44.45515" lon="0.9617">
        <ele>84</ele>
        <time>2012-06-24T06:15:46Z</time>
      </trkpt>
      <trkpt lat="44.45544" lon="0.96165">
        <ele>85</ele>
        <time>2012-06-24T06:15:51Z</time>
      </trkpt>
      <trkpt lat="44.45572" lon="0.96157">
        <ele>86</ele>
        <time>2012-06-24T06:15:56Z</time>
      </trkpt>
      <trkpt lat="44.45596" lon="0.96153">
        <ele>88</ele>
        <time>2012-06-24T06:16:01Z</time>
      </trkpt>
      <trkpt lat="44.45616" lon="0.96153">
        <ele>91</ele>
        <time>2012-06-24T06:16:06Z</time>
      </trkpt>
      <trkpt lat="44.45633" lon="0.96155">
        <ele>93</ele>
        <time>2012-06-24T06:16:11Z</time>
      </trkpt>
      <trkpt lat="44.45655" lon="0.96157">
        <ele>96</ele>
        <time>2012-06-24T06:16:16Z</time>
      </trkpt>
      <trkpt lat="44.45677" lon="0.96157">
        <ele>96</ele>
        <time>2012-06-24T06:16:21Z</time>
      </trkpt>
      <trkpt lat="44.457" lon="0.96159">
        <ele>98</ele>
        <time>2012-06-24T06:16:26Z</time>
      </trkpt>
      <trkpt lat="44.45723" lon="0.96158">
        <ele>99</ele>
        <time>2012-06-24T06:16:31Z</time>
      </trkpt>
      <trkpt lat="44.4575" lon="0.96158">
        <ele>101</ele>
        <time>2012-06-24T06:16:36Z</time>
      </trkpt>
      <trkpt lat="44.45769" lon="0.96166">
        <ele>102</ele>
        <time>2012-06-24T06:16:41Z</time>
      </trkpt>
      <trkpt lat="44.45787" lon="0.96178">
        <ele>107</ele>
        <time>2012-06-24T06:16:46Z</time>
      </trkpt>
      <trkpt lat="44.45809" lon="0.96191">
        <ele>109</ele>
        <time>2012-06-24T06:16:51Z</time>
      </trkpt>
      <trkpt lat="44.45833" lon="0.96194">
        <ele>109</ele>
        <time>2012-06-24T06:16:56Z</time>
      </trkpt>
      <trkpt lat="44.45853" lon="0.96194">
        <ele>110</ele>
        <time>2012-06-24T06:17:01Z</time>
      </trkpt>
      <trkpt lat="44.45872" lon="0.96206">
        <ele>110</ele>
        <time>2012-06-24T06:17:06Z</time>
      </trkpt>
      <trkpt lat="44.45883" lon="0.96233">
        <ele>110</ele>
        <time>2012-06-24T06:17:11Z</time>
      </trkpt>
      <trkpt lat="44.45891" lon="0.96269">
        <ele>110</ele>
        <time>2012-06-24T06:17:16Z</time>
      </trkpt>
      <trkpt lat="44.459" lon="0.9631">
        <ele>110</ele>
        <time>2012-06-24T06:17:21Z</time>
      </trkpt>
      <trkpt lat="44.45916" lon="0.96349">
        <ele>109</ele>
        <time>2012-06-24T06:17:26Z</time>
      </trkpt>
      <trkpt lat="44.45942" lon="0.96378">
        <ele>109</ele>
        <time>2012-06-24T06:17:31Z</time>
      </trkpt>
      <trkpt lat="44.45968" lon="0.96396">
        <ele>109</ele>
        <time>2012-06-24T06:17:36Z</time>
      </trkpt>
      <trkpt lat="44.45993" lon="0.96395">
        <ele>109</ele>
        <time>2012-06-24T06:17:41Z</time>
      </trkpt>
      <trkpt lat="44.46019" lon="0.96378">
        <ele>109</ele>
        <time>2012-06-24T06:17:46Z</time>
      </trkpt>
      <trkpt lat="44.46045" lon="0.96362">
        <ele>108</ele>
        <time>2012-06-24T06:17:51Z</time>
      </trkpt>
      <trkpt lat="44.46068" lon="0.96356">
        <ele>108</ele>
        <time>2012-06-24T06:17:56Z</time>
      </trkpt>
      <trkpt lat="44.46092" lon="0.96357">
        <ele>112</ele>
        <time>2012-06-24T06:18:01Z</time>
      </trkpt>
      <trkpt lat="44.46114" lon="0.96358">
        <ele>115</ele>
        <time>2012-06-24T06:18:06Z</time>
      </trkpt>
      <trkpt lat="44.46136" lon="0.96359">
        <ele>115</ele>
        <time>2012-06-24T06:18:11Z</time>
      </trkpt>
      <trkpt lat="44.46159" lon="0.96361">
        <ele>115</ele>
        <time>2012-06-24T06:18:16Z</time>
      </trkpt>
      <trkpt lat="44.46182" lon="0.96364">
        <ele>115</ele>
        <time>2012-06-24T06:18:21Z</time>
      </trkpt>
      <trkpt lat="44.46196" lon="0.96368">
        <ele>115</ele>
        <time>2012-06-24T06:18:26Z</time>
      </trkpt>
      <trkpt lat="44.46203" lon="0.96377">
        <ele>115</ele>
        <time>2012-06-24T06:18:31Z</time>
      </trkpt>
      <trkpt lat="44.46207" lon="0.96393">
        <ele>116</ele>
        <time>2012-06-24T06:18:36Z</time>
      </trkpt>
      <trkpt lat="44.46222" lon="0.96408">
        <ele>118</ele>
        <time>2012-06-24T06:18:41Z</time>
      </trkpt>
      <trkpt lat="44.46237" lon="0.96422">
        <ele>121</ele>
        <time>2012-06-24T06:18:46Z</time>
      </trkpt>
      <trkpt lat="44.46252" lon="0.96435">
        <ele>123</ele>
        <time>2012-06-24T06:18:51Z</time>
      </trkpt>
      <trkpt lat="44.46268" lon="0.96447">
        <ele>124</ele>
        <time>2012-06-24T06:18:56Z</time>
      </trkpt>
      <trkpt lat="44.46288" lon="0.96462">
        <ele>124</ele>
        <time>2012-06-24T06:19:01Z</time>
      </trkpt>
      <trkpt lat="44.46306" lon="0.96475">
        <ele>124</ele>
        <time>2012-06-24T06:19:06Z</time>
      </trkpt>
      <trkpt lat="44.46323" lon="0.9649">
        <ele>124</ele>
        <time>2012-06-24T06:19:11Z</time>
      </trkpt>
      <trkpt lat="44.46339" lon="0.96503">
        <ele>125</ele>
        <time>2012-06-24T06:19:16Z</time>
      </trkpt>
      <trkpt lat="44.46358" lon="0.96521">
        <ele>128</ele>
        <time>2012-06-24T06:19:21Z</time>
      </trkpt>
      <trkpt lat="44.46384" lon="0.96539">
        <ele>128</ele>
        <time>2012-06-24T06:19:26Z</time>
      </trkpt>
      <trkpt lat="44.46416" lon="0.96554">
        <ele>128</ele>
        <time>2012-06-24T06:19:31Z</time>
      </trkpt>
      <trkpt lat="44.46447" lon="0.96572">
        <ele>128</ele>
        <time>2012-06-24T06:19:36Z</time>
      </trkpt>
      <trkpt lat="44.46469" lon="0.96583">
        <ele>128</ele>
        <time>2012-06-24T06:19:41Z</time>
      </trkpt>
      <trkpt lat="44.46466" lon="0.96597">
        <ele>128</ele>
        <time>2012-06-24T06:19:46Z</time>
      </trkpt>
      <trkpt lat="44.46457" lon="0.96619">
        <ele>128</ele>
        <time>2012-06-24T06:19:51Z</time>
      </trkpt>
      <trkpt lat="44.46449" lon="0.96642">
        <ele>131</ele>
        <time>2012-06-24T06:19:56Z</time>
      </trkpt>
      <trkpt lat="44.46447" lon="0.9667">
        <ele>132</ele>
        <time>2012-06-24T06:20:01Z</time>
      </trkpt>
      <trkpt lat="44.46443" lon="0.967">
        <ele>134</ele>
        <time>2012-06-24T06:20:06Z</time>
      </trkpt>
      <trkpt lat="44.46436" lon="0.96731">
        <ele>138</ele>
        <time>2012-06-24T06:20:11Z</time>
      </trkpt>
      <trkpt lat="44.4643" lon="0.96758">
        <ele>141</ele>
        <time>2012-06-24T06:20:16Z</time>
      </trkpt>
      <trkpt lat="44.46424" lon="0.96786">
        <ele>145</ele>
        <time>2012-06-24T06:20:21Z</time>
      </trkpt>
      <trkpt lat="44.46422" lon="0.96818">
        <ele>145</ele>
        <time>2012-06-24T06:20:26Z</time>
      </trkpt>
      <trkpt lat="44.4642" lon="0.96848">
        <ele>145</ele>
        <time>2012-06-24T06:20:31Z</time>
      </trkpt>
      <trkpt lat="44.4642" lon="0.96883">
        <ele>145</ele>
        <time>2012-06-24T06:20:36Z</time>
      </trkpt>
      <trkpt lat="44.46422" lon="0.96914">
        <ele>148</ele>
        <time>2012-06-24T06:20:41Z</time>
      </trkpt>
      <trkpt lat="44.46425" lon="0.96947">
        <ele>148</ele>
        <time>2012-06-24T06:20:46Z</time>
      </trkpt>
      <trkpt lat="44.46424" lon="0.96977">
        <ele>147</ele>
        <time>2012-06-24T06:20:51Z</time>
      </trkpt>
      <trkpt lat="44.46405" lon="0.96983">
        <ele>142</ele>
        <time>2012-06-24T06:20:56Z</time>
      </trkpt>
      <trkpt lat="44.46388" lon="0.96975">
        <ele>138</ele>
        <time>2012-06-24T06:21:01Z</time>
      </trkpt>
      <trkpt lat="44.46365" lon="0.96989">
        <ele>138</ele>
        <time>2012-06-24T06:21:06Z</time>
      </trkpt>
      <trkpt lat="44.46337" lon="0.97016">
        <ele>138</ele>
        <time>2012-06-24T06:21:11Z</time>
      </trkpt>
      <trkpt lat="44.4632" lon="0.97055">
        <ele>135</ele>
        <time>2012-06-24T06:21:16Z</time>
      </trkpt>
      <trkpt lat="44.46304" lon="0.97098">
        <ele>130</ele>
        <time>2012-06-24T06:21:21Z</time>
      </trkpt>
      <trkpt lat="44.46288" lon="0.9714">
        <ele>125</ele>
        <time>2012-06-24T06:21:26Z</time>
      </trkpt>
      <trkpt lat="44.46296" lon="0.97172">
        <ele>120</ele>
        <time>2012-06-24T06:21:31Z</time>
      </trkpt>
      <trkpt lat="44.46297" lon="0.97192">
        <ele>116</ele>
        <time>2012-06-24T06:21:36Z</time>
      </trkpt>
      <trkpt lat="44.46288" lon="0.97205">
        <ele>116</ele>
        <time>2012-06-24T06:21:41Z</time>
      </trkpt>
      <trkpt lat="44.46276" lon="0.9721">
        <ele>116</ele>
        <time>2012-06-24T06:21:46Z</time>
      </trkpt>
      <trkpt lat="44.46264" lon="0.97209">
        <ele>116</ele>
        <time>2012-06-24T06:21:51Z</time>
      </trkpt>
      <trkpt lat="44.46252" lon="0.97208">
        <ele>116</ele>
        <time>2012-06-24T06:21:56Z</time>
      </trkpt>
      <trkpt lat="44.4624" lon="0.97207">
        <ele>116</ele>
        <time>2012-06-24T06:22:01Z</time>
      </trkpt>
      <trkpt lat="44.46228" lon="0.97204">
        <ele>116</ele>
        <time>2012-06-24T06:22:06Z</time>
      </trkpt>
      <trkpt lat="44.46216" lon="0.97203">
        <ele>116</ele>
        <time>2012-06-24T06:22:11Z</time>
      </trkpt>
      <trkpt lat="44.46206" lon="0.97205">
        <ele>116</ele>
        <time>2012-06-24T06:22:16Z</time>
      </trkpt>
      <trkpt lat="44.46195" lon="0.97214">
        <ele>116</ele>
        <time>2012-06-24T06:22:21Z</time>
      </trkpt>
      <trkpt lat="44.46184" lon="0.97225">
        <ele>118</ele>
        <time>2012-06-24T06:22:26Z</time>
      </trkpt>
      <trkpt lat="44.46174" lon="0.97236">
        <ele>118</ele>
        <time>2012-06-24T06:22:31Z</time>
      </trkpt>
      <trkpt lat="44.46163" lon="0.97246">
        <ele>119</ele>
        <time>2012-06-24T06:22:36Z</time>
      </trkpt>
      <trkpt lat="44.46152" lon="0.97256">
        <ele>121</ele>
        <time>2012-06-24T06:22:41Z</time>
      </trkpt>
      <trkpt lat="44.46143" lon="0.97268">
        <ele>122</ele>
        <time>2012-06-24T06:22:46Z</time>
      </trkpt>
      <trkpt lat="44.46132" lon="0.97278">
        <ele>123</ele>
        <time>2012-06-24T06:22:51Z</time>
      </trkpt>
      <trkpt lat="44.46122" lon="0.97288">
        <ele>123</ele>
        <time>2012-06-24T06:22:56Z</time>
      </trkpt>
      <trkpt lat="44.46112" lon="0.97298">
        <ele>124</ele>
        <time>2012-06-24T06:23:01Z</time>
      </trkpt>
      <trkpt lat="44.461" lon="0.97308">
        <ele>126</ele>
        <time>2012-06-24T06:23:06Z</time>
      </trkpt>
      <trkpt lat="44.4609" lon="0.97319">
        <ele>127</ele>
        <time>2012-06-24T06:23:11Z</time>
      </trkpt>
      <trkpt lat="44.46081" lon="0.9733">
        <ele>127</ele>
        <time>2012-06-24T06:23:16Z</time>
      </trkpt>
      <trkpt lat="44.46071" lon="0.97341">
        <ele>127</ele>
        <time>2012-06-24T06:23:21Z</time>
      </trkpt>
      <trkpt lat="44.46061" lon="0.9735">
        <ele>128</ele>
        <time>2012-06-24T06:23:26Z</time>
      </trkpt>
      <trkpt lat="44.4605" lon="0.97359">
        <ele>129</ele>
        <time>2012-06-24T06:23:31Z</time>
      </trkpt>
      <trkpt lat="44.46041" lon="0.97368">
        <ele>130</ele>
        <time>2012-06-24T06:23:36Z</time>
      </trkpt>
      <trkpt lat="44.46031" lon="0.97376">
        <ele>134</ele>
        <time>2012-06-24T06:23:41Z</time>
      </trkpt>
      <trkpt lat="44.46021" lon="0.97385">
        <ele>136</ele>
        <time>2012-06-24T06:23:46Z</time>
      </trkpt>
      <trkpt lat="44.46012" lon="0.97393">
        <ele>138</ele>
        <time>2012-06-24T06:23:51Z</time>
      </trkpt>
      <trkpt lat="44.46009" lon="0.97406">
        <ele>141</ele>
        <time>2012-06-24T06:23:56Z</time>
      </trkpt>
      <trkpt lat="44.46015" lon="0.97415">
        <ele>142</ele>
        <time>2012-06-24T06:24:01Z</time>
      </trkpt>
      <trkpt lat="44.46026" lon="0.97429">
        <ele>142</ele>
        <time>2012-06-24T06:24:06Z</time>
      </trkpt>
      <trkpt lat="44.46045" lon="0.97452">
        <ele>142</ele>
        <time>2012-06-24T06:24:11Z</time>
      </trkpt>
      <trkpt lat="44.46063" lon="0.9748">
        <ele>142</ele>
        <time>2012-06-24T06:24:16Z</time>
      </trkpt>
      <trkpt lat="44.4608" lon="0.97504">
        <ele>142</ele>
        <time>2012-06-24T06:24:21Z</time>
      </trkpt>
      <trkpt lat="44.46095" lon="0.97525">
        <ele>142</ele>
        <time>2012-06-24T06:24:26Z</time>
      </trkpt>
      <trkpt lat="44.46107" lon="0.97544">
        <ele>142</ele>
        <time>2012-06-24T06:24:31Z</time>
      </trkpt>
      <trkpt lat="44.46119" lon="0.97566">
        <ele>142</ele>
        <time>2012-06-24T06:24:36Z</time>
      </trkpt>
      <trkpt lat="44.46125" lon="0.97604">
        <ele>142</ele>
        <time>2012-06-24T06:24:41Z</time>
      </trkpt>
      <trkpt lat="44.4613" lon="0.97656">
        <ele>139</ele>
        <time>2012-06-24T06:24:46Z</time>
      </trkpt>
      <trkpt lat="44.46152" lon="0.97707">
        <ele>137</ele>
        <time>2012-06-24T06:24:51Z</time>
      </trkpt>
      <trkpt lat="44.46178" lon="0.97741">
        <ele>136</ele>
        <time>2012-06-24T06:24:56Z</time>
      </trkpt>
      <trkpt lat="44.4619" lon="0.97777">
        <ele>134</ele>
        <time>2012-06-24T06:25:01Z</time>
      </trkpt>
      <trkpt lat="44.46198" lon="0.97823">
        <ele>133</ele>
        <time>2012-06-24T06:25:06Z</time>
      </trkpt>
      <trkpt lat="44.46204" lon="0.97885">
        <ele>128</ele>
        <time>2012-06-24T06:25:11Z</time>
      </trkpt>
      <trkpt lat="44.4622" lon="0.97953">
        <ele>123</ele>
        <time>2012-06-24T06:25:16Z</time>
      </trkpt>
      <trkpt lat="44.46252" lon="0.9798">
        <ele>118</ele>
        <time>2012-06-24T06:25:21Z</time>
      </trkpt>
      <trkpt lat="44.46291" lon="0.9798">
        <ele>116</ele>
        <time>2012-06-24T06:25:26Z</time>
      </trkpt>
      <trkpt lat="44.46327" lon="0.97988">
        <ele>116</ele>
        <time>2012-06-24T06:25:31Z</time>
      </trkpt>
      <trkpt lat="44.46357" lon="0.98002">
        <ele>116</ele>
        <time>2012-06-24T06:25:36Z</time>
      </trkpt>
      <trkpt lat="44.46379" lon="0.98028">
        <ele>118</ele>
        <time>2012-06-24T06:25:41Z</time>
      </trkpt>
      <trkpt lat="44.464" lon="0.9805">
        <ele>118</ele>
        <time>2012-06-24T06:25:46Z</time>
      </trkpt>
      <trkpt lat="44.46416" lon="0.98061">
        <ele>118</ele>
        <time>2012-06-24T06:25:51Z</time>
      </trkpt>
      <trkpt lat="44.46426" lon="0.98068">
        <ele>120</ele>
        <time>2012-06-24T06:25:56Z</time>
      </trkpt>
      <trkpt lat="44.46434" lon="0.98075">
        <ele>122</ele>
        <time>2012-06-24T06:26:01Z</time>
      </trkpt>
      <trkpt lat="44.46442" lon="0.9808">
        <ele>123</ele>
        <time>2012-06-24T06:26:06Z</time>
      </trkpt>
      <trkpt lat="44.46449" lon="0.98087">
        <ele>125</ele>
        <time>2012-06-24T06:26:11Z</time>
      </trkpt>
      <trkpt lat="44.46456" lon="0.98093">
        <ele>126</ele>
        <time>2012-06-24T06:26:16Z</time>
      </trkpt>
      <trkpt lat="44.46464" lon="0.98098">
        <ele>127</ele>
        <time>2012-06-24T06:26:21Z</time>
      </trkpt>
      <trkpt lat="44.46475" lon="0.98105">
        <ele>128</ele>
        <time>2012-06-24T06:26:26Z</time>
      </trkpt>
      <trkpt lat="44.46481" lon="0.98115">
        <ele>129</ele>
        <time>2012-06-24T06:26:31Z</time>
      </trkpt>
      <trkpt lat="44.46475" lon="0.98132">
        <ele>130</ele>
        <time>2012-06-24T06:26:36Z</time>
      </trkpt>
      <trkpt lat="44.46466" lon="0.9815">
        <ele>130</ele>
        <time>2012-06-24T06:26:41Z</time>
      </trkpt>
      <trkpt lat="44.46455" lon="0.9817">
        <ele>131</ele>
        <time>2012-06-24T06:26:46Z</time>
      </trkpt>
      <trkpt lat="44.46444" lon="0.9819">
        <ele>132</ele>
        <time>2012-06-24T06:26:51Z</time>
      </trkpt>
      <trkpt lat="44.46433" lon="0.98212">
        <ele>133</ele>
        <time>2012-06-24T06:26:56Z</time>
      </trkpt>
      <trkpt lat="44.4642" lon="0.98234">
        <ele>133</ele>
        <time>2012-06-24T06:27:01Z</time>
      </trkpt>
      <trkpt lat="44.46407" lon="0.98257">
        <ele>134</ele>
        <time>2012-06-24T06:27:06Z</time>
      </trkpt>
      <trkpt lat="44.46396" lon="0.98279">
        <ele>134</ele>
        <time>2012-06-24T06:27:11Z</time>
      </trkpt>
      <trkpt lat="44.46383" lon="0.983">
        <ele>135</ele>
        <time>2012-06-24T06:27:16Z</time>
      </trkpt>
      <trkpt lat="44.46371" lon="0.98321">
        <ele>136</ele>
        <time>2012-06-24T06:27:21Z</time>
      </trkpt>
      <trkpt lat="44.46357" lon="0.98342">
        <ele>136</ele>
        <time>2012-06-24T06:27:26Z</time>
      </trkpt>
      <trkpt lat="44.46343" lon="0.98361">
        <ele>137</ele>
        <time>2012-06-24T06:27:31Z</time>
      </trkpt>
      <trkpt lat="44.46327" lon="0.98369">
        <ele>138</ele>
        <time>2012-06-24T06:27:36Z</time>
      </trkpt>
      <trkpt lat="44.4631" lon="0.98374">
        <ele>138</ele>
        <time>2012-06-24T06:27:41Z</time>
      </trkpt>
      <trkpt lat="44.46294" lon="0.98387">
        <ele>138</ele>
        <time>2012-06-24T06:27:46Z</time>
      </trkpt>
      <trkpt lat="44.46278" lon="0.98395">
        <ele>138</ele>
        <time>2012-06-24T06:27:51Z</time>
      </trkpt>
      <trkpt lat="44.4626" lon="0.98396">
        <ele>139</ele>
        <time>2012-06-24T06:27:56Z</time>
      </trkpt>
      <trkpt lat="44.46244" lon="0.98385">
        <ele>141</ele>
        <time>2012-06-24T06:28:01Z</time>
      </trkpt>
      <trkpt lat="44.46225" lon="0.98372">
        <ele>141</ele>
        <time>2012-06-24T06:28:06Z</time>
      </trkpt>
      <trkpt lat="44.4621" lon="0.98373">
        <ele>144</ele>
        <time>2012-06-24T06:28:11Z</time>
      </trkpt>
      <trkpt lat="44.46197" lon="0.98387">
        <ele>145</ele>
        <time>2012-06-24T06:28:16Z</time>
      </trkpt>
      <trkpt lat="44.46183" lon="0.98404">
        <ele>146</ele>
        <time>2012-06-24T06:28:21Z</time>
      </trkpt>
      <trkpt lat="44.46167" lon="0.98418">
        <ele>147</ele>
        <time>2012-06-24T06:28:26Z</time>
      </trkpt>
      <trkpt lat="44.46152" lon="0.98434">
        <ele>149</ele>
        <time>2012-06-24T06:28:31Z</time>
      </trkpt>
      <trkpt lat="44.46138" lon="0.9845">
        <ele>151</ele>
        <time>2012-06-24T06:28:36Z</time>
      </trkpt>
      <trkpt lat="44.46126" lon="0.98467">
        <ele>153</ele>
        <time>2012-06-24T06:28:41Z</time>
      </trkpt>
      <trkpt lat="44.46113" lon="0.98485">
        <ele>154</ele>
        <time>2012-06-24T06:28:46Z</time>
      </trkpt>
      <trkpt lat="44.46101" lon="0.98504">
        <ele>155</ele>
        <time>2012-06-24T06:28:51Z</time>
      </trkpt>
      <trkpt lat="44.4609" lon="0.98522">
        <ele>155</ele>
        <time>2012-06-24T06:28:56Z</time>
      </trkpt>
      <trkpt lat="44.46078" lon="0.98542">
        <ele>156</ele>
        <time>2012-06-24T06:29:01Z</time>
      </trkpt>
      <trkpt lat="44.46065" lon="0.98567">
        <ele>156</ele>
        <time>2012-06-24T06:29:06Z</time>
      </trkpt>
      <trkpt lat="44.4605" lon="0.98593">
        <ele>156</ele>
        <time>2012-06-24T06:29:11Z</time>
      </trkpt>
      <trkpt lat="44.46034" lon="0.98618">
        <ele>156</ele>
        <time>2012-06-24T06:29:16Z</time>
      </trkpt>
      <trkpt lat="44.46019" lon="0.98641">
        <ele>156</ele>
        <time>2012-06-24T06:29:21Z</time>
      </trkpt>
      <trkpt lat="44.46008" lon="0.98668">
        <ele>157</ele>
        <time>2012-06-24T06:29:26Z</time>
      </trkpt>
      <trkpt lat="44.45994" lon="0.98692">
        <ele>159</ele>
        <time>2012-06-24T06:29:31Z</time>
      </trkpt>
      <trkpt lat="44.45981" lon="0.98715">
        <ele>162</ele>
        <time>2012-06-24T06:29:36Z</time>
      </trkpt>
      <trkpt lat="44.45971" lon="0.98733">
        <ele>163</ele>
        <time>2012-06-24T06:29:41Z</time>
      </trkpt>
      <trkpt lat="44.45963" lon="0.98753">
        <ele>166</ele>
        <time>2012-06-24T06:29:46Z</time>
      </trkpt>
      <trkpt lat="44.45953" lon="0.9877">
        <ele>168</ele>
        <time>2012-06-24T06:29:51Z</time>
      </trkpt>
      <trkpt lat="44.45943" lon="0.98785">
        <ele>171</ele>
        <time>2012-06-24T06:29:56Z</time>
      </trkpt>
      <trkpt lat="44.45931" lon="0.988">
        <ele>172</ele>
        <time>2012-06-24T06:30:01Z</time>
      </trkpt>
      <trkpt lat="44.45919" lon="0.98814">
        <ele>174</ele>
        <time>2012-06-24T06:30:06Z</time>
      </trkpt>
      <trkpt lat="44.45906" lon="0.98827">
        <ele>175</ele>
        <time>2012-06-24T06:30:11Z</time>
      </trkpt>
      <trkpt lat="44.45893" lon="0.98841">
        <ele>177</ele>
        <time>2012-06-24T06:30:16Z</time>
      </trkpt>
      <trkpt lat="44.45881" lon="0.98856">
        <ele>178</ele>
        <time>2012-06-24T06:30:21Z</time>
      </trkpt>
      <trkpt lat="44.45872" lon="0.98874">
        <ele>180</ele>
        <time>2012-06-24T06:30:26Z</time>
      </trkpt>
      <trkpt lat="44.45864" lon="0.98894">
        <ele>180</ele>
        <time>2012-06-24T06:30:31Z</time>
      </trkpt>
      <trkpt lat="44.45858" lon="0.98916">
        <ele>180</ele>
        <time>2012-06-24T06:30:36Z</time>
      </trkpt>
      <trkpt lat="44.45856" lon="0.98941">
        <ele>181</ele>
        <time>2012-06-24T06:30:41Z</time>
      </trkpt>
      <trkpt lat="44.45855" lon="0.98967">
        <ele>181</ele>
        <time>2012-06-24T06:30:46Z</time>
      </trkpt>
      <trkpt lat="44.45855" lon="0.98992">
        <ele>181</ele>
        <time>2012-06-24T06:30:51Z</time>
      </trkpt>
      <trkpt lat="44.45852" lon="0.99016">
        <ele>181</ele>
        <time>2012-06-24T06:30:56Z</time>
      </trkpt>
      <trkpt lat="44.4585" lon="0.99043">
        <ele>181</ele>
        <time>2012-06-24T06:31:01Z</time>
      </trkpt>
      <trkpt lat="44.45849" lon="0.99076">
        <ele>181</ele>
        <time>2012-06-24T06:31:06Z</time>
      </trkpt>
      <trkpt lat="44.45846" lon="0.99109">
        <ele>181</ele>
        <time>2012-06-24T06:31:11Z</time>
      </trkpt>
      <trkpt lat="44.45842" lon="0.99144">
        <ele>181</ele>
        <time>2012-06-24T06:31:16Z</time>
      </trkpt>
      <trkpt lat="44.45846" lon="0.99179">
        <ele>181</ele>
        <time>2012-06-24T06:31:21Z</time>
      </trkpt>
      <trkpt lat="44.45865" lon="0.99206">
        <ele>181</ele>
        <time>2012-06-24T06:31:26Z</time>
      </trkpt>
      <trkpt lat="44.45891" lon="0.99225">
        <ele>181</ele>
        <time>2012-06-24T06:31:31Z</time>
      </trkpt>
      <trkpt lat="44.45916" lon="0.99243">
        <ele>181</ele>
        <time>2012-06-24T06:31:36Z</time>
      </trkpt>
      <trkpt lat="44.45942" lon="0.99261">
        <ele>180</ele>
        <time>2012-06-24T06:31:41Z</time>
      </trkpt>
      <trkpt lat="44.45967" lon="0.99283">
        <ele>179</ele>
        <time>2012-06-24T06:31:46Z</time>
      </trkpt>
      <trkpt lat="44.45995" lon="0.99307">
        <ele>178</ele>
        <time>2012-06-24T06:31:51Z</time>
      </trkpt>
      <trkpt lat="44.46021" lon="0.99332">
        <ele>177</ele>
        <time>2012-06-24T06:31:56Z</time>
      </trkpt>
      <trkpt lat="44.46045" lon="0.99355">
        <ele>177</ele>
        <time>2012-06-24T06:32:01Z</time>
      </trkpt>
      <trkpt lat="44.46069" lon="0.99375">
        <ele>176</ele>
        <time>2012-06-24T06:32:06Z</time>
      </trkpt>
      <trkpt lat="44.46089" lon="0.99396">
        <ele>176</ele>
        <time>2012-06-24T06:32:11Z</time>
      </trkpt>
      <trkpt lat="44.46101" lon="0.99411">
        <ele>176</ele>
        <time>2012-06-24T06:32:17Z</time>
      </trkpt>
      <trkpt lat="44.461" lon="0.99413">
        <ele>176</ele>
        <time>2012-06-24T06:32:28Z</time>
      </trkpt>
      <trkpt lat="44.46099" lon="0.99414">
        <ele>176</ele>
        <time>2012-06-24T06:32:43Z</time>
      </trkpt>
      <trkpt lat="44.46098" lon="0.99414">
        <ele>178</ele>
        <time>2012-06-24T06:33:02Z</time>
      </trkpt>
      <trkpt lat="44.46096" lon="0.99415">
        <ele>179</ele>
        <time>2012-06-24T06:33:12Z</time>
      </trkpt>
      <trkpt lat="44.46084" lon="0.99413">
        <ele>179</ele>
        <time>2012-06-24T06:33:17Z</time>
      </trkpt>
      <trkpt lat="44.46061" lon="0.99413">
        <ele>179</ele>
        <time>2012-06-24T06:33:22Z</time>
      </trkpt>
      <trkpt lat="44.46035" lon="0.99417">
        <ele>179</ele>
        <time>2012-06-24T06:33:27Z</time>
      </trkpt>
      <trkpt lat="44.46008" lon="0.99419">
        <ele>179</ele>
        <time>2012-06-24T06:33:32Z</time>
      </trkpt>
      <trkpt lat="44.45977" lon="0.99421">
        <ele>179</ele>
        <time>2012-06-24T06:33:37Z</time>
      </trkpt>
      <trkpt lat="44.45946" lon="0.99423">
        <ele>179</ele>
        <time>2012-06-24T06:33:42Z</time>
      </trkpt>
      <trkpt lat="44.45919" lon="0.99427">
        <ele>179</ele>
        <time>2012-06-24T06:33:48Z</time>
      </trkpt>
      <trkpt lat="44.45891" lon="0.9943">
        <ele>179</ele>
        <time>2012-06-24T06:33:53Z</time>
      </trkpt>
      <trkpt lat="44.45877" lon="0.99431">
        <ele>180</ele>
        <time>2012-06-24T06:33:58Z</time>
      </trkpt>
      <trkpt lat="44.45858" lon="0.99432">
        <ele>181</ele>
        <time>2012-06-24T06:34:03Z</time>
      </trkpt>
      <trkpt lat="44.45837" lon="0.99434">
        <ele>181</ele>
        <time>2012-06-24T06:34:08Z</time>
      </trkpt>
      <trkpt lat="44.45818" lon="0.99436">
        <ele>182</ele>
        <time>2012-06-24T06:34:13Z</time>
      </trkpt>
      <trkpt lat="44.45801" lon="0.99437">
        <ele>183</ele>
        <time>2012-06-24T06:34:18Z</time>
      </trkpt>
      <trkpt lat="44.45786" lon="0.99437">
        <ele>185</ele>
        <time>2012-06-24T06:34:23Z</time>
      </trkpt>
      <trkpt lat="44.45773" lon="0.99434">
        <ele>186</ele>
        <time>2012-06-24T06:34:28Z</time>
      </trkpt>
      <trkpt lat="44.45761" lon="0.99431">
        <ele>188</ele>
        <time>2012-06-24T06:34:33Z</time>
      </trkpt>
      <trkpt lat="44.45748" lon="0.99425">
        <ele>189</ele>
        <time>2012-06-24T06:34:38Z</time>
      </trkpt>
      <trkpt lat="44.45731" lon="0.99418">
        <ele>190</ele>
        <time>2012-06-24T06:34:43Z</time>
      </trkpt>
      <trkpt lat="44.45713" lon="0.99409">
        <ele>191</ele>
        <time>2012-06-24T06:34:48Z</time>
      </trkpt>
      <trkpt lat="44.45694" lon="0.99401">
        <ele>192</ele>
        <time>2012-06-24T06:34:53Z</time>
      </trkpt>
      <trkpt lat="44.45673" lon="0.99394">
        <ele>192</ele>
        <time>2012-06-24T06:34:58Z</time>
      </trkpt>
      <trkpt lat="44.45651" lon="0.99386">
        <ele>192</ele>
        <time>2012-06-24T06:35:03Z</time>
      </trkpt>
      <trkpt lat="44.45625" lon="0.99372">
        <ele>192</ele>
        <time>2012-06-24T06:35:08Z</time>
      </trkpt>
      <trkpt lat="44.45599" lon="0.99353">
        <ele>192</ele>
        <time>2012-06-24T06:35:13Z</time>
      </trkpt>
      <trkpt lat="44.45571" lon="0.99334">
        <ele>192</ele>
        <time>2012-06-24T06:35:18Z</time>
      </trkpt>
      <trkpt lat="44.45543" lon="0.99314">
        <ele>192</ele>
        <time>2012-06-24T06:35:23Z</time>
      </trkpt>
      <trkpt lat="44.4552" lon="0.99299">
        <ele>192</ele>
        <time>2012-06-24T06:35:28Z</time>
      </trkpt>
      <trkpt lat="44.45498" lon="0.99285">
        <ele>192</ele>
        <time>2012-06-24T06:35:33Z</time>
      </trkpt>
      <trkpt lat="44.45475" lon="0.99271">
        <ele>192</ele>
        <time>2012-06-24T06:35:38Z</time>
      </trkpt>
      <trkpt lat="44.45454" lon="0.99257">
        <ele>192</ele>
        <time>2012-06-24T06:35:43Z</time>
      </trkpt>
      <trkpt lat="44.45433" lon="0.99243">
        <ele>192</ele>
        <time>2012-06-24T06:35:48Z</time>
      </trkpt>
      <trkpt lat="44.45413" lon="0.99229">
        <ele>192</ele>
        <time>2012-06-24T06:35:53Z</time>
      </trkpt>
      <trkpt lat="44.45393" lon="0.99215">
        <ele>192</ele>
        <time>2012-06-24T06:35:58Z</time>
      </trkpt>
      <trkpt lat="44.45374" lon="0.99201">
        <ele>192</ele>
        <time>2012-06-24T06:36:03Z</time>
      </trkpt>
      <trkpt lat="44.45354" lon="0.99189">
        <ele>192</ele>
        <time>2012-06-24T06:36:08Z</time>
      </trkpt>
      <trkpt lat="44.45333" lon="0.99175">
        <ele>192</ele>
        <time>2012-06-24T06:36:13Z</time>
      </trkpt>
      <trkpt lat="44.45316" lon="0.99161">
        <ele>193</ele>
        <time>2012-06-24T06:36:18Z</time>
      </trkpt>
      <trkpt lat="44.45302" lon="0.99165">
        <ele>194</ele>
        <time>2012-06-24T06:36:23Z</time>
      </trkpt>
      <trkpt lat="44.45285" lon="0.99177">
        <ele>195</ele>
        <time>2012-06-24T06:36:28Z</time>
      </trkpt>
      <trkpt lat="44.45264" lon="0.99194">
        <ele>195</ele>
        <time>2012-06-24T06:36:33Z</time>
      </trkpt>
      <trkpt lat="44.45233" lon="0.99215">
        <ele>195</ele>
        <time>2012-06-24T06:36:38Z</time>
      </trkpt>
      <trkpt lat="44.45198" lon="0.99244">
        <ele>195</ele>
        <time>2012-06-24T06:36:43Z</time>
      </trkpt>
      <trkpt lat="44.45173" lon="0.99272">
        <ele>191</ele>
        <time>2012-06-24T06:36:48Z</time>
      </trkpt>
      <trkpt lat="44.4515" lon="0.99281">
        <ele>186</ele>
        <time>2012-06-24T06:36:53Z</time>
      </trkpt>
      <trkpt lat="44.45129" lon="0.99286">
        <ele>181</ele>
        <time>2012-06-24T06:36:58Z</time>
      </trkpt>
      <trkpt lat="44.45109" lon="0.99288">
        <ele>176</ele>
        <time>2012-06-24T06:37:03Z</time>
      </trkpt>
      <trkpt lat="44.45084" lon="0.99284">
        <ele>171</ele>
        <time>2012-06-24T06:37:08Z</time>
      </trkpt>
      <trkpt lat="44.45054" lon="0.99267">
        <ele>166</ele>
        <time>2012-06-24T06:37:13Z</time>
      </trkpt>
      <trkpt lat="44.45024" lon="0.99254">
        <ele>163</ele>
        <time>2012-06-24T06:37:18Z</time>
      </trkpt>
      <trkpt lat="44.45003" lon="0.99237">
        <ele>161</ele>
        <time>2012-06-24T06:37:23Z</time>
      </trkpt>
      <trkpt lat="44.44984" lon="0.99213">
        <ele>159</ele>
        <time>2012-06-24T06:37:28Z</time>
      </trkpt>
      <trkpt lat="44.4497" lon="0.99196">
        <ele>156</ele>
        <time>2012-06-24T06:37:33Z</time>
      </trkpt>
      <trkpt lat="44.44952" lon="0.99189">
        <ele>152</ele>
        <time>2012-06-24T06:37:38Z</time>
      </trkpt>
      <trkpt lat="44.4493" lon="0.99209">
        <ele>147</ele>
        <time>2012-06-24T06:37:43Z</time>
      </trkpt>
      <trkpt lat="44.44908" lon="0.99255">
        <ele>142</ele>
        <time>2012-06-24T06:37:48Z</time>
      </trkpt>
      <trkpt lat="44.44883" lon="0.9929">
        <ele>137</ele>
        <time>2012-06-24T06:37:53Z</time>
      </trkpt>
      <trkpt lat="44.44862" lon="0.99312">
        <ele>132</ele>
        <time>2012-06-24T06:37:58Z</time>
      </trkpt>
      <trkpt lat="44.44834" lon="0.99342">
        <ele>131</ele>
        <time>2012-06-24T06:38:03Z</time>
      </trkpt>
      <trkpt lat="44.44807" lon="0.99375">
        <ele>129</ele>
        <time>2012-06-24T06:38:08Z</time>
      </trkpt>
      <trkpt lat="44.44783" lon="0.99399">
        <ele>128</ele>
        <time>2012-06-24T06:38:13Z</time>
      </trkpt>
      <trkpt lat="44.4477" lon="0.99423">
        <ele>126</ele>
        <time>2012-06-24T06:38:18Z</time>
      </trkpt>
      <trkpt lat="44.44746" lon="0.99431">
        <ele>122</ele>
        <time>2012-06-24T06:38:23Z</time>
      </trkpt>
      <trkpt lat="44.44722" lon="0.99445">
        <ele>120</ele>
        <time>2012-06-24T06:38:28Z</time>
      </trkpt>
      <trkpt lat="44.44701" lon="0.99474">
        <ele>116</ele>
        <time>2012-06-24T06:38:33Z</time>
      </trkpt>
      <trkpt lat="44.44684" lon="0.99507">
        <ele>115</ele>
        <time>2012-06-24T06:38:38Z</time>
      </trkpt>
      <trkpt lat="44.4467" lon="0.99538">
        <ele>115</ele>
        <time>2012-06-24T06:38:43Z</time>
      </trkpt>
      <trkpt lat="44.44664" lon="0.99559">
        <ele>115</ele>
        <time>2012-06-24T06:38:48Z</time>
      </trkpt>
      <trkpt lat="44.4468" lon="0.99575">
        <ele>115</ele>
        <time>2012-06-24T06:38:53Z</time>
      </trkpt>
      <trkpt lat="44.44696" lon="0.99591">
        <ele>115</ele>
        <time>2012-06-24T06:38:58Z</time>
      </trkpt>
      <trkpt lat="44.44711" lon="0.99611">
        <ele>115</ele>
        <time>2012-06-24T06:39:03Z</time>
      </trkpt>
      <trkpt lat="44.44724" lon="0.99632">
        <ele>116</ele>
        <time>2012-06-24T06:39:08Z</time>
      </trkpt>
      <trkpt lat="44.44737" lon="0.99655">
        <ele>116</ele>
        <time>2012-06-24T06:39:13Z</time>
      </trkpt>
      <trkpt lat="44.4475" lon="0.99677">
        <ele>117</ele>
        <time>2012-06-24T06:39:18Z</time>
      </trkpt>
      <trkpt lat="44.44766" lon="0.99695">
        <ele>119</ele>
        <time>2012-06-24T06:39:23Z</time>
      </trkpt>
      <trkpt lat="44.44783" lon="0.99711">
        <ele>120</ele>
        <time>2012-06-24T06:39:28Z</time>
      </trkpt>
      <trkpt lat="44.44803" lon="0.99727">
        <ele>121</ele>
        <time>2012-06-24T06:39:33Z</time>
      </trkpt>
      <trkpt lat="44.44824" lon="0.99747">
        <ele>122</ele>
        <time>2012-06-24T06:39:38Z</time>
      </trkpt>
      <trkpt lat="44.4485" lon="0.99769">
        <ele>122</ele>
        <time>2012-06-24T06:39:43Z</time>
      </trkpt>
      <trkpt lat="44.44878" lon="0.99792">
        <ele>122</ele>
        <time>2012-06-24T06:39:48Z</time>
      </trkpt>
      <trkpt lat="44.44904" lon="0.99813">
        <ele>122</ele>
        <time>2012-06-24T06:39:53Z</time>
      </trkpt>
      <trkpt lat="44.44929" lon="0.9984">
        <ele>118</ele>
        <time>2012-06-24T06:39:58Z</time>
      </trkpt>
      <trkpt lat="44.44951" lon="0.9987">
        <ele>115</ele>
        <time>2012-06-24T06:40:03Z</time>
      </trkpt>
      <trkpt lat="44.44975" lon="0.99902">
        <ele>115</ele>
        <time>2012-06-24T06:40:08Z</time>
      </trkpt>
      <trkpt lat="44.44998" lon="0.99922">
        <ele>115</ele>
        <time>2012-06-24T06:40:13Z</time>
      </trkpt>
      <trkpt lat="44.45002" lon="0.99941">
        <ele>115</ele>
        <time>2012-06-24T06:40:18Z</time>
      </trkpt>
      <trkpt lat="44.44992" lon="0.99956">
        <ele>115</ele>
        <time>2012-06-24T06:40:23Z</time>
      </trkpt>
      <trkpt lat="44.44983" lon="0.99971">
        <ele>118</ele>
        <time>2012-06-24T06:40:28Z</time>
      </trkpt>
      <trkpt lat="44.44976" lon="0.99983">
        <ele>120</ele>
        <time>2012-06-24T06:40:33Z</time>
      </trkpt>
      <trkpt lat="44.4497" lon="0.99994">
        <ele>121</ele>
        <time>2012-06-24T06:40:38Z</time>
      </trkpt>
      <trkpt lat="44.44963" lon="1.00007">
        <ele>122</ele>
        <time>2012-06-24T06:40:43Z</time>
      </trkpt>
      <trkpt lat="44.44957" lon="1.00019">
        <ele>125</ele>
        <time>2012-06-24T06:40:48Z</time>
      </trkpt>
      <trkpt lat="44.44951" lon="1.00032">
        <ele>126</ele>
        <time>2012-06-24T06:40:53Z</time>
      </trkpt>
      <trkpt lat="44.44942" lon="1.00048">
        <ele>127</ele>
        <time>2012-06-24T06:40:58Z</time>
      </trkpt>
      <trkpt lat="44.44936" lon="1.0006">
        <ele>128</ele>
        <time>2012-06-24T06:41:03Z</time>
      </trkpt>
      <trkpt lat="44.44931" lon="1.00072">
        <ele>128</ele>
        <time>2012-06-24T06:41:08Z</time>
      </trkpt>
      <trkpt lat="44.44924" lon="1.00083">
        <ele>129</ele>
        <time>2012-06-24T06:41:13Z</time>
      </trkpt>
      <trkpt lat="44.44919" lon="1.00093">
        <ele>131</ele>
        <time>2012-06-24T06:41:18Z</time>
      </trkpt>
      <trkpt lat="44.44914" lon="1.00102">
        <ele>131</ele>
        <time>2012-06-24T06:41:23Z</time>
      </trkpt>
      <trkpt lat="44.44909" lon="1.00113">
        <ele>132</ele>
        <time>2012-06-24T06:41:28Z</time>
      </trkpt>
      <trkpt lat="44.44904" lon="1.00123">
        <ele>132</ele>
        <time>2012-06-24T06:41:33Z</time>
      </trkpt>
      <trkpt lat="44.449" lon="1.00134">
        <ele>136</ele>
        <time>2012-06-24T06:41:38Z</time>
      </trkpt>
      <trkpt lat="44.44895" lon="1.00142">
        <ele>140</ele>
        <time>2012-06-24T06:41:43Z</time>
      </trkpt>
      <trkpt lat="44.44889" lon="1.00151">
        <ele>142</ele>
        <time>2012-06-24T06:41:48Z</time>
      </trkpt>
      <trkpt lat="44.44884" lon="1.0016">
        <ele>146</ele>
        <time>2012-06-24T06:41:53Z</time>
      </trkpt>
      <trkpt lat="44.44878" lon="1.0017">
        <ele>148</ele>
        <time>2012-06-24T06:41:58Z</time>
      </trkpt>
      <trkpt lat="44.44872" lon="1.0018">
        <ele>149</ele>
        <time>2012-06-24T06:42:03Z</time>
      </trkpt>
      <trkpt lat="44.44863" lon="1.00191">
        <ele>150</ele>
        <time>2012-06-24T06:42:08Z</time>
      </trkpt>
      <trkpt lat="44.44857" lon="1.002">
        <ele>151</ele>
        <time>2012-06-24T06:42:13Z</time>
      </trkpt>
      <trkpt lat="44.44854" lon="1.00212">
        <ele>151</ele>
        <time>2012-06-24T06:42:18Z</time>
      </trkpt>
      <trkpt lat="44.44849" lon="1.00222">
        <ele>151</ele>
        <time>2012-06-24T06:42:23Z</time>
      </trkpt>
      <trkpt lat="44.44846" lon="1.00232">
        <ele>151</ele>
        <time>2012-06-24T06:42:28Z</time>
      </trkpt>
      <trkpt lat="44.44842" lon="1.00243">
        <ele>151</ele>
        <time>2012-06-24T06:42:33Z</time>
      </trkpt>
      <trkpt lat="44.44837" lon="1.00254">
        <ele>151</ele>
        <time>2012-06-24T06:42:38Z</time>
      </trkpt>
      <trkpt lat="44.44832" lon="1.00265">
        <ele>151</ele>
        <time>2012-06-24T06:42:43Z</time>
      </trkpt>
      <trkpt lat="44.44827" lon="1.00277">
        <ele>151</ele>
        <time>2012-06-24T06:42:48Z</time>
      </trkpt>
      <trkpt lat="44.44824" lon="1.0029">
        <ele>152</ele>
        <time>2012-06-24T06:42:53Z</time>
      </trkpt>
      <trkpt lat="44.44821" lon="1.00301">
        <ele>153</ele>
        <time>2012-06-24T06:42:58Z</time>
      </trkpt>
      <trkpt lat="44.44818" lon="1.00312">
        <ele>153</ele>
        <time>2012-06-24T06:43:03Z</time>
      </trkpt>
      <trkpt lat="44.44815" lon="1.00323">
        <ele>153</ele>
        <time>2012-06-24T06:43:08Z</time>
      </trkpt>
      <trkpt lat="44.44811" lon="1.00335">
        <ele>153</ele>
        <time>2012-06-24T06:43:13Z</time>
      </trkpt>
      <trkpt lat="44.44806" lon="1.00347">
        <ele>153</ele>
        <time>2012-06-24T06:43:18Z</time>
      </trkpt>
      <trkpt lat="44.44802" lon="1.00358">
        <ele>154</ele>
        <time>2012-06-24T06:43:23Z</time>
      </trkpt>
      <trkpt lat="44.44799" lon="1.00369">
        <ele>156</ele>
        <time>2012-06-24T06:43:28Z</time>
      </trkpt>
      <trkpt lat="44.44796" lon="1.0038">
        <ele>156</ele>
        <time>2012-06-24T06:43:33Z</time>
      </trkpt>
      <trkpt lat="44.44792" lon="1.00391">
        <ele>157</ele>
        <time>2012-06-24T06:43:38Z</time>
      </trkpt>
      <trkpt lat="44.44787" lon="1.00401">
        <ele>159</ele>
        <time>2012-06-24T06:43:43Z</time>
      </trkpt>
      <trkpt lat="44.44782" lon="1.0041">
        <ele>161</ele>
        <time>2012-06-24T06:43:48Z</time>
      </trkpt>
      <trkpt lat="44.44775" lon="1.00419">
        <ele>164</ele>
        <time>2012-06-24T06:43:53Z</time>
      </trkpt>
      <trkpt lat="44.44769" lon="1.00428">
        <ele>166</ele>
        <time>2012-06-24T06:43:58Z</time>
      </trkpt>
      <trkpt lat="44.44765" lon="1.0044">
        <ele>167</ele>
        <time>2012-06-24T06:44:03Z</time>
      </trkpt>
      <trkpt lat="44.44762" lon="1.00452">
        <ele>167</ele>
        <time>2012-06-24T06:44:08Z</time>
      </trkpt>
      <trkpt lat="44.44758" lon="1.00463">
        <ele>167</ele>
        <time>2012-06-24T06:44:13Z</time>
      </trkpt>
      <trkpt lat="44.44755" lon="1.00474">
        <ele>167</ele>
        <time>2012-06-24T06:44:18Z</time>
      </trkpt>
      <trkpt lat="44.4475" lon="1.00484">
        <ele>167</ele>
        <time>2012-06-24T06:44:23Z</time>
      </trkpt>
      <trkpt lat="44.44746" lon="1.00496">
        <ele>169</ele>
        <time>2012-06-24T06:44:28Z</time>
      </trkpt>
      <trkpt lat="44.4474" lon="1.00505">
        <ele>170</ele>
        <time>2012-06-24T06:44:33Z</time>
      </trkpt>
      <trkpt lat="44.44734" lon="1.00514">
        <ele>171</ele>
        <time>2012-06-24T06:44:38Z</time>
      </trkpt>
      <trkpt lat="44.44728" lon="1.00521">
        <ele>173</ele>
        <time>2012-06-24T06:44:43Z</time>
      </trkpt>
      <trkpt lat="44.44723" lon="1.00527">
        <ele>173</ele>
        <time>2012-06-24T06:44:48Z</time>
      </trkpt>
      <trkpt lat="44.44717" lon="1.00534">
        <ele>175</ele>
        <time>2012-06-24T06:44:53Z</time>
      </trkpt>
      <trkpt lat="44.44712" lon="1.0054">
        <ele>177</ele>
        <time>2012-06-24T06:44:58Z</time>
      </trkpt>
      <trkpt lat="44.44704" lon="1.00545">
        <ele>180</ele>
        <time>2012-06-24T06:45:03Z</time>
      </trkpt>
      <trkpt lat="44.44696" lon="1.00554">
        <ele>182</ele>
        <time>2012-06-24T06:45:08Z</time>
      </trkpt>
      <trkpt lat="44.44693" lon="1.00564">
        <ele>183</ele>
        <time>2012-06-24T06:45:13Z</time>
      </trkpt>
      <trkpt lat="44.44684" lon="1.00574">
        <ele>184</ele>
        <time>2012-06-24T06:45:18Z</time>
      </trkpt>
      <trkpt lat="44.44678" lon="1.00581">
        <ele>187</ele>
        <time>2012-06-24T06:45:23Z</time>
      </trkpt>
      <trkpt lat="44.44672" lon="1.00587">
        <ele>189</ele>
        <time>2012-06-24T06:45:28Z</time>
      </trkpt>
      <trkpt lat="44.44664" lon="1.00595">
        <ele>190</ele>
        <time>2012-06-24T06:45:33Z</time>
      </trkpt>
      <trkpt lat="44.44659" lon="1.00604">
        <ele>193</ele>
        <time>2012-06-24T06:45:38Z</time>
      </trkpt>
      <trkpt lat="44.44654" lon="1.00613">
        <ele>194</ele>
        <time>2012-06-24T06:45:43Z</time>
      </trkpt>
      <trkpt lat="44.44648" lon="1.00621">
        <ele>196</ele>
        <time>2012-06-24T06:45:48Z</time>
      </trkpt>
      <trkpt lat="44.44642" lon="1.0063">
        <ele>196</ele>
        <time>2012-06-24T06:45:53Z</time>
      </trkpt>
      <trkpt lat="44.44635" lon="1.00636">
        <ele>198</ele>
        <time>2012-06-24T06:45:58Z</time>
      </trkpt>
      <trkpt lat="44.44626" lon="1.00639">
        <ele>201</ele>
        <time>2012-06-24T06:46:03Z</time>
      </trkpt>
      <trkpt lat="44.44611" lon="1.00625">
        <ele>202</ele>
        <time>2012-06-24T06:46:08Z</time>
      </trkpt>
      <trkpt lat="44.44598" lon="1.00612">
        <ele>202</ele>
        <time>2012-06-24T06:46:13Z</time>
      </trkpt>
      <trkpt lat="44.44588" lon="1.00598">
        <ele>203</ele>
        <time>2012-06-24T06:46:18Z</time>
      </trkpt>
      <trkpt lat="44.44576" lon="1.00592">
        <ele>206</ele>
        <time>2012-06-24T06:46:23Z</time>
      </trkpt>
      <trkpt lat="44.44564" lon="1.006">
        <ele>208</ele>
        <time>2012-06-24T06:46:28Z</time>
      </trkpt>
      <trkpt lat="44.44555" lon="1.00608">
        <ele>209</ele>
        <time>2012-06-24T06:46:33Z</time>
      </trkpt>
      <trkpt lat="44.44544" lon="1.00618">
        <ele>210</ele>
        <time>2012-06-24T06:46:38Z</time>
      </trkpt>
      <trkpt lat="44.44532" lon="1.00628">
        <ele>211</ele>
        <time>2012-06-24T06:46:43Z</time>
      </trkpt>
      <trkpt lat="44.4452" lon="1.00639">
        <ele>212</ele>
        <time>2012-06-24T06:46:48Z</time>
      </trkpt>
      <trkpt lat="44.44508" lon="1.00649">
        <ele>212</ele>
        <time>2012-06-24T06:46:53Z</time>
      </trkpt>
      <trkpt lat="44.44496" lon="1.00659">
        <ele>212</ele>
        <time>2012-06-24T06:46:58Z</time>
      </trkpt>
      <trkpt lat="44.44482" lon="1.00672">
        <ele>212</ele>
        <time>2012-06-24T06:47:03Z</time>
      </trkpt>
      <trkpt lat="44.44471" lon="1.00691">
        <ele>212</ele>
        <time>2012-06-24T06:47:08Z</time>
      </trkpt>
      <trkpt lat="44.44476" lon="1.00718">
        <ele>212</ele>
        <time>2012-06-24T06:47:13Z</time>
      </trkpt>
      <trkpt lat="44.44479" lon="1.00751">
        <ele>212</ele>
        <time>2012-06-24T06:47:18Z</time>
      </trkpt>
      <trkpt lat="44.44475" lon="1.00786">
        <ele>210</ele>
        <time>2012-06-24T06:47:23Z</time>
      </trkpt>
      <trkpt lat="44.44457" lon="1.00814">
        <ele>209</ele>
        <time>2012-06-24T06:47:28Z</time>
      </trkpt>
      <trkpt lat="44.44439" lon="1.0084">
        <ele>209</ele>
        <time>2012-06-24T06:47:33Z</time>
      </trkpt>
      <trkpt lat="44.44423" lon="1.00867">
        <ele>209</ele>
        <time>2012-06-24T06:47:38Z</time>
      </trkpt>
      <trkpt lat="44.44404" lon="1.00887">
        <ele>208</ele>
        <time>2012-06-24T06:47:43Z</time>
      </trkpt>
      <trkpt lat="44.44385" lon="1.00897">
        <ele>208</ele>
        <time>2012-06-24T06:47:48Z</time>
      </trkpt>
      <trkpt lat="44.44377" lon="1.00913">
        <ele>208</ele>
        <time>2012-06-24T06:47:53Z</time>
      </trkpt>
      <trkpt lat="44.44371" lon="1.0093">
        <ele>208</ele>
        <time>2012-06-24T06:47:58Z</time>
      </trkpt>
      <trkpt lat="44.44362" lon="1.0095">
        <ele>208</ele>
        <time>2012-06-24T06:48:03Z</time>
      </trkpt>
      <trkpt lat="44.44353" lon="1.0097">
        <ele>208</ele>
        <time>2012-06-24T06:48:08Z</time>
      </trkpt>
      <trkpt lat="44.44345" lon="1.0099">
        <ele>209</ele>
        <time>2012-06-24T06:48:13Z</time>
      </trkpt>
      <trkpt lat="44.44336" lon="1.01009">
        <ele>210</ele>
        <time>2012-06-24T06:48:18Z</time>
      </trkpt>
      <trkpt lat="44.44328" lon="1.01029">
        <ele>211</ele>
        <time>2012-06-24T06:48:23Z</time>
      </trkpt>
      <trkpt lat="44.44313" lon="1.01037">
        <ele>211</ele>
        <time>2012-06-24T06:48:28Z</time>
      </trkpt>
      <trkpt lat="44.44293" lon="1.01048">
        <ele>213</ele>
        <time>2012-06-24T06:48:33Z</time>
      </trkpt>
      <trkpt lat="44.4428" lon="1.01068">
        <ele>215</ele>
        <time>2012-06-24T06:48:38Z</time>
      </trkpt>
      <trkpt lat="44.44265" lon="1.01082">
        <ele>216</ele>
        <time>2012-06-24T06:48:43Z</time>
      </trkpt>
      <trkpt lat="44.44255" lon="1.01093">
        <ele>217</ele>
        <time>2012-06-24T06:48:48Z</time>
      </trkpt>
      <trkpt lat="44.44263" lon="1.01109">
        <ele>219</ele>
        <time>2012-06-24T06:48:53Z</time>
      </trkpt>
      <trkpt lat="44.44268" lon="1.01132">
        <ele>219</ele>
        <time>2012-06-24T06:48:58Z</time>
      </trkpt>
      <trkpt lat="44.44254" lon="1.01152">
        <ele>219</ele>
        <time>2012-06-24T06:49:03Z</time>
      </trkpt>
      <trkpt lat="44.44242" lon="1.01172">
        <ele>219</ele>
        <time>2012-06-24T06:49:08Z</time>
      </trkpt>
      <trkpt lat="44.44225" lon="1.01208">
        <ele>216</ele>
        <time>2012-06-24T06:49:13Z</time>
      </trkpt>
      <trkpt lat="44.44207" lon="1.01235">
        <ele>213</ele>
        <time>2012-06-24T06:49:18Z</time>
      </trkpt>
      <trkpt lat="44.44191" lon="1.01243">
        <ele>213</ele>
        <time>2012-06-24T06:49:23Z</time>
      </trkpt>
      <trkpt lat="44.44175" lon="1.01229">
        <ele>213</ele>
        <time>2012-06-24T06:49:28Z</time>
      </trkpt>
      <trkpt lat="44.44156" lon="1.01221">
        <ele>213</ele>
        <time>2012-06-24T06:49:33Z</time>
      </trkpt>
      <trkpt lat="44.44135" lon="1.01218">
        <ele>213</ele>
        <time>2012-06-24T06:49:38Z</time>
      </trkpt>
      <trkpt lat="44.4411" lon="1.01222">
        <ele>213</ele>
        <time>2012-06-24T06:49:43Z</time>
      </trkpt>
      <trkpt lat="44.44089" lon="1.01229">
        <ele>213</ele>
        <time>2012-06-24T06:49:48Z</time>
      </trkpt>
      <trkpt lat="44.44081" lon="1.01212">
        <ele>213</ele>
        <time>2012-06-24T06:49:53Z</time>
      </trkpt>
      <trkpt lat="44.44078" lon="1.01185">
        <ele>213</ele>
        <time>2012-06-24T06:49:58Z</time>
      </trkpt>
      <trkpt lat="44.44075" lon="1.01161">
        <ele>213</ele>
        <time>2012-06-24T06:50:03Z</time>
      </trkpt>
      <trkpt lat="44.44072" lon="1.01136">
        <ele>213</ele>
        <time>2012-06-24T06:50:08Z</time>
      </trkpt>
      <trkpt lat="44.44066" lon="1.01111">
        <ele>214</ele>
        <time>2012-06-24T06:50:13Z</time>
      </trkpt>
      <trkpt lat="44.44059" lon="1.01084">
        <ele>214</ele>
        <time>2012-06-24T06:50:18Z</time>
      </trkpt>
      <trkpt lat="44.44044" lon="1.01064">
        <ele>215</ele>
        <time>2012-06-24T06:50:23Z</time>
      </trkpt>
      <trkpt lat="44.44014" lon="1.01062">
        <ele>215</ele>
        <time>2012-06-24T06:50:28Z</time>
      </trkpt>
      <trkpt lat="44.43986" lon="1.01067">
        <ele>214</ele>
        <time>2012-06-24T06:50:33Z</time>
      </trkpt>
      <trkpt lat="44.43962" lon="1.01074">
        <ele>210</ele>
        <time>2012-06-24T06:50:38Z</time>
      </trkpt>
      <trkpt lat="44.43946" lon="1.01055">
        <ele>206</ele>
        <time>2012-06-24T06:50:43Z</time>
      </trkpt>
      <trkpt lat="44.43941" lon="1.01021">
        <ele>206</ele>
        <time>2012-06-24T06:50:48Z</time>
      </trkpt>
      <trkpt lat="44.43936" lon="1.00984">
        <ele>206</ele>
        <time>2012-06-24T06:50:53Z</time>
      </trkpt>
      <trkpt lat="44.43931" lon="1.00945">
        <ele>206</ele>
        <time>2012-06-24T06:50:58Z</time>
      </trkpt>
      <trkpt lat="44.43926" lon="1.00906">
        <ele>206</ele>
        <time>2012-06-24T06:51:03Z</time>
      </trkpt>
      <trkpt lat="44.43921" lon="1.00868">
        <ele>206</ele>
        <time>2012-06-24T06:51:08Z</time>
      </trkpt>
      <trkpt lat="44.43916" lon="1.00832">
        <ele>206</ele>
        <time>2012-06-24T06:51:13Z</time>
      </trkpt>
      <trkpt lat="44.4391" lon="1.00797">
        <ele>206</ele>
        <time>2012-06-24T06:51:18Z</time>
      </trkpt>
      <trkpt lat="44.43904" lon="1.0076">
        <ele>206</ele>
        <time>2012-06-24T06:51:23Z</time>
      </trkpt>
      <trkpt lat="44.43901" lon="1.00724">
        <ele>206</ele>
        <time>2012-06-24T06:51:28Z</time>
      </trkpt>
      <trkpt lat="44.43913" lon="1.00699">
        <ele>206</ele>
        <time>2012-06-24T06:51:33Z</time>
      </trkpt>
      <trkpt lat="44.43927" lon="1.00691">
        <ele>206</ele>
        <time>2012-06-24T06:51:38Z</time>
      </trkpt>
      <trkpt lat="44.43939" lon="1.00685">
        <ele>206</ele>
        <time>2012-06-24T06:51:43Z</time>
      </trkpt>
      <trkpt lat="44.43946" lon="1.00674">
        <ele>207</ele>
        <time>2012-06-24T06:51:48Z</time>
      </trkpt>
      <trkpt lat="44.43941" lon="1.00649">
        <ele>209</ele>
        <time>2012-06-24T06:51:53Z</time>
      </trkpt>
      <trkpt lat="44.43934" lon="1.00611">
        <ele>209</ele>
        <time>2012-06-24T06:51:58Z</time>
      </trkpt>
      <trkpt lat="44.43919" lon="1.00597">
        <ele>209</ele>
        <time>2012-06-24T06:52:03Z</time>
      </trkpt>
      <trkpt lat="44.43906" lon="1.00568">
        <ele>208</ele>
        <time>2012-06-24T06:52:08Z</time>
      </trkpt>
      <trkpt lat="44.4389" lon="1.00529">
        <ele>205</ele>
        <time>2012-06-24T06:52:13Z</time>
      </trkpt>
      <trkpt lat="44.43873" lon="1.00506">
        <ele>203</ele>
        <time>2012-06-24T06:52:18Z</time>
      </trkpt>
      <trkpt lat="44.43859" lon="1.00518">
        <ele>201</ele>
        <time>2012-06-24T06:52:23Z</time>
      </trkpt>
      <trkpt lat="44.43847" lon="1.00539">
        <ele>199</ele>
        <time>2012-06-24T06:52:28Z</time>
      </trkpt>
      <trkpt lat="44.43842" lon="1.00558">
        <ele>196</ele>
        <time>2012-06-24T06:52:33Z</time>
      </trkpt>
      <trkpt lat="44.43847" lon="1.00596">
        <ele>191</ele>
        <time>2012-06-24T06:52:38Z</time>
      </trkpt>
      <trkpt lat="44.43849" lon="1.00635">
        <ele>186</ele>
        <time>2012-06-24T06:52:43Z</time>
      </trkpt>
      <trkpt lat="44.43846" lon="1.00671">
        <ele>181</ele>
        <time>2012-06-24T06:52:48Z</time>
      </trkpt>
      <trkpt lat="44.4384" lon="1.00711">
        <ele>177</ele>
        <time>2012-06-24T06:52:53Z</time>
      </trkpt>
      <trkpt lat="44.43834" lon="1.0075">
        <ele>174</ele>
        <time>2012-06-24T06:52:58Z</time>
      </trkpt>
      <trkpt lat="44.43829" lon="1.00792">
        <ele>171</ele>
        <time>2012-06-24T06:53:03Z</time>
      </trkpt>
      <trkpt lat="44.43825" lon="1.00815">
        <ele>169</ele>
        <time>2012-06-24T06:53:08Z</time>
      </trkpt>
      <trkpt lat="44.43817" lon="1.00797">
        <ele>168</ele>
        <time>2012-06-24T06:53:13Z</time>
      </trkpt>
      <trkpt lat="44.43811" lon="1.0078">
        <ele>166</ele>
        <time>2012-06-24T06:53:18Z</time>
      </trkpt>
      <trkpt lat="44.43808" lon="1.00804">
        <ele>164</ele>
        <time>2012-06-24T06:53:23Z</time>
      </trkpt>
      <trkpt lat="44.43805" lon="1.00833">
        <ele>161</ele>
        <time>2012-06-24T06:53:28Z</time>
      </trkpt>
      <trkpt lat="44.43807" lon="1.00868">
        <ele>158</ele>
        <time>2012-06-24T06:53:33Z</time>
      </trkpt>
      <trkpt lat="44.43812" lon="1.009">
        <ele>155</ele>
        <time>2012-06-24T06:53:38Z</time>
      </trkpt>
      <trkpt lat="44.4381" lon="1.00914">
        <ele>155</ele>
        <time>2012-06-24T06:53:43Z</time>
      </trkpt>
      <trkpt lat="44.43801" lon="1.00898">
        <ele>154</ele>
        <time>2012-06-24T06:53:48Z</time>
      </trkpt>
      <trkpt lat="44.4379" lon="1.00882">
        <ele>153</ele>
        <time>2012-06-24T06:53:53Z</time>
      </trkpt>
      <trkpt lat="44.43779" lon="1.00862">
        <ele>153</ele>
        <time>2012-06-24T06:53:58Z</time>
      </trkpt>
      <trkpt lat="44.43766" lon="1.00845">
        <ele>152</ele>
        <time>2012-06-24T06:54:03Z</time>
      </trkpt>
      <trkpt lat="44.43751" lon="1.00807">
        <ele>150</ele>
        <time>2012-06-24T06:54:08Z</time>
      </trkpt>
      <trkpt lat="44.43742" lon="1.00766">
        <ele>150</ele>
        <time>2012-06-24T06:54:13Z</time>
      </trkpt>
      <trkpt lat="44.43747" lon="1.00729">
        <ele>147</ele>
        <time>2012-06-24T06:54:19Z</time>
      </trkpt>
      <trkpt lat="44.43753" lon="1.00693">
        <ele>147</ele>
        <time>2012-06-24T06:54:24Z</time>
      </trkpt>
      <trkpt lat="44.43758" lon="1.00644">
        <ele>147</ele>
        <time>2012-06-24T06:54:30Z</time>
      </trkpt>
      <trkpt lat="44.43753" lon="1.00594">
        <ele>145</ele>
        <time>2012-06-24T06:54:36Z</time>
      </trkpt>
      <trkpt lat="44.43743" lon="1.00572">
        <ele>144</ele>
        <time>2012-06-24T06:54:41Z</time>
      </trkpt>
      <trkpt lat="44.43735" lon="1.00589">
        <ele>143</ele>
        <time>2012-06-24T06:54:46Z</time>
      </trkpt>
      <trkpt lat="44.43729" lon="1.0062">
        <ele>138</ele>
        <time>2012-06-24T06:54:52Z</time>
      </trkpt>
      <trkpt lat="44.43722" lon="1.00651">
        <ele>135</ele>
        <time>2012-06-24T06:54:58Z</time>
      </trkpt>
      <trkpt lat="44.43713" lon="1.00675">
        <ele>133</ele>
        <time>2012-06-24T06:55:04Z</time>
      </trkpt>
      <trkpt lat="44.43699" lon="1.00686">
        <ele>133</ele>
        <time>2012-06-24T06:55:09Z</time>
      </trkpt>
      <trkpt lat="44.43686" lon="1.00688">
        <ele>133</ele>
        <time>2012-06-24T06:55:14Z</time>
      </trkpt>
      <trkpt lat="44.43672" lon="1.00689">
        <ele>133</ele>
        <time>2012-06-24T06:55:19Z</time>
      </trkpt>
      <trkpt lat="44.43661" lon="1.00692">
        <ele>136</ele>
        <time>2012-06-24T06:55:24Z</time>
      </trkpt>
      <trkpt lat="44.43648" lon="1.00705">
        <ele>138</ele>
        <time>2012-06-24T06:55:29Z</time>
      </trkpt>
      <trkpt lat="44.43639" lon="1.00719">
        <ele>138</ele>
        <time>2012-06-24T06:55:34Z</time>
      </trkpt>
      <trkpt lat="44.43626" lon="1.0073">
        <ele>139</ele>
        <time>2012-06-24T06:55:39Z</time>
      </trkpt>
      <trkpt lat="44.43615" lon="1.00735">
        <ele>143</ele>
        <time>2012-06-24T06:55:45Z</time>
      </trkpt>
      <trkpt lat="44.43606" lon="1.0074">
        <ele>147</ele>
        <time>2012-06-24T06:55:50Z</time>
      </trkpt>
      <trkpt lat="44.43594" lon="1.00747">
        <ele>151</ele>
        <time>2012-06-24T06:55:55Z</time>
      </trkpt>
      <trkpt lat="44.43581" lon="1.00751">
        <ele>155</ele>
        <time>2012-06-24T06:56:00Z</time>
      </trkpt>
      <trkpt lat="44.4357" lon="1.00756">
        <ele>157</ele>
        <time>2012-06-24T06:56:05Z</time>
      </trkpt>
      <trkpt lat="44.43559" lon="1.00765">
        <ele>158</ele>
        <time>2012-06-24T06:56:10Z</time>
      </trkpt>
      <trkpt lat="44.4355" lon="1.00776">
        <ele>161</ele>
        <time>2012-06-24T06:56:15Z</time>
      </trkpt>
      <trkpt lat="44.43541" lon="1.00786">
        <ele>161</ele>
        <time>2012-06-24T06:56:20Z</time>
      </trkpt>
      <trkpt lat="44.43533" lon="1.00796">
        <ele>160</ele>
        <time>2012-06-24T06:56:25Z</time>
      </trkpt>
      <trkpt lat="44.43524" lon="1.00808">
        <ele>157</ele>
        <time>2012-06-24T06:56:30Z</time>
      </trkpt>
      <trkpt lat="44.43518" lon="1.00818">
        <ele>154</ele>
        <time>2012-06-24T06:56:35Z</time>
      </trkpt>
      <trkpt lat="44.43505" lon="1.00828">
        <ele>153</ele>
        <time>2012-06-24T06:56:40Z</time>
      </trkpt>
      <trkpt lat="44.43495" lon="1.00838">
        <ele>155</ele>
        <time>2012-06-24T06:56:45Z</time>
      </trkpt>
      <trkpt lat="44.4349" lon="1.00853">
        <ele>155</ele>
        <time>2012-06-24T06:56:50Z</time>
      </trkpt>
      <trkpt lat="44.43481" lon="1.00864">
        <ele>155</ele>
        <time>2012-06-24T06:56:55Z</time>
      </trkpt>
      <trkpt lat="44.43468" lon="1.00872">
        <ele>155</ele>
        <time>2012-06-24T06:57:01Z</time>
      </trkpt>
      <trkpt lat="44.43464" lon="1.00885">
        <ele>155</ele>
        <time>2012-06-24T06:57:06Z</time>
      </trkpt>
      <trkpt lat="44.43458" lon="1.00897">
        <ele>155</ele>
        <time>2012-06-24T06:57:11Z</time>
      </trkpt>
      <trkpt lat="44.43455" lon="1.00912">
        <ele>154</ele>
        <time>2012-06-24T06:57:16Z</time>
      </trkpt>
      <trkpt lat="44.43452" lon="1.00925">
        <ele>152</ele>
        <time>2012-06-24T06:57:21Z</time>
      </trkpt>
      <trkpt lat="44.4345" lon="1.0094">
        <ele>148</ele>
        <time>2012-06-24T06:57:26Z</time>
      </trkpt>
      <trkpt lat="44.43447" lon="1.00955">
        <ele>148</ele>
        <time>2012-06-24T06:57:31Z</time>
      </trkpt>
      <trkpt lat="44.43445" lon="1.0097">
        <ele>148</ele>
        <time>2012-06-24T06:57:36Z</time>
      </trkpt>
      <trkpt lat="44.43442" lon="1.00982">
        <ele>148</ele>
        <time>2012-06-24T06:57:41Z</time>
      </trkpt>
      <trkpt lat="44.43438" lon="1.00996">
        <ele>148</ele>
        <time>2012-06-24T06:57:46Z</time>
      </trkpt>
      <trkpt lat="44.43436" lon="1.01009">
        <ele>148</ele>
        <time>2012-06-24T06:57:51Z</time>
      </trkpt>
      <trkpt lat="44.43434" lon="1.01023">
        <ele>151</ele>
        <time>2012-06-24T06:57:56Z</time>
      </trkpt>
      <trkpt lat="44.43432" lon="1.0104">
        <ele>151</ele>
        <time>2012-06-24T06:58:02Z</time>
      </trkpt>
      <trkpt lat="44.43427" lon="1.01052">
        <ele>151</ele>
        <time>2012-06-24T06:58:08Z</time>
      </trkpt>
      <trkpt lat="44.43425" lon="1.01066">
        <ele>154</ele>
        <time>2012-06-24T06:58:14Z</time>
      </trkpt>
      <trkpt lat="44.43425" lon="1.01078">
        <ele>154</ele>
        <time>2012-06-24T06:58:19Z</time>
      </trkpt>
      <trkpt lat="44.43422" lon="1.0109">
        <ele>154</ele>
        <time>2012-06-24T06:58:25Z</time>
      </trkpt>
      <trkpt lat="44.4342" lon="1.01103">
        <ele>154</ele>
        <time>2012-06-24T06:58:30Z</time>
      </trkpt>
      <trkpt lat="44.4342" lon="1.01117">
        <ele>154</ele>
        <time>2012-06-24T06:58:35Z</time>
      </trkpt>
      <trkpt lat="44.4342" lon="1.01131">
        <ele>154</ele>
        <time>2012-06-24T06:58:40Z</time>
      </trkpt>
      <trkpt lat="44.43418" lon="1.01142">
        <ele>154</ele>
        <time>2012-06-24T06:58:45Z</time>
      </trkpt>
      <trkpt lat="44.43415" lon="1.01153">
        <ele>154</ele>
        <time>2012-06-24T06:58:50Z</time>
      </trkpt>
      <trkpt lat="44.43413" lon="1.01167">
        <ele>154</ele>
        <time>2012-06-24T06:58:56Z</time>
      </trkpt>
      <trkpt lat="44.43412" lon="1.01177">
        <ele>154</ele>
        <time>2012-06-24T06:59:01Z</time>
      </trkpt>
      <trkpt lat="44.43408" lon="1.01189">
        <ele>154</ele>
        <time>2012-06-24T06:59:06Z</time>
      </trkpt>
      <trkpt lat="44.43407" lon="1.01198">
        <ele>154</ele>
        <time>2012-06-24T06:59:11Z</time>
      </trkpt>
      <trkpt lat="44.43404" lon="1.01207">
        <ele>156</ele>
        <time>2012-06-24T06:59:16Z</time>
      </trkpt>
      <trkpt lat="44.43401" lon="1.01219">
        <ele>158</ele>
        <time>2012-06-24T06:59:21Z</time>
      </trkpt>
      <trkpt lat="44.43399" lon="1.01229">
        <ele>163</ele>
        <time>2012-06-24T06:59:26Z</time>
      </trkpt>
      <trkpt lat="44.43395" lon="1.01237">
        <ele>165</ele>
        <time>2012-06-24T06:59:31Z</time>
      </trkpt>
      <trkpt lat="44.4339" lon="1.01245">
        <ele>165</ele>
        <time>2012-06-24T06:59:36Z</time>
      </trkpt>
      <trkpt lat="44.43385" lon="1.01251">
        <ele>168</ele>
        <time>2012-06-24T06:59:41Z</time>
      </trkpt>
      <trkpt lat="44.43378" lon="1.01259">
        <ele>170</ele>
        <time>2012-06-24T06:59:46Z</time>
      </trkpt>
      <trkpt lat="44.43369" lon="1.01263">
        <ele>174</ele>
        <time>2012-06-24T06:59:51Z</time>
      </trkpt>
      <trkpt lat="44.43359" lon="1.01272">
        <ele>179</ele>
        <time>2012-06-24T06:59:56Z</time>
      </trkpt>
      <trkpt lat="44.43349" lon="1.0128">
        <ele>183</ele>
        <time>2012-06-24T07:00:01Z</time>
      </trkpt>
      <trkpt lat="44.43339" lon="1.0129">
        <ele>187</ele>
        <time>2012-06-24T07:00:06Z</time>
      </trkpt>
      <trkpt lat="44.43332" lon="1.013">
        <ele>189</ele>
        <time>2012-06-24T07:00:11Z</time>
      </trkpt>
      <trkpt lat="44.43325" lon="1.01312">
        <ele>191</ele>
        <time>2012-06-24T07:00:16Z</time>
      </trkpt>
      <trkpt lat="44.43316" lon="1.01326">
        <ele>192</ele>
        <time>2012-06-24T07:00:22Z</time>
      </trkpt>
      <trkpt lat="44.43309" lon="1.01336">
        <ele>193</ele>
        <time>2012-06-24T07:00:27Z</time>
      </trkpt>
      <trkpt lat="44.43301" lon="1.01346">
        <ele>194</ele>
        <time>2012-06-24T07:00:32Z</time>
      </trkpt>
      <trkpt lat="44.43294" lon="1.01356">
        <ele>197</ele>
        <time>2012-06-24T07:00:37Z</time>
      </trkpt>
      <trkpt lat="44.43286" lon="1.01365">
        <ele>200</ele>
        <time>2012-06-24T07:00:42Z</time>
      </trkpt>
      <trkpt lat="44.43277" lon="1.01379">
        <ele>205</ele>
        <time>2012-06-24T07:00:48Z</time>
      </trkpt>
      <trkpt lat="44.43269" lon="1.0139">
        <ele>210</ele>
        <time>2012-06-24T07:00:53Z</time>
      </trkpt>
      <trkpt lat="44.43261" lon="1.01403">
        <ele>213</ele>
        <time>2012-06-24T07:00:58Z</time>
      </trkpt>
      <trkpt lat="44.43251" lon="1.01419">
        <ele>213</ele>
        <time>2012-06-24T07:01:03Z</time>
      </trkpt>
      <trkpt lat="44.4324" lon="1.01435">
        <ele>213</ele>
        <time>2012-06-24T07:01:08Z</time>
      </trkpt>
      <trkpt lat="44.43229" lon="1.01453">
        <ele>213</ele>
        <time>2012-06-24T07:01:13Z</time>
      </trkpt>
      <trkpt lat="44.43215" lon="1.01468">
        <ele>213</ele>
        <time>2012-06-24T07:01:18Z</time>
      </trkpt>
      <trkpt lat="44.432" lon="1.01479">
        <ele>213</ele>
        <time>2012-06-24T07:01:23Z</time>
      </trkpt>
      <trkpt lat="44.43185" lon="1.0149">
        <ele>213</ele>
        <time>2012-06-24T07:01:28Z</time>
      </trkpt>
      <trkpt lat="44.4317" lon="1.01502">
        <ele>213</ele>
        <time>2012-06-24T07:01:33Z</time>
      </trkpt>
      <trkpt lat="44.43155" lon="1.01514">
        <ele>213</ele>
        <time>2012-06-24T07:01:38Z</time>
      </trkpt>
      <trkpt lat="44.43142" lon="1.01529">
        <ele>213</ele>
        <time>2012-06-24T07:01:43Z</time>
      </trkpt>
      <trkpt lat="44.4313" lon="1.01543">
        <ele>213</ele>
        <time>2012-06-24T07:01:48Z</time>
      </trkpt>
      <trkpt lat="44.43119" lon="1.01558">
        <ele>213</ele>
        <time>2012-06-24T07:01:53Z</time>
      </trkpt>
      <trkpt lat="44.43109" lon="1.01573">
        <ele>213</ele>
        <time>2012-06-24T07:01:58Z</time>
      </trkpt>
      <trkpt lat="44.43098" lon="1.01589">
        <ele>213</ele>
        <time>2012-06-24T07:02:03Z</time>
      </trkpt>
      <trkpt lat="44.43083" lon="1.01603">
        <ele>213</ele>
        <time>2012-06-24T07:02:08Z</time>
      </trkpt>
      <trkpt lat="44.43067" lon="1.01621">
        <ele>213</ele>
        <time>2012-06-24T07:02:13Z</time>
      </trkpt>
      <trkpt lat="44.43047" lon="1.0163">
        <ele>213</ele>
        <time>2012-06-24T07:02:18Z</time>
      </trkpt>
      <trkpt lat="44.43026" lon="1.0163">
        <ele>213</ele>
        <time>2012-06-24T07:02:23Z</time>
      </trkpt>
      <trkpt lat="44.43005" lon="1.0163">
        <ele>213</ele>
        <time>2012-06-24T07:02:28Z</time>
      </trkpt>
      <trkpt lat="44.4299" lon="1.01619">
        <ele>213</ele>
        <time>2012-06-24T07:02:33Z</time>
      </trkpt>
      <trkpt lat="44.42985" lon="1.01588">
        <ele>213</ele>
        <time>2012-06-24T07:02:38Z</time>
      </trkpt>
      <trkpt lat="44.42979" lon="1.01559">
        <ele>213</ele>
        <time>2012-06-24T07:02:43Z</time>
      </trkpt>
      <trkpt lat="44.42972" lon="1.01525">
        <ele>213</ele>
        <time>2012-06-24T07:02:49Z</time>
      </trkpt>
      <trkpt lat="44.42959" lon="1.01506">
        <ele>215</ele>
        <time>2012-06-24T07:02:54Z</time>
      </trkpt>
      <trkpt lat="44.42947" lon="1.0149">
        <ele>215</ele>
        <time>2012-06-24T07:02:59Z</time>
      </trkpt>
      <trkpt lat="44.42933" lon="1.01491">
        <ele>216</ele>
        <time>2012-06-24T07:03:04Z</time>
      </trkpt>
      <trkpt lat="44.42928" lon="1.01511">
        <ele>216</ele>
        <time>2012-06-24T07:03:09Z</time>
      </trkpt>
      <trkpt lat="44.42927" lon="1.01515">
        <ele>216</ele>
        <time>2012-06-24T07:03:14Z</time>
      </trkpt>
      <trkpt lat="44.42926" lon="1.01514">
        <ele>219</ele>
        <time>2012-06-24T07:03:25Z</time>
      </trkpt>
      <trkpt lat="44.42926" lon="1.01512">
        <ele>224</ele>
        <time>2012-06-24T07:03:41Z</time>
      </trkpt>
      <trkpt lat="44.42927" lon="1.01513">
        <ele>234</ele>
        <time>2012-06-24T07:04:41Z</time>
      </trkpt>
      <trkpt lat="44.42928" lon="1.01514">
        <ele>235</ele>
        <time>2012-06-24T07:05:20Z</time>
      </trkpt>
      <trkpt lat="44.42929" lon="1.01514">
        <ele>237</ele>
        <time>2012-06-24T07:06:08Z</time>
      </trkpt>
      <trkpt lat="44.42928" lon="1.01515">
        <ele>237</ele>
        <time>2012-06-24T07:06:36Z</time>
      </trkpt>
      <trkpt lat="44.42929" lon="1.01517">
        <ele>237</ele>
        <time>2012-06-24T07:06:56Z</time>
      </trkpt>
      <trkpt lat="44.42929" lon="1.01516">
        <ele>237</ele>
        <time>2012-06-24T07:07:13Z</time>
      </trkpt>
      <trkpt lat="44.42929" lon="1.01514">
        <ele>237</ele>
        <time>2012-06-24T07:07:33Z</time>
      </trkpt>
      <trkpt lat="44.42928" lon="1.01513">
        <ele>237</ele>
        <time>2012-06-24T07:08:48Z</time>
      </trkpt>
      <trkpt lat="44.42928" lon="1.01511">
        <ele>239</ele>
        <time>2012-06-24T07:09:36Z</time>
      </trkpt>
      <trkpt lat="44.42929" lon="1.0151">
        <ele>241</ele>
        <time>2012-06-24T07:10:05Z</time>
      </trkpt>
      <trkpt lat="44.42929" lon="1.01511">
        <ele>242</ele>
        <time>2012-06-24T07:10:29Z</time>
      </trkpt>
      <trkpt lat="44.4293" lon="1.01514">
        <ele>242</ele>
        <time>2012-06-24T07:10:39Z</time>
      </trkpt>
      <trkpt lat="44.42929" lon="1.01514">
        <ele>241</ele>
        <time>2012-06-24T07:10:49Z</time>
      </trkpt>
      <trkpt lat="44.4293" lon="1.01515">
        <ele>240</ele>
        <time>2012-06-24T07:11:05Z</time>
      </trkpt>
      <trkpt lat="44.42928" lon="1.01513">
        <ele>240</ele>
        <time>2012-06-24T07:11:12Z</time>
      </trkpt>
      <trkpt lat="44.42926" lon="1.01517">
        <ele>239</ele>
        <time>2012-06-24T07:11:19Z</time>
      </trkpt>
      <trkpt lat="44.42923" lon="1.01518">
        <ele>237</ele>
        <time>2012-06-24T07:11:29Z</time>
      </trkpt>
      <trkpt lat="44.42921" lon="1.01516">
        <ele>237</ele>
        <time>2012-06-24T07:11:37Z</time>
      </trkpt>
      <trkpt lat="44.4292" lon="1.01516">
        <ele>237</ele>
        <time>2012-06-24T07:11:46Z</time>
      </trkpt>
      <trkpt lat="44.42918" lon="1.01516">
        <ele>236</ele>
        <time>2012-06-24T07:11:58Z</time>
      </trkpt>
      <trkpt lat="44.42917" lon="1.01515">
        <ele>236</ele>
        <time>2012-06-24T07:12:04Z</time>
      </trkpt>
      <trkpt lat="44.42916" lon="1.01516">
        <ele>236</ele>
        <time>2012-06-24T07:12:21Z</time>
      </trkpt>
      <trkpt lat="44.42917" lon="1.01518">
        <ele>235</ele>
        <time>2012-06-24T07:12:26Z</time>
      </trkpt>
      <trkpt lat="44.42918" lon="1.0152">
        <ele>232</ele>
        <time>2012-06-24T07:12:31Z</time>
      </trkpt>
      <trkpt lat="44.4292" lon="1.01522">
        <ele>228</ele>
        <time>2012-06-24T07:12:39Z</time>
      </trkpt>
      <trkpt lat="44.42919" lon="1.01524">
        <ele>228</ele>
        <time>2012-06-24T07:12:55Z</time>
      </trkpt>
      <trkpt lat="44.42913" lon="1.01539">
        <ele>228</ele>
        <time>2012-06-24T07:13:00Z</time>
      </trkpt>
      <trkpt lat="44.42909" lon="1.01559">
        <ele>225</ele>
        <time>2012-06-24T07:13:05Z</time>
      </trkpt>
      <trkpt lat="44.42907" lon="1.01584">
        <ele>223</ele>
        <time>2012-06-24T07:13:10Z</time>
      </trkpt>
      <trkpt lat="44.42916" lon="1.01618">
        <ele>221</ele>
        <time>2012-06-24T07:13:15Z</time>
      </trkpt>
      <trkpt lat="44.42942" lon="1.01645">
        <ele>220</ele>
        <time>2012-06-24T07:13:20Z</time>
      </trkpt>
      <trkpt lat="44.42971" lon="1.01692">
        <ele>216</ele>
        <time>2012-06-24T07:13:25Z</time>
      </trkpt>
      <trkpt lat="44.42998" lon="1.01743">
        <ele>214</ele>
        <time>2012-06-24T07:13:30Z</time>
      </trkpt>
      <trkpt lat="44.4301" lon="1.01782">
        <ele>213</ele>
        <time>2012-06-24T07:13:35Z</time>
      </trkpt>
      <trkpt lat="44.42998" lon="1.01829">
        <ele>210</ele>
        <time>2012-06-24T07:13:40Z</time>
      </trkpt>
      <trkpt lat="44.42984" lon="1.01878">
        <ele>208</ele>
        <time>2012-06-24T07:13:45Z</time>
      </trkpt>
      <trkpt lat="44.42968" lon="1.01928">
        <ele>207</ele>
        <time>2012-06-24T07:13:50Z</time>
      </trkpt>
      <trkpt lat="44.42953" lon="1.01976">
        <ele>207</ele>
        <time>2012-06-24T07:13:55Z</time>
      </trkpt>
      <trkpt lat="44.4294" lon="1.02016">
        <ele>207</ele>
        <time>2012-06-24T07:14:00Z</time>
      </trkpt>
      <trkpt lat="44.4293" lon="1.02052">
        <ele>207</ele>
        <time>2012-06-24T07:14:05Z</time>
      </trkpt>
      <trkpt lat="44.4292" lon="1.02084">
        <ele>207</ele>
        <time>2012-06-24T07:14:10Z</time>
      </trkpt>
      <trkpt lat="44.42917" lon="1.02111">
        <ele>209</ele>
        <time>2012-06-24T07:14:15Z</time>
      </trkpt>
      <trkpt lat="44.4292" lon="1.02143">
        <ele>211</ele>
        <time>2012-06-24T07:14:20Z</time>
      </trkpt>
      <trkpt lat="44.42924" lon="1.02172">
        <ele>212</ele>
        <time>2012-06-24T07:14:25Z</time>
      </trkpt>
      <trkpt lat="44.42925" lon="1.02202">
        <ele>213</ele>
        <time>2012-06-24T07:14:30Z</time>
      </trkpt>
      <trkpt lat="44.42922" lon="1.02233">
        <ele>213</ele>
        <time>2012-06-24T07:14:35Z</time>
      </trkpt>
      <trkpt lat="44.42913" lon="1.02263">
        <ele>214</ele>
        <time>2012-06-24T07:14:40Z</time>
      </trkpt>
      <trkpt lat="44.42901" lon="1.02292">
        <ele>216</ele>
        <time>2012-06-24T07:14:45Z</time>
      </trkpt>
      <trkpt lat="44.42887" lon="1.02319">
        <ele>218</ele>
        <time>2012-06-24T07:14:50Z</time>
      </trkpt>
      <trkpt lat="44.42875" lon="1.02345">
        <ele>220</ele>
        <time>2012-06-24T07:14:55Z</time>
      </trkpt>
      <trkpt lat="44.42862" lon="1.02371">
        <ele>221</ele>
        <time>2012-06-24T07:15:00Z</time>
      </trkpt>
      <trkpt lat="44.42849" lon="1.02397">
        <ele>222</ele>
        <time>2012-06-24T07:15:05Z</time>
      </trkpt>
      <trkpt lat="44.42839" lon="1.02426">
        <ele>223</ele>
        <time>2012-06-24T07:15:10Z</time>
      </trkpt>
      <trkpt lat="44.42831" lon="1.02455">
        <ele>223</ele>
        <time>2012-06-24T07:15:15Z</time>
      </trkpt>
      <trkpt lat="44.42825" lon="1.02486">
        <ele>223</ele>
        <time>2012-06-24T07:15:20Z</time>
      </trkpt>
      <trkpt lat="44.4282" lon="1.02518">
        <ele>223</ele>
        <time>2012-06-24T07:15:25Z</time>
      </trkpt>
      <trkpt lat="44.42817" lon="1.02552">
        <ele>223</ele>
        <time>2012-06-24T07:15:30Z</time>
      </trkpt>
      <trkpt lat="44.42817" lon="1.02587">
        <ele>223</ele>
        <time>2012-06-24T07:15:35Z</time>
      </trkpt>
      <trkpt lat="44.42818" lon="1.0262">
        <ele>224</ele>
        <time>2012-06-24T07:15:40Z</time>
      </trkpt>
      <trkpt lat="44.4282" lon="1.02654">
        <ele>225</ele>
        <time>2012-06-24T07:15:45Z</time>
      </trkpt>
      <trkpt lat="44.42822" lon="1.02687">
        <ele>225</ele>
        <time>2012-06-24T07:15:50Z</time>
      </trkpt>
      <trkpt lat="44.42824" lon="1.02722">
        <ele>227</ele>
        <time>2012-06-24T07:15:55Z</time>
      </trkpt>
      <trkpt lat="44.42823" lon="1.02755">
        <ele>227</ele>
        <time>2012-06-24T07:16:00Z</time>
      </trkpt>
      <trkpt lat="44.42818" lon="1.0279">
        <ele>227</ele>
        <time>2012-06-24T07:16:05Z</time>
      </trkpt>
      <trkpt lat="44.42809" lon="1.02826">
        <ele>227</ele>
        <time>2012-06-24T07:16:10Z</time>
      </trkpt>
      <trkpt lat="44.42794" lon="1.0286">
        <ele>227</ele>
        <time>2012-06-24T07:16:15Z</time>
      </trkpt>
      <trkpt lat="44.42777" lon="1.02895">
        <ele>227</ele>
        <time>2012-06-24T07:16:20Z</time>
      </trkpt>
      <trkpt lat="44.4276" lon="1.02928">
        <ele>227</ele>
        <time>2012-06-24T07:16:25Z</time>
      </trkpt>
      <trkpt lat="44.42743" lon="1.02963">
        <ele>227</ele>
        <time>2012-06-24T07:16:30Z</time>
      </trkpt>
      <trkpt lat="44.42725" lon="1.02995">
        <ele>227</ele>
        <time>2012-06-24T07:16:35Z</time>
      </trkpt>
      <trkpt lat="44.42706" lon="1.03029">
        <ele>227</ele>
        <time>2012-06-24T07:16:40Z</time>
      </trkpt>
      <trkpt lat="44.42688" lon="1.03063">
        <ele>227</ele>
        <time>2012-06-24T07:16:46Z</time>
      </trkpt>
      <trkpt lat="44.42665" lon="1.03106">
        <ele>227</ele>
        <time>2012-06-24T07:16:51Z</time>
      </trkpt>
      <trkpt lat="44.42647" lon="1.03141">
        <ele>227</ele>
        <time>2012-06-24T07:16:56Z</time>
      </trkpt>
      <trkpt lat="44.42631" lon="1.03173">
        <ele>228</ele>
        <time>2012-06-24T07:17:01Z</time>
      </trkpt>
      <trkpt lat="44.42614" lon="1.03205">
        <ele>229</ele>
        <time>2012-06-24T07:17:06Z</time>
      </trkpt>
      <trkpt lat="44.42597" lon="1.03239">
        <ele>230</ele>
        <time>2012-06-24T07:17:11Z</time>
      </trkpt>
      <trkpt lat="44.42579" lon="1.03272">
        <ele>230</ele>
        <time>2012-06-24T07:17:16Z</time>
      </trkpt>
      <trkpt lat="44.42561" lon="1.03306">
        <ele>230</ele>
        <time>2012-06-24T07:17:21Z</time>
      </trkpt>
      <trkpt lat="44.42542" lon="1.03342">
        <ele>230</ele>
        <time>2012-06-24T07:17:26Z</time>
      </trkpt>
      <trkpt lat="44.42524" lon="1.03378">
        <ele>230</ele>
        <time>2012-06-24T07:17:31Z</time>
      </trkpt>
      <trkpt lat="44.42505" lon="1.03415">
        <ele>230</ele>
        <time>2012-06-24T07:17:36Z</time>
      </trkpt>
      <trkpt lat="44.42486" lon="1.0345">
        <ele>230</ele>
        <time>2012-06-24T07:17:41Z</time>
      </trkpt>
      <trkpt lat="44.42467" lon="1.03487">
        <ele>230</ele>
        <time>2012-06-24T07:17:46Z</time>
      </trkpt>
      <trkpt lat="44.42448" lon="1.03524">
        <ele>230</ele>
        <time>2012-06-24T07:17:51Z</time>
      </trkpt>
      <trkpt lat="44.42426" lon="1.03559">
        <ele>230</ele>
        <time>2012-06-24T07:17:56Z</time>
      </trkpt>
      <trkpt lat="44.42396" lon="1.03583">
        <ele>230</ele>
        <time>2012-06-24T07:18:01Z</time>
      </trkpt>
      <trkpt lat="44.42362" lon="1.03585">
        <ele>230</ele>
        <time>2012-06-24T07:18:06Z</time>
      </trkpt>
      <trkpt lat="44.42326" lon="1.03583">
        <ele>230</ele>
        <time>2012-06-24T07:18:11Z</time>
      </trkpt>
      <trkpt lat="44.42292" lon="1.03582">
        <ele>230</ele>
        <time>2012-06-24T07:18:16Z</time>
      </trkpt>
      <trkpt lat="44.42259" lon="1.03581">
        <ele>230</ele>
        <time>2012-06-24T07:18:21Z</time>
      </trkpt>
      <trkpt lat="44.42228" lon="1.03585">
        <ele>230</ele>
        <time>2012-06-24T07:18:26Z</time>
      </trkpt>
      <trkpt lat="44.42198" lon="1.03598">
        <ele>230</ele>
        <time>2012-06-24T07:18:31Z</time>
      </trkpt>
      <trkpt lat="44.42172" lon="1.03622">
        <ele>230</ele>
        <time>2012-06-24T07:18:36Z</time>
      </trkpt>
      <trkpt lat="44.42151" lon="1.03649">
        <ele>230</ele>
        <time>2012-06-24T07:18:41Z</time>
      </trkpt>
      <trkpt lat="44.42134" lon="1.03673">
        <ele>230</ele>
        <time>2012-06-24T07:18:46Z</time>
      </trkpt>
      <trkpt lat="44.42118" lon="1.03687">
        <ele>230</ele>
        <time>2012-06-24T07:18:51Z</time>
      </trkpt>
      <trkpt lat="44.4211" lon="1.03671">
        <ele>230</ele>
        <time>2012-06-24T07:18:56Z</time>
      </trkpt>
      <trkpt lat="44.42102" lon="1.03648">
        <ele>230</ele>
        <time>2012-06-24T07:19:01Z</time>
      </trkpt>
      <trkpt lat="44.42094" lon="1.03619">
        <ele>230</ele>
        <time>2012-06-24T07:19:06Z</time>
      </trkpt>
      <trkpt lat="44.42085" lon="1.03592">
        <ele>230</ele>
        <time>2012-06-24T07:19:11Z</time>
      </trkpt>
      <trkpt lat="44.42073" lon="1.03561">
        <ele>230</ele>
        <time>2012-06-24T07:19:16Z</time>
      </trkpt>
      <trkpt lat="44.42064" lon="1.03529">
        <ele>230</ele>
        <time>2012-06-24T07:19:21Z</time>
      </trkpt>
      <trkpt lat="44.42049" lon="1.03497">
        <ele>230</ele>
        <time>2012-06-24T07:19:26Z</time>
      </trkpt>
      <trkpt lat="44.42033" lon="1.03468">
        <ele>230</ele>
        <time>2012-06-24T07:19:31Z</time>
      </trkpt>
      <trkpt lat="44.42017" lon="1.03438">
        <ele>229</ele>
        <time>2012-06-24T07:19:36Z</time>
      </trkpt>
      <trkpt lat="44.42001" lon="1.03414">
        <ele>229</ele>
        <time>2012-06-24T07:19:41Z</time>
      </trkpt>
      <trkpt lat="44.41981" lon="1.03393">
        <ele>229</ele>
        <time>2012-06-24T07:19:46Z</time>
      </trkpt>
      <trkpt lat="44.41961" lon="1.03369">
        <ele>229</ele>
        <time>2012-06-24T07:19:51Z</time>
      </trkpt>
      <trkpt lat="44.41938" lon="1.03347">
        <ele>229</ele>
        <time>2012-06-24T07:19:56Z</time>
      </trkpt>
      <trkpt lat="44.41914" lon="1.03317">
        <ele>227</ele>
        <time>2012-06-24T07:20:01Z</time>
      </trkpt>
      <trkpt lat="44.41894" lon="1.03289">
        <ele>226</ele>
        <time>2012-06-24T07:20:06Z</time>
      </trkpt>
      <trkpt lat="44.4188" lon="1.03248">
        <ele>225</ele>
        <time>2012-06-24T07:20:11Z</time>
      </trkpt>
      <trkpt lat="44.41868" lon="1.03199">
        <ele>223</ele>
        <time>2012-06-24T07:20:16Z</time>
      </trkpt>
      <trkpt lat="44.41866" lon="1.03161">
        <ele>223</ele>
        <time>2012-06-24T07:20:21Z</time>
      </trkpt>
      <trkpt lat="44.41857" lon="1.03131">
        <ele>220</ele>
        <time>2012-06-24T07:20:26Z</time>
      </trkpt>
      <trkpt lat="44.41849" lon="1.03112">
        <ele>218</ele>
        <time>2012-06-24T07:20:31Z</time>
      </trkpt>
      <trkpt lat="44.4184" lon="1.03092">
        <ele>217</ele>
        <time>2012-06-24T07:20:36Z</time>
      </trkpt>
      <trkpt lat="44.4183" lon="1.03069">
        <ele>217</ele>
        <time>2012-06-24T07:20:41Z</time>
      </trkpt>
      <trkpt lat="44.41821" lon="1.03045">
        <ele>217</ele>
        <time>2012-06-24T07:20:46Z</time>
      </trkpt>
      <trkpt lat="44.41811" lon="1.0303">
        <ele>217</ele>
        <time>2012-06-24T07:20:51Z</time>
      </trkpt>
      <trkpt lat="44.41807" lon="1.03024">
        <ele>217</ele>
        <time>2012-06-24T07:20:57Z</time>
      </trkpt>
      <trkpt lat="44.41804" lon="1.03021">
        <ele>220</ele>
        <time>2012-06-24T07:21:03Z</time>
      </trkpt>
      <trkpt lat="44.41801" lon="1.03017">
        <ele>223</ele>
        <time>2012-06-24T07:21:09Z</time>
      </trkpt>
      <trkpt lat="44.41803" lon="1.03018">
        <ele>225</ele>
        <time>2012-06-24T07:21:16Z</time>
      </trkpt>
      <trkpt lat="44.41804" lon="1.03019">
        <ele>225</ele>
        <time>2012-06-24T07:21:23Z</time>
      </trkpt>
      <trkpt lat="44.41804" lon="1.03021">
        <ele>224</ele>
        <time>2012-06-24T07:21:37Z</time>
      </trkpt>
      <trkpt lat="44.41806" lon="1.03024">
        <ele>224</ele>
        <time>2012-06-24T07:21:42Z</time>
      </trkpt>
      <trkpt lat="44.41807" lon="1.03028">
        <ele>225</ele>
        <time>2012-06-24T07:21:47Z</time>
      </trkpt>
      <trkpt lat="44.41807" lon="1.03028">
        <ele>230</ele>
        <time>2012-06-24T07:21:59Z</time>
      </trkpt>
      <trkpt lat="44.41808" lon="1.03025">
        <ele>230</ele>
        <time>2012-06-24T07:22:04Z</time>
      </trkpt>
      <trkpt lat="44.41803" lon="1.0301">
        <ele>230</ele>
        <time>2012-06-24T07:22:09Z</time>
      </trkpt>
      <trkpt lat="44.41791" lon="1.02988">
        <ele>227</ele>
        <time>2012-06-24T07:22:14Z</time>
      </trkpt>
      <trkpt lat="44.41773" lon="1.02957">
        <ele>223</ele>
        <time>2012-06-24T07:22:19Z</time>
      </trkpt>
      <trkpt lat="44.41757" lon="1.02929">
        <ele>221</ele>
        <time>2012-06-24T07:22:24Z</time>
      </trkpt>
      <trkpt lat="44.41741" lon="1.02906">
        <ele>221</ele>
        <time>2012-06-24T07:22:29Z</time>
      </trkpt>
      <trkpt lat="44.41727" lon="1.02886">
        <ele>221</ele>
        <time>2012-06-24T07:22:34Z</time>
      </trkpt>
      <trkpt lat="44.41711" lon="1.02867">
        <ele>221</ele>
        <time>2012-06-24T07:22:39Z</time>
      </trkpt>
      <trkpt lat="44.41701" lon="1.0285">
        <ele>221</ele>
        <time>2012-06-24T07:22:44Z</time>
      </trkpt>
      <trkpt lat="44.41685" lon="1.0283">
        <ele>221</ele>
        <time>2012-06-24T07:22:49Z</time>
      </trkpt>
      <trkpt lat="44.4167" lon="1.0281">
        <ele>221</ele>
        <time>2012-06-24T07:22:54Z</time>
      </trkpt>
      <trkpt lat="44.41656" lon="1.02788">
        <ele>221</ele>
        <time>2012-06-24T07:22:59Z</time>
      </trkpt>
      <trkpt lat="44.41642" lon="1.02765">
        <ele>220</ele>
        <time>2012-06-24T07:23:04Z</time>
      </trkpt>
      <trkpt lat="44.41627" lon="1.02734">
        <ele>219</ele>
        <time>2012-06-24T07:23:09Z</time>
      </trkpt>
      <trkpt lat="44.4161" lon="1.02704">
        <ele>219</ele>
        <time>2012-06-24T07:23:14Z</time>
      </trkpt>
      <trkpt lat="44.41589" lon="1.02677">
        <ele>218</ele>
        <time>2012-06-24T07:23:19Z</time>
      </trkpt>
      <trkpt lat="44.41569" lon="1.0266">
        <ele>218</ele>
        <time>2012-06-24T07:23:24Z</time>
      </trkpt>
      <trkpt lat="44.41554" lon="1.02647">
        <ele>217</ele>
        <time>2012-06-24T07:23:29Z</time>
      </trkpt>
      <trkpt lat="44.41537" lon="1.02634">
        <ele>217</ele>
        <time>2012-06-24T07:23:34Z</time>
      </trkpt>
      <trkpt lat="44.41526" lon="1.0261">
        <ele>216</ele>
        <time>2012-06-24T07:23:39Z</time>
      </trkpt>
      <trkpt lat="44.41515" lon="1.02584">
        <ele>215</ele>
        <time>2012-06-24T07:23:44Z</time>
      </trkpt>
      <trkpt lat="44.41499" lon="1.02557">
        <ele>212</ele>
        <time>2012-06-24T07:23:49Z</time>
      </trkpt>
      <trkpt lat="44.41483" lon="1.0253">
        <ele>210</ele>
        <time>2012-06-24T07:23:54Z</time>
      </trkpt>
      <trkpt lat="44.41465" lon="1.02505">
        <ele>209</ele>
        <time>2012-06-24T07:23:59Z</time>
      </trkpt>
      <trkpt lat="44.41452" lon="1.02485">
        <ele>208</ele>
        <time>2012-06-24T07:24:04Z</time>
      </trkpt>
      <trkpt lat="44.41435" lon="1.02453">
        <ele>208</ele>
        <time>2012-06-24T07:24:09Z</time>
      </trkpt>
      <trkpt lat="44.41418" lon="1.02422">
        <ele>204</ele>
        <time>2012-06-24T07:24:14Z</time>
      </trkpt>
      <trkpt lat="44.41407" lon="1.02398">
        <ele>201</ele>
        <time>2012-06-24T07:24:19Z</time>
      </trkpt>
      <trkpt lat="44.41392" lon="1.02382">
        <ele>200</ele>
        <time>2012-06-24T07:24:24Z</time>
      </trkpt>
      <trkpt lat="44.41369" lon="1.02372">
        <ele>198</ele>
        <time>2012-06-24T07:24:29Z</time>
      </trkpt>
      <trkpt lat="44.41346" lon="1.0236">
        <ele>196</ele>
        <time>2012-06-24T07:24:34Z</time>
      </trkpt>
      <trkpt lat="44.41325" lon="1.02348">
        <ele>196</ele>
        <time>2012-06-24T07:24:39Z</time>
      </trkpt>
      <trkpt lat="44.41307" lon="1.02339">
        <ele>192</ele>
        <time>2012-06-24T07:24:44Z</time>
      </trkpt>
      <trkpt lat="44.41291" lon="1.02342">
        <ele>187</ele>
        <time>2012-06-24T07:24:49Z</time>
      </trkpt>
      <trkpt lat="44.41277" lon="1.02343">
        <ele>182</ele>
        <time>2012-06-24T07:24:54Z</time>
      </trkpt>
      <trkpt lat="44.41261" lon="1.02347">
        <ele>177</ele>
        <time>2012-06-24T07:24:59Z</time>
      </trkpt>
      <trkpt lat="44.41246" lon="1.02352">
        <ele>172</ele>
        <time>2012-06-24T07:25:04Z</time>
      </trkpt>
      <trkpt lat="44.41238" lon="1.02345">
        <ele>167</ele>
        <time>2012-06-24T07:25:09Z</time>
      </trkpt>
      <trkpt lat="44.41241" lon="1.02324">
        <ele>167</ele>
        <time>2012-06-24T07:25:14Z</time>
      </trkpt>
      <trkpt lat="44.41249" lon="1.02291">
        <ele>167</ele>
        <time>2012-06-24T07:25:19Z</time>
      </trkpt>
      <trkpt lat="44.41263" lon="1.02261">
        <ele>168</ele>
        <time>2012-06-24T07:25:24Z</time>
      </trkpt>
      <trkpt lat="44.41283" lon="1.02225">
        <ele>168</ele>
        <time>2012-06-24T07:25:29Z</time>
      </trkpt>
      <trkpt lat="44.41305" lon="1.02192">
        <ele>168</ele>
        <time>2012-06-24T07:25:34Z</time>
      </trkpt>
      <trkpt lat="44.41314" lon="1.02161">
        <ele>168</ele>
        <time>2012-06-24T07:25:39Z</time>
      </trkpt>
      <trkpt lat="44.41308" lon="1.02121">
        <ele>168</ele>
        <time>2012-06-24T07:25:44Z</time>
      </trkpt>
      <trkpt lat="44.41307" lon="1.02088">
        <ele>168</ele>
        <time>2012-06-24T07:25:49Z</time>
      </trkpt>
      <trkpt lat="44.41319" lon="1.02073">
        <ele>168</ele>
        <time>2012-06-24T07:25:54Z</time>
      </trkpt>
      <trkpt lat="44.41335" lon="1.02053">
        <ele>168</ele>
        <time>2012-06-24T07:25:59Z</time>
      </trkpt>
      <trkpt lat="44.4135" lon="1.02026">
        <ele>168</ele>
        <time>2012-06-24T07:26:04Z</time>
      </trkpt>
      <trkpt lat="44.41357" lon="1.02">
        <ele>168</ele>
        <time>2012-06-24T07:26:09Z</time>
      </trkpt>
      <trkpt lat="44.41363" lon="1.01977">
        <ele>170</ele>
        <time>2012-06-24T07:26:14Z</time>
      </trkpt>
      <trkpt lat="44.41368" lon="1.01961">
        <ele>171</ele>
        <time>2012-06-24T07:26:19Z</time>
      </trkpt>
      <trkpt lat="44.41372" lon="1.01948">
        <ele>172</ele>
        <time>2012-06-24T07:26:24Z</time>
      </trkpt>
      <trkpt lat="44.41373" lon="1.01929">
        <ele>175</ele>
        <time>2012-06-24T07:26:29Z</time>
      </trkpt>
      <trkpt lat="44.4137" lon="1.01909">
        <ele>176</ele>
        <time>2012-06-24T07:26:34Z</time>
      </trkpt>
      <trkpt lat="44.41361" lon="1.01887">
        <ele>178</ele>
        <time>2012-06-24T07:26:39Z</time>
      </trkpt>
      <trkpt lat="44.4135" lon="1.01862">
        <ele>178</ele>
        <time>2012-06-24T07:26:44Z</time>
      </trkpt>
      <trkpt lat="44.41336" lon="1.01837">
        <ele>178</ele>
        <time>2012-06-24T07:26:49Z</time>
      </trkpt>
      <trkpt lat="44.41335" lon="1.01806">
        <ele>175</ele>
        <time>2012-06-24T07:26:54Z</time>
      </trkpt>
      <trkpt lat="44.41341" lon="1.0178">
        <ele>174</ele>
        <time>2012-06-24T07:26:59Z</time>
      </trkpt>
      <trkpt lat="44.41346" lon="1.01757">
        <ele>173</ele>
        <time>2012-06-24T07:27:04Z</time>
      </trkpt>
      <trkpt lat="44.41339" lon="1.01735">
        <ele>171</ele>
        <time>2012-06-24T07:27:09Z</time>
      </trkpt>
      <trkpt lat="44.4132" lon="1.01722">
        <ele>166</ele>
        <time>2012-06-24T07:27:14Z</time>
      </trkpt>
      <trkpt lat="44.41298" lon="1.01697">
        <ele>161</ele>
        <time>2012-06-24T07:27:19Z</time>
      </trkpt>
      <trkpt lat="44.41285" lon="1.01662">
        <ele>159</ele>
        <time>2012-06-24T07:27:24Z</time>
      </trkpt>
      <trkpt lat="44.41278" lon="1.01638">
        <ele>159</ele>
        <time>2012-06-24T07:27:29Z</time>
      </trkpt>
      <trkpt lat="44.41277" lon="1.01633">
        <ele>159</ele>
        <time>2012-06-24T07:27:35Z</time>
      </trkpt>
      <trkpt lat="44.41275" lon="1.0163">
        <ele>153</ele>
        <time>2012-06-24T07:27:42Z</time>
      </trkpt>
      <trkpt lat="44.41275" lon="1.01625">
        <ele>151</ele>
        <time>2012-06-24T07:27:48Z</time>
      </trkpt>
      <trkpt lat="44.4127" lon="1.01622">
        <ele>151</ele>
        <time>2012-06-24T07:28:00Z</time>
      </trkpt>
      <trkpt lat="44.41267" lon="1.01619">
        <ele>153</ele>
        <time>2012-06-24T07:28:08Z</time>
      </trkpt>
      <trkpt lat="44.41263" lon="1.01619">
        <ele>156</ele>
        <time>2012-06-24T07:28:14Z</time>
      </trkpt>
      <trkpt lat="44.4126" lon="1.01618">
        <ele>156</ele>
        <time>2012-06-24T07:28:20Z</time>
      </trkpt>
      <trkpt lat="44.41259" lon="1.01616">
        <ele>156</ele>
        <time>2012-06-24T07:28:28Z</time>
      </trkpt>
      <trkpt lat="44.41254" lon="1.01614">
        <ele>156</ele>
        <time>2012-06-24T07:28:33Z</time>
      </trkpt>
      <trkpt lat="44.41247" lon="1.0161">
        <ele>155</ele>
        <time>2012-06-24T07:28:38Z</time>
      </trkpt>
      <trkpt lat="44.41245" lon="1.01604">
        <ele>151</ele>
        <time>2012-06-24T07:28:43Z</time>
      </trkpt>
      <trkpt lat="44.41238" lon="1.01589">
        <ele>150</ele>
        <time>2012-06-24T07:28:48Z</time>
      </trkpt>
      <trkpt lat="44.41231" lon="1.01568">
        <ele>150</ele>
        <time>2012-06-24T07:28:53Z</time>
      </trkpt>
      <trkpt lat="44.41225" lon="1.01546">
        <ele>150</ele>
        <time>2012-06-24T07:28:58Z</time>
      </trkpt>
      <trkpt lat="44.41222" lon="1.01526">
        <ele>150</ele>
        <time>2012-06-24T07:29:03Z</time>
      </trkpt>
      <trkpt lat="44.41221" lon="1.01507">
        <ele>150</ele>
        <time>2012-06-24T07:29:08Z</time>
      </trkpt>
      <trkpt lat="44.41219" lon="1.01484">
        <ele>154</ele>
        <time>2012-06-24T07:29:13Z</time>
      </trkpt>
      <trkpt lat="44.41222" lon="1.01455">
        <ele>156</ele>
        <time>2012-06-24T07:29:18Z</time>
      </trkpt>
      <trkpt lat="44.41224" lon="1.01425">
        <ele>159</ele>
        <time>2012-06-24T07:29:23Z</time>
      </trkpt>
      <trkpt lat="44.41227" lon="1.01396">
        <ele>163</ele>
        <time>2012-06-24T07:29:28Z</time>
      </trkpt>
      <trkpt lat="44.41234" lon="1.01362">
        <ele>164</ele>
        <time>2012-06-24T07:29:33Z</time>
      </trkpt>
      <trkpt lat="44.41237" lon="1.01332">
        <ele>164</ele>
        <time>2012-06-24T07:29:38Z</time>
      </trkpt>
      <trkpt lat="44.41227" lon="1.01307">
        <ele>164</ele>
        <time>2012-06-24T07:29:43Z</time>
      </trkpt>
      <trkpt lat="44.41216" lon="1.01283">
        <ele>164</ele>
        <time>2012-06-24T07:29:48Z</time>
      </trkpt>
      <trkpt lat="44.41203" lon="1.01259">
        <ele>164</ele>
        <time>2012-06-24T07:29:53Z</time>
      </trkpt>
      <trkpt lat="44.41185" lon="1.0124">
        <ele>162</ele>
        <time>2012-06-24T07:29:58Z</time>
      </trkpt>
      <trkpt lat="44.41167" lon="1.01228">
        <ele>159</ele>
        <time>2012-06-24T07:30:03Z</time>
      </trkpt>
      <trkpt lat="44.41144" lon="1.01229">
        <ele>154</ele>
        <time>2012-06-24T07:30:08Z</time>
      </trkpt>
      <trkpt lat="44.41124" lon="1.01247">
        <ele>151</ele>
        <time>2012-06-24T07:30:13Z</time>
      </trkpt>
      <trkpt lat="44.41108" lon="1.01266">
        <ele>149</ele>
        <time>2012-06-24T07:30:18Z</time>
      </trkpt>
      <trkpt lat="44.41091" lon="1.01278">
        <ele>149</ele>
        <time>2012-06-24T07:30:23Z</time>
      </trkpt>
      <trkpt lat="44.41076" lon="1.01278">
        <ele>147</ele>
        <time>2012-06-24T07:30:28Z</time>
      </trkpt>
      <trkpt lat="44.41062" lon="1.01279">
        <ele>147</ele>
        <time>2012-06-24T07:30:33Z</time>
      </trkpt>
      <trkpt lat="44.41045" lon="1.01277">
        <ele>147</ele>
        <time>2012-06-24T07:30:38Z</time>
      </trkpt>
      <trkpt lat="44.41029" lon="1.01274">
        <ele>147</ele>
        <time>2012-06-24T07:30:43Z</time>
      </trkpt>
      <trkpt lat="44.41013" lon="1.0127">
        <ele>147</ele>
        <time>2012-06-24T07:30:48Z</time>
      </trkpt>
      <trkpt lat="44.40997" lon="1.01266">
        <ele>148</ele>
        <time>2012-06-24T07:30:53Z</time>
      </trkpt>
      <trkpt lat="44.40979" lon="1.01261">
        <ele>148</ele>
        <time>2012-06-24T07:30:58Z</time>
      </trkpt>
      <trkpt lat="44.40962" lon="1.01259">
        <ele>148</ele>
        <time>2012-06-24T07:31:03Z</time>
      </trkpt>
      <trkpt lat="44.40939" lon="1.01258">
        <ele>148</ele>
        <time>2012-06-24T07:31:08Z</time>
      </trkpt>
      <trkpt lat="44.40917" lon="1.01256">
        <ele>148</ele>
        <time>2012-06-24T07:31:13Z</time>
      </trkpt>
      <trkpt lat="44.40897" lon="1.01254">
        <ele>147</ele>
        <time>2012-06-24T07:31:18Z</time>
      </trkpt>
      <trkpt lat="44.40879" lon="1.01254">
        <ele>147</ele>
        <time>2012-06-24T07:31:23Z</time>
      </trkpt>
      <trkpt lat="44.40855" lon="1.01253">
        <ele>147</ele>
        <time>2012-06-24T07:31:28Z</time>
      </trkpt>
      <trkpt lat="44.40835" lon="1.01251">
        <ele>146</ele>
        <time>2012-06-24T07:31:33Z</time>
      </trkpt>
      <trkpt lat="44.40814" lon="1.01245">
        <ele>145</ele>
        <time>2012-06-24T07:31:38Z</time>
      </trkpt>
      <trkpt lat="44.4079" lon="1.01239">
        <ele>143</ele>
        <time>2012-06-24T07:31:43Z</time>
      </trkpt>
      <trkpt lat="44.40766" lon="1.01232">
        <ele>141</ele>
        <time>2012-06-24T07:31:48Z</time>
      </trkpt>
      <trkpt lat="44.40748" lon="1.01215">
        <ele>141</ele>
        <time>2012-06-24T07:31:53Z</time>
      </trkpt>
      <trkpt lat="44.4074" lon="1.01193">
        <ele>141</ele>
        <time>2012-06-24T07:31:58Z</time>
      </trkpt>
      <trkpt lat="44.40733" lon="1.01173">
        <ele>140</ele>
        <time>2012-06-24T07:32:03Z</time>
      </trkpt>
      <trkpt lat="44.40723" lon="1.01149">
        <ele>139</ele>
        <time>2012-06-24T07:32:08Z</time>
      </trkpt>
      <trkpt lat="44.40715" lon="1.01125">
        <ele>139</ele>
        <time>2012-06-24T07:32:13Z</time>
      </trkpt>
      <trkpt lat="44.40706" lon="1.01101">
        <ele>139</ele>
        <time>2012-06-24T07:32:18Z</time>
      </trkpt>
      <trkpt lat="44.40698" lon="1.01081">
        <ele>139</ele>
        <time>2012-06-24T07:32:23Z</time>
      </trkpt>
      <trkpt lat="44.40688" lon="1.01055">
        <ele>140</ele>
        <time>2012-06-24T07:32:28Z</time>
      </trkpt>
      <trkpt lat="44.40682" lon="1.01024">
        <ele>140</ele>
        <time>2012-06-24T07:32:33Z</time>
      </trkpt>
      <trkpt lat="44.40678" lon="1.00993">
        <ele>141</ele>
        <time>2012-06-24T07:32:38Z</time>
      </trkpt>
      <trkpt lat="44.40679" lon="1.00959">
        <ele>146</ele>
        <time>2012-06-24T07:32:43Z</time>
      </trkpt>
      <trkpt lat="44.40682" lon="1.00922">
        <ele>150</ele>
        <time>2012-06-24T07:32:48Z</time>
      </trkpt>
      <trkpt lat="44.4068" lon="1.00883">
        <ele>150</ele>
        <time>2012-06-24T07:32:53Z</time>
      </trkpt>
      <trkpt lat="44.40678" lon="1.00863">
        <ele>150</ele>
        <time>2012-06-24T07:32:58Z</time>
      </trkpt>
      <trkpt lat="44.40673" lon="1.00841">
        <ele>150</ele>
        <time>2012-06-24T07:33:03Z</time>
      </trkpt>
      <trkpt lat="44.40661" lon="1.00817">
        <ele>150</ele>
        <time>2012-06-24T07:33:08Z</time>
      </trkpt>
      <trkpt lat="44.40667" lon="1.00796">
        <ele>149</ele>
        <time>2012-06-24T07:33:13Z</time>
      </trkpt>
      <trkpt lat="44.40679" lon="1.0078">
        <ele>148</ele>
        <time>2012-06-24T07:33:18Z</time>
      </trkpt>
      <trkpt lat="44.40694" lon="1.00781">
        <ele>145</ele>
        <time>2012-06-24T07:33:23Z</time>
      </trkpt>
      <trkpt lat="44.40701" lon="1.00784">
        <ele>143</ele>
        <time>2012-06-24T07:33:28Z</time>
      </trkpt>
      <trkpt lat="44.40709" lon="1.00785">
        <ele>142</ele>
        <time>2012-06-24T07:33:33Z</time>
      </trkpt>
      <trkpt lat="44.40722" lon="1.00786">
        <ele>142</ele>
        <time>2012-06-24T07:33:38Z</time>
      </trkpt>
      <trkpt lat="44.40737" lon="1.00788">
        <ele>142</ele>
        <time>2012-06-24T07:33:43Z</time>
      </trkpt>
      <trkpt lat="44.40747" lon="1.00791">
        <ele>142</ele>
        <time>2012-06-24T07:33:48Z</time>
      </trkpt>
      <trkpt lat="44.40757" lon="1.00792">
        <ele>142</ele>
        <time>2012-06-24T07:33:53Z</time>
      </trkpt>
      <trkpt lat="44.40768" lon="1.00791">
        <ele>142</ele>
        <time>2012-06-24T07:33:58Z</time>
      </trkpt>
      <trkpt lat="44.40779" lon="1.0079">
        <ele>146</ele>
        <time>2012-06-24T07:34:03Z</time>
      </trkpt>
      <trkpt lat="44.40789" lon="1.00789">
        <ele>149</ele>
        <time>2012-06-24T07:34:08Z</time>
      </trkpt>
      <trkpt lat="44.40799" lon="1.00787">
        <ele>151</ele>
        <time>2012-06-24T07:34:13Z</time>
      </trkpt>
      <trkpt lat="44.40811" lon="1.00787">
        <ele>151</ele>
        <time>2012-06-24T07:34:18Z</time>
      </trkpt>
      <trkpt lat="44.4082" lon="1.00788">
        <ele>151</ele>
        <time>2012-06-24T07:34:23Z</time>
      </trkpt>
      <trkpt lat="44.40831" lon="1.00787">
        <ele>155</ele>
        <time>2012-06-24T07:34:28Z</time>
      </trkpt>
      <trkpt lat="44.40842" lon="1.00786">
        <ele>157</ele>
        <time>2012-06-24T07:34:33Z</time>
      </trkpt>
      <trkpt lat="44.40854" lon="1.00786">
        <ele>157</ele>
        <time>2012-06-24T07:34:38Z</time>
      </trkpt>
      <trkpt lat="44.40865" lon="1.00787">
        <ele>157</ele>
        <time>2012-06-24T07:34:43Z</time>
      </trkpt>
      <trkpt lat="44.40876" lon="1.00784">
        <ele>157</ele>
        <time>2012-06-24T07:34:48Z</time>
      </trkpt>
      <trkpt lat="44.40881" lon="1.00772">
        <ele>158</ele>
        <time>2012-06-24T07:34:53Z</time>
      </trkpt>
      <trkpt lat="44.40875" lon="1.00751">
        <ele>159</ele>
        <time>2012-06-24T07:34:58Z</time>
      </trkpt>
      <trkpt lat="44.40866" lon="1.00722">
        <ele>159</ele>
        <time>2012-06-24T07:35:03Z</time>
      </trkpt>
      <trkpt lat="44.40865" lon="1.00694">
        <ele>159</ele>
        <time>2012-06-24T07:35:08Z</time>
      </trkpt>
      <trkpt lat="44.40872" lon="1.00668">
        <ele>159</ele>
        <time>2012-06-24T07:35:13Z</time>
      </trkpt>
      <trkpt lat="44.40878" lon="1.0064">
        <ele>160</ele>
        <time>2012-06-24T07:35:18Z</time>
      </trkpt>
      <trkpt lat="44.40883" lon="1.00612">
        <ele>160</ele>
        <time>2012-06-24T07:35:23Z</time>
      </trkpt>
      <trkpt lat="44.40892" lon="1.00583">
        <ele>160</ele>
        <time>2012-06-24T07:35:28Z</time>
      </trkpt>
      <trkpt lat="44.40897" lon="1.00551">
        <ele>160</ele>
        <time>2012-06-24T07:35:33Z</time>
      </trkpt>
      <trkpt lat="44.40903" lon="1.00524">
        <ele>160</ele>
        <time>2012-06-24T07:35:38Z</time>
      </trkpt>
      <trkpt lat="44.40912" lon="1.00497">
        <ele>160</ele>
        <time>2012-06-24T07:35:43Z</time>
      </trkpt>
      <trkpt lat="44.40921" lon="1.00471">
        <ele>160</ele>
        <time>2012-06-24T07:35:48Z</time>
      </trkpt>
      <trkpt lat="44.40929" lon="1.00444">
        <ele>160</ele>
        <time>2012-06-24T07:35:53Z</time>
      </trkpt>
      <trkpt lat="44.40939" lon="1.00421">
        <ele>159</ele>
        <time>2012-06-24T07:35:58Z</time>
      </trkpt>
      <trkpt lat="44.40953" lon="1.00394">
        <ele>157</ele>
        <time>2012-06-24T07:36:03Z</time>
      </trkpt>
      <trkpt lat="44.40968" lon="1.00365">
        <ele>154</ele>
        <time>2012-06-24T07:36:08Z</time>
      </trkpt>
      <trkpt lat="44.40984" lon="1.00338">
        <ele>152</ele>
        <time>2012-06-24T07:36:13Z</time>
      </trkpt>
      <trkpt lat="44.41001" lon="1.00312">
        <ele>152</ele>
        <time>2012-06-24T07:36:18Z</time>
      </trkpt>
      <trkpt lat="44.41017" lon="1.00286">
        <ele>152</ele>
        <time>2012-06-24T07:36:23Z</time>
      </trkpt>
      <trkpt lat="44.41033" lon="1.00259">
        <ele>152</ele>
        <time>2012-06-24T07:36:28Z</time>
      </trkpt>
      <trkpt lat="44.41049" lon="1.00234">
        <ele>152</ele>
        <time>2012-06-24T07:36:33Z</time>
      </trkpt>
      <trkpt lat="44.41065" lon="1.0021">
        <ele>152</ele>
        <time>2012-06-24T07:36:38Z</time>
      </trkpt>
      <trkpt lat="44.41079" lon="1.00189">
        <ele>152</ele>
        <time>2012-06-24T07:36:43Z</time>
      </trkpt>
      <trkpt lat="44.41096" lon="1.00188">
        <ele>152</ele>
        <time>2012-06-24T07:36:48Z</time>
      </trkpt>
      <trkpt lat="44.41113" lon="1.00188">
        <ele>152</ele>
        <time>2012-06-24T07:36:53Z</time>
      </trkpt>
      <trkpt lat="44.41127" lon="1.00192">
        <ele>153</ele>
        <time>2012-06-24T07:36:58Z</time>
      </trkpt>
      <trkpt lat="44.41138" lon="1.00202">
        <ele>154</ele>
        <time>2012-06-24T07:37:03Z</time>
      </trkpt>
      <trkpt lat="44.41146" lon="1.00214">
        <ele>157</ele>
        <time>2012-06-24T07:37:08Z</time>
      </trkpt>
      <trkpt lat="44.41157" lon="1.0022">
        <ele>160</ele>
        <time>2012-06-24T07:37:13Z</time>
      </trkpt>
      <trkpt lat="44.41169" lon="1.00225">
        <ele>161</ele>
        <time>2012-06-24T07:37:18Z</time>
      </trkpt>
      <trkpt lat="44.4118" lon="1.00232">
        <ele>163</ele>
        <time>2012-06-24T07:37:23Z</time>
      </trkpt>
      <trkpt lat="44.41188" lon="1.00241">
        <ele>165</ele>
        <time>2012-06-24T07:37:28Z</time>
      </trkpt>
      <trkpt lat="44.41192" lon="1.00253">
        <ele>167</ele>
        <time>2012-06-24T07:37:33Z</time>
      </trkpt>
      <trkpt lat="44.41198" lon="1.00265">
        <ele>170</ele>
        <time>2012-06-24T07:37:38Z</time>
      </trkpt>
      <trkpt lat="44.41203" lon="1.00277">
        <ele>172</ele>
        <time>2012-06-24T07:37:43Z</time>
      </trkpt>
      <trkpt lat="44.41208" lon="1.00288">
        <ele>173</ele>
        <time>2012-06-24T07:37:48Z</time>
      </trkpt>
      <trkpt lat="44.41214" lon="1.00298">
        <ele>173</ele>
        <time>2012-06-24T07:37:53Z</time>
      </trkpt>
      <trkpt lat="44.41222" lon="1.00307">
        <ele>174</ele>
        <time>2012-06-24T07:37:58Z</time>
      </trkpt>
      <trkpt lat="44.4123" lon="1.00317">
        <ele>176</ele>
        <time>2012-06-24T07:38:03Z</time>
      </trkpt>
      <trkpt lat="44.4124" lon="1.00329">
        <ele>180</ele>
        <time>2012-06-24T07:38:09Z</time>
      </trkpt>
      <trkpt lat="44.41247" lon="1.00341">
        <ele>182</ele>
        <time>2012-06-24T07:38:14Z</time>
      </trkpt>
      <trkpt lat="44.41256" lon="1.0035">
        <ele>183</ele>
        <time>2012-06-24T07:38:19Z</time>
      </trkpt>
      <trkpt lat="44.41264" lon="1.00359">
        <ele>185</ele>
        <time>2012-06-24T07:38:24Z</time>
      </trkpt>
      <trkpt lat="44.41274" lon="1.00367">
        <ele>187</ele>
        <time>2012-06-24T07:38:29Z</time>
      </trkpt>
      <trkpt lat="44.41283" lon="1.00377">
        <ele>188</ele>
        <time>2012-06-24T07:38:34Z</time>
      </trkpt>
      <trkpt lat="44.41293" lon="1.00388">
        <ele>189</ele>
        <time>2012-06-24T07:38:39Z</time>
      </trkpt>
      <trkpt lat="44.41303" lon="1.00398">
        <ele>189</ele>
        <time>2012-06-24T07:38:44Z</time>
      </trkpt>
      <trkpt lat="44.41313" lon="1.00408">
        <ele>189</ele>
        <time>2012-06-24T07:38:49Z</time>
      </trkpt>
      <trkpt lat="44.41325" lon="1.00418">
        <ele>189</ele>
        <time>2012-06-24T07:38:54Z</time>
      </trkpt>
      <trkpt lat="44.41337" lon="1.0043">
        <ele>189</ele>
        <time>2012-06-24T07:38:59Z</time>
      </trkpt>
      <trkpt lat="44.41349" lon="1.00443">
        <ele>189</ele>
        <time>2012-06-24T07:39:04Z</time>
      </trkpt>
      <trkpt lat="44.4136" lon="1.00453">
        <ele>189</ele>
        <time>2012-06-24T07:39:09Z</time>
      </trkpt>
      <trkpt lat="44.41372" lon="1.00463">
        <ele>190</ele>
        <time>2012-06-24T07:39:14Z</time>
      </trkpt>
      <trkpt lat="44.41385" lon="1.00471">
        <ele>190</ele>
        <time>2012-06-24T07:39:19Z</time>
      </trkpt>
      <trkpt lat="44.41399" lon="1.00469">
        <ele>190</ele>
        <time>2012-06-24T07:39:24Z</time>
      </trkpt>
      <trkpt lat="44.41411" lon="1.00464">
        <ele>190</ele>
        <time>2012-06-24T07:39:29Z</time>
      </trkpt>
      <trkpt lat="44.41422" lon="1.00461">
        <ele>188</ele>
        <time>2012-06-24T07:39:34Z</time>
      </trkpt>
      <trkpt lat="44.41436" lon="1.00457">
        <ele>186</ele>
        <time>2012-06-24T07:39:40Z</time>
      </trkpt>
      <trkpt lat="44.41453" lon="1.00448">
        <ele>183</ele>
        <time>2012-06-24T07:39:46Z</time>
      </trkpt>
      <trkpt lat="44.41466" lon="1.00443">
        <ele>182</ele>
        <time>2012-06-24T07:39:51Z</time>
      </trkpt>
      <trkpt lat="44.4148" lon="1.00435">
        <ele>182</ele>
        <time>2012-06-24T07:39:56Z</time>
      </trkpt>
      <trkpt lat="44.41495" lon="1.00428">
        <ele>182</ele>
        <time>2012-06-24T07:40:01Z</time>
      </trkpt>
      <trkpt lat="44.4151" lon="1.00426">
        <ele>187</ele>
        <time>2012-06-24T07:40:06Z</time>
      </trkpt>
      <trkpt lat="44.41518" lon="1.00424">
        <ele>188</ele>
        <time>2012-06-24T07:40:11Z</time>
      </trkpt>
      <trkpt lat="44.4152" lon="1.00424">
        <ele>191</ele>
        <time>2012-06-24T07:40:23Z</time>
      </trkpt>
      <trkpt lat="44.4152" lon="1.00424">
        <ele>193</ele>
        <time>2012-06-24T07:40:35Z</time>
      </trkpt>
      <trkpt lat="44.4152" lon="1.00426">
        <ele>193</ele>
        <time>2012-06-24T07:40:51Z</time>
      </trkpt>
      <trkpt lat="44.41521" lon="1.00428">
        <ele>198</ele>
        <time>2012-06-24T07:41:35Z</time>
      </trkpt>
      <trkpt lat="44.41527" lon="1.00433">
        <ele>198</ele>
        <time>2012-06-24T07:41:40Z</time>
      </trkpt>
      <trkpt lat="44.41537" lon="1.00441">
        <ele>199</ele>
        <time>2012-06-24T07:41:45Z</time>
      </trkpt>
      <trkpt lat="44.41551" lon="1.00452">
        <ele>199</ele>
        <time>2012-06-24T07:41:50Z</time>
      </trkpt>
      <trkpt lat="44.41573" lon="1.00472">
        <ele>199</ele>
        <time>2012-06-24T07:41:55Z</time>
      </trkpt>
      <trkpt lat="44.41608" lon="1.00505">
        <ele>198</ele>
        <time>2012-06-24T07:42:00Z</time>
      </trkpt>
      <trkpt lat="44.41649" lon="1.00529">
        <ele>196</ele>
        <time>2012-06-24T07:42:05Z</time>
      </trkpt>
      <trkpt lat="44.41681" lon="1.00537">
        <ele>193</ele>
        <time>2012-06-24T07:42:10Z</time>
      </trkpt>
      <trkpt lat="44.41714" lon="1.00536">
        <ele>190</ele>
        <time>2012-06-24T07:42:15Z</time>
      </trkpt>
      <trkpt lat="44.41751" lon="1.00539">
        <ele>185</ele>
        <time>2012-06-24T07:42:21Z</time>
      </trkpt>
      <trkpt lat="44.4178" lon="1.00541">
        <ele>184</ele>
        <time>2012-06-24T07:42:26Z</time>
      </trkpt>
      <trkpt lat="44.41802" lon="1.00538">
        <ele>184</ele>
        <time>2012-06-24T07:42:32Z</time>
      </trkpt>
      <trkpt lat="44.41803" lon="1.00502">
        <ele>184</ele>
        <time>2012-06-24T07:42:38Z</time>
      </trkpt>
      <trkpt lat="44.41808" lon="1.00462">
        <ele>186</ele>
        <time>2012-06-24T07:42:43Z</time>
      </trkpt>
      <trkpt lat="44.4183" lon="1.0042">
        <ele>187</ele>
        <time>2012-06-24T07:42:49Z</time>
      </trkpt>
      <trkpt lat="44.41851" lon="1.0038">
        <ele>187</ele>
        <time>2012-06-24T07:42:54Z</time>
      </trkpt>
      <trkpt lat="44.4187" lon="1.00352">
        <ele>187</ele>
        <time>2012-06-24T07:42:59Z</time>
      </trkpt>
      <trkpt lat="44.41895" lon="1.00342">
        <ele>185</ele>
        <time>2012-06-24T07:43:05Z</time>
      </trkpt>
      <trkpt lat="44.41911" lon="1.00333">
        <ele>182</ele>
        <time>2012-06-24T07:43:10Z</time>
      </trkpt>
      <trkpt lat="44.41927" lon="1.00327">
        <ele>179</ele>
        <time>2012-06-24T07:43:15Z</time>
      </trkpt>
      <trkpt lat="44.41938" lon="1.00326">
        <ele>179</ele>
        <time>2012-06-24T07:43:21Z</time>
      </trkpt>
      <trkpt lat="44.41946" lon="1.00322">
        <ele>179</ele>
        <time>2012-06-24T07:43:26Z</time>
      </trkpt>
      <trkpt lat="44.41953" lon="1.00316">
        <ele>179</ele>
        <time>2012-06-24T07:43:31Z</time>
      </trkpt>
      <trkpt lat="44.41963" lon="1.00309">
        <ele>179</ele>
        <time>2012-06-24T07:43:37Z</time>
      </trkpt>
      <trkpt lat="44.41975" lon="1.00297">
        <ele>180</ele>
        <time>2012-06-24T07:43:42Z</time>
      </trkpt>
      <trkpt lat="44.41991" lon="1.00282">
        <ele>182</ele>
        <time>2012-06-24T07:43:47Z</time>
      </trkpt>
      <trkpt lat="44.42012" lon="1.00267">
        <ele>182</ele>
        <time>2012-06-24T07:43:52Z</time>
      </trkpt>
      <trkpt lat="44.42035" lon="1.00252">
        <ele>182</ele>
        <time>2012-06-24T07:43:57Z</time>
      </trkpt>
      <trkpt lat="44.42052" lon="1.00232">
        <ele>183</ele>
        <time>2012-06-24T07:44:02Z</time>
      </trkpt>
      <trkpt lat="44.4207" lon="1.0021">
        <ele>183</ele>
        <time>2012-06-24T07:44:07Z</time>
      </trkpt>
      <trkpt lat="44.42088" lon="1.00187">
        <ele>184</ele>
        <time>2012-06-24T07:44:12Z</time>
      </trkpt>
      <trkpt lat="44.42106" lon="1.00162">
        <ele>185</ele>
        <time>2012-06-24T07:44:17Z</time>
      </trkpt>
      <trkpt lat="44.42117" lon="1.00143">
        <ele>185</ele>
        <time>2012-06-24T07:44:22Z</time>
      </trkpt>
      <trkpt lat="44.42124" lon="1.00128">
        <ele>185</ele>
        <time>2012-06-24T07:44:28Z</time>
      </trkpt>
      <trkpt lat="44.42126" lon="1.00124">
        <ele>185</ele>
        <time>2012-06-24T07:44:34Z</time>
      </trkpt>
      <trkpt lat="44.42128" lon="1.00122">
        <ele>185</ele>
        <time>2012-06-24T07:44:41Z</time>
      </trkpt>
      <trkpt lat="44.4213" lon="1.00121">
        <ele>185</ele>
        <time>2012-06-24T07:44:48Z</time>
      </trkpt>
      <trkpt lat="44.42131" lon="1.00121">
        <ele>185</ele>
        <time>2012-06-24T07:44:55Z</time>
      </trkpt>
      <trkpt lat="44.42138" lon="1.0012">
        <ele>183</ele>
        <time>2012-06-24T07:45:01Z</time>
      </trkpt>
      <trkpt lat="44.42168" lon="1.00109">
        <ele>179</ele>
        <time>2012-06-24T07:45:06Z</time>
      </trkpt>
      <trkpt lat="44.42201" lon="1.00092">
        <ele>174</ele>
        <time>2012-06-24T07:45:11Z</time>
      </trkpt>
      <trkpt lat="44.42235" lon="1.00067">
        <ele>169</ele>
        <time>2012-06-24T07:45:16Z</time>
      </trkpt>
      <trkpt lat="44.42283" lon="1.00051">
        <ele>163</ele>
        <time>2012-06-24T07:45:22Z</time>
      </trkpt>
      <trkpt lat="44.42311" lon="1.00066">
        <ele>158</ele>
        <time>2012-06-24T07:45:27Z</time>
      </trkpt>
      <trkpt lat="44.42327" lon="1.00085">
        <ele>154</ele>
        <time>2012-06-24T07:45:32Z</time>
      </trkpt>
      <trkpt lat="44.42339" lon="1.00099">
        <ele>154</ele>
        <time>2012-06-24T07:45:37Z</time>
      </trkpt>
      <trkpt lat="44.42342" lon="1.00087">
        <ele>154</ele>
        <time>2012-06-24T07:45:42Z</time>
      </trkpt>
      <trkpt lat="44.42342" lon="1.00062">
        <ele>156</ele>
        <time>2012-06-24T07:45:47Z</time>
      </trkpt>
      <trkpt lat="44.42343" lon="1.00042">
        <ele>160</ele>
        <time>2012-06-24T07:45:52Z</time>
      </trkpt>
      <trkpt lat="44.42346" lon="1.00021">
        <ele>163</ele>
        <time>2012-06-24T07:45:57Z</time>
      </trkpt>
      <trkpt lat="44.42346" lon="1.00006">
        <ele>165</ele>
        <time>2012-06-24T07:46:02Z</time>
      </trkpt>
      <trkpt lat="44.42354" lon="0.99986">
        <ele>165</ele>
        <time>2012-06-24T07:46:07Z</time>
      </trkpt>
      <trkpt lat="44.42363" lon="0.99961">
        <ele>165</ele>
        <time>2012-06-24T07:46:12Z</time>
      </trkpt>
      <trkpt lat="44.42374" lon="0.99936">
        <ele>165</ele>
        <time>2012-06-24T07:46:17Z</time>
      </trkpt>
      <trkpt lat="44.42385" lon="0.99911">
        <ele>165</ele>
        <time>2012-06-24T07:46:22Z</time>
      </trkpt>
      <trkpt lat="44.42399" lon="0.99888">
        <ele>165</ele>
        <time>2012-06-24T07:46:27Z</time>
      </trkpt>
      <trkpt lat="44.42419" lon="0.99866">
        <ele>164</ele>
        <time>2012-06-24T07:46:32Z</time>
      </trkpt>
      <trkpt lat="44.42439" lon="0.99843">
        <ele>162</ele>
        <time>2012-06-24T07:46:37Z</time>
      </trkpt>
      <trkpt lat="44.42454" lon="0.99827">
        <ele>161</ele>
        <time>2012-06-24T07:46:42Z</time>
      </trkpt>
      <trkpt lat="44.42468" lon="0.99813">
        <ele>161</ele>
        <time>2012-06-24T07:46:47Z</time>
      </trkpt>
      <trkpt lat="44.42482" lon="0.99797">
        <ele>161</ele>
        <time>2012-06-24T07:46:52Z</time>
      </trkpt>
      <trkpt lat="44.42494" lon="0.99777">
        <ele>161</ele>
        <time>2012-06-24T07:46:57Z</time>
      </trkpt>
      <trkpt lat="44.42505" lon="0.99755">
        <ele>161</ele>
        <time>2012-06-24T07:47:02Z</time>
      </trkpt>
      <trkpt lat="44.42512" lon="0.99739">
        <ele>161</ele>
        <time>2012-06-24T07:47:07Z</time>
      </trkpt>
      <trkpt lat="44.42523" lon="0.99716">
        <ele>161</ele>
        <time>2012-06-24T07:47:12Z</time>
      </trkpt>
      <trkpt lat="44.42534" lon="0.99691">
        <ele>161</ele>
        <time>2012-06-24T07:47:17Z</time>
      </trkpt>
      <trkpt lat="44.42544" lon="0.99669">
        <ele>162</ele>
        <time>2012-06-24T07:47:22Z</time>
      </trkpt>
      <trkpt lat="44.42554" lon="0.99642">
        <ele>162</ele>
        <time>2012-06-24T07:47:27Z</time>
      </trkpt>
      <trkpt lat="44.42565" lon="0.99614">
        <ele>163</ele>
        <time>2012-06-24T07:47:32Z</time>
      </trkpt>
      <trkpt lat="44.42571" lon="0.99593">
        <ele>166</ele>
        <time>2012-06-24T07:47:37Z</time>
      </trkpt>
      <trkpt lat="44.42569" lon="0.99566">
        <ele>166</ele>
        <time>2012-06-24T07:47:42Z</time>
      </trkpt>
      <trkpt lat="44.42572" lon="0.99539">
        <ele>164</ele>
        <time>2012-06-24T07:47:47Z</time>
      </trkpt>
      <trkpt lat="44.42591" lon="0.99522">
        <ele>159</ele>
        <time>2012-06-24T07:47:52Z</time>
      </trkpt>
      <trkpt lat="44.42613" lon="0.99501">
        <ele>154</ele>
        <time>2012-06-24T07:47:57Z</time>
      </trkpt>
      <trkpt lat="44.42635" lon="0.99473">
        <ele>148</ele>
        <time>2012-06-24T07:48:02Z</time>
      </trkpt>
      <trkpt lat="44.4265" lon="0.99446">
        <ele>142</ele>
        <time>2012-06-24T07:48:07Z</time>
      </trkpt>
      <trkpt lat="44.42667" lon="0.99418">
        <ele>137</ele>
        <time>2012-06-24T07:48:12Z</time>
      </trkpt>
      <trkpt lat="44.42685" lon="0.99387">
        <ele>137</ele>
        <time>2012-06-24T07:48:17Z</time>
      </trkpt>
      <trkpt lat="44.42707" lon="0.99362">
        <ele>136</ele>
        <time>2012-06-24T07:48:22Z</time>
      </trkpt>
      <trkpt lat="44.42729" lon="0.99344">
        <ele>132</ele>
        <time>2012-06-24T07:48:27Z</time>
      </trkpt>
      <trkpt lat="44.42751" lon="0.99335">
        <ele>130</ele>
        <time>2012-06-24T07:48:32Z</time>
      </trkpt>
      <trkpt lat="44.42773" lon="0.99321">
        <ele>130</ele>
        <time>2012-06-24T07:48:37Z</time>
      </trkpt>
      <trkpt lat="44.42795" lon="0.99309">
        <ele>130</ele>
        <time>2012-06-24T07:48:42Z</time>
      </trkpt>
      <trkpt lat="44.42818" lon="0.99294">
        <ele>130</ele>
        <time>2012-06-24T07:48:47Z</time>
      </trkpt>
      <trkpt lat="44.42839" lon="0.99277">
        <ele>133</ele>
        <time>2012-06-24T07:48:52Z</time>
      </trkpt>
      <trkpt lat="44.42857" lon="0.99261">
        <ele>135</ele>
        <time>2012-06-24T07:48:57Z</time>
      </trkpt>
      <trkpt lat="44.42877" lon="0.9924">
        <ele>135</ele>
        <time>2012-06-24T07:49:02Z</time>
      </trkpt>
      <trkpt lat="44.429" lon="0.99217">
        <ele>135</ele>
        <time>2012-06-24T07:49:07Z</time>
      </trkpt>
      <trkpt lat="44.4292" lon="0.99202">
        <ele>135</ele>
        <time>2012-06-24T07:49:12Z</time>
      </trkpt>
      <trkpt lat="44.42937" lon="0.99191">
        <ele>134</ele>
        <time>2012-06-24T07:49:17Z</time>
      </trkpt>
      <trkpt lat="44.42958" lon="0.9918">
        <ele>133</ele>
        <time>2012-06-24T07:49:22Z</time>
      </trkpt>
      <trkpt lat="44.42976" lon="0.99173">
        <ele>132</ele>
        <time>2012-06-24T07:49:27Z</time>
      </trkpt>
      <trkpt lat="44.42999" lon="0.99173">
        <ele>131</ele>
        <time>2012-06-24T07:49:32Z</time>
      </trkpt>
      <trkpt lat="44.43021" lon="0.99173">
        <ele>130</ele>
        <time>2012-06-24T07:49:37Z</time>
      </trkpt>
      <trkpt lat="44.43048" lon="0.99177">
        <ele>129</ele>
        <time>2012-06-24T07:49:42Z</time>
      </trkpt>
      <trkpt lat="44.43072" lon="0.99185">
        <ele>127</ele>
        <time>2012-06-24T07:49:47Z</time>
      </trkpt>
      <trkpt lat="44.43092" lon="0.99198">
        <ele>127</ele>
        <time>2012-06-24T07:49:52Z</time>
      </trkpt>
      <trkpt lat="44.43113" lon="0.99217">
        <ele>130</ele>
        <time>2012-06-24T07:49:57Z</time>
      </trkpt>
      <trkpt lat="44.43132" lon="0.99239">
        <ele>133</ele>
        <time>2012-06-24T07:50:02Z</time>
      </trkpt>
      <trkpt lat="44.43151" lon="0.99265">
        <ele>135</ele>
        <time>2012-06-24T07:50:07Z</time>
      </trkpt>
      <trkpt lat="44.43173" lon="0.99287">
        <ele>135</ele>
        <time>2012-06-24T07:50:12Z</time>
      </trkpt>
      <trkpt lat="44.43196" lon="0.99301">
        <ele>135</ele>
        <time>2012-06-24T07:50:17Z</time>
      </trkpt>
      <trkpt lat="44.43217" lon="0.99307">
        <ele>135</ele>
        <time>2012-06-24T07:50:22Z</time>
      </trkpt>
      <trkpt lat="44.43233" lon="0.99315">
        <ele>132</ele>
        <time>2012-06-24T07:50:27Z</time>
      </trkpt>
      <trkpt lat="44.43246" lon="0.99327">
        <ele>132</ele>
        <time>2012-06-24T07:50:32Z</time>
      </trkpt>
      <trkpt lat="44.43257" lon="0.99339">
        <ele>132</ele>
        <time>2012-06-24T07:50:37Z</time>
      </trkpt>
      <trkpt lat="44.43271" lon="0.99348">
        <ele>132</ele>
        <time>2012-06-24T07:50:42Z</time>
      </trkpt>
      <trkpt lat="44.43286" lon="0.99364">
        <ele>132</ele>
        <time>2012-06-24T07:50:47Z</time>
      </trkpt>
      <trkpt lat="44.43298" lon="0.99382">
        <ele>132</ele>
        <time>2012-06-24T07:50:52Z</time>
      </trkpt>
      <trkpt lat="44.4331" lon="0.994">
        <ele>132</ele>
        <time>2012-06-24T07:50:57Z</time>
      </trkpt>
      <trkpt lat="44.43323" lon="0.99419">
        <ele>132</ele>
        <time>2012-06-24T07:51:02Z</time>
      </trkpt>
      <trkpt lat="44.43339" lon="0.99442">
        <ele>131</ele>
        <time>2012-06-24T07:51:07Z</time>
      </trkpt>
      <trkpt lat="44.43357" lon="0.99466">
        <ele>131</ele>
        <time>2012-06-24T07:51:12Z</time>
      </trkpt>
      <trkpt lat="44.43382" lon="0.99491">
        <ele>130</ele>
        <time>2012-06-24T07:51:17Z</time>
      </trkpt>
      <trkpt lat="44.43408" lon="0.99507">
        <ele>130</ele>
        <time>2012-06-24T07:51:22Z</time>
      </trkpt>
      <trkpt lat="44.43433" lon="0.9952">
        <ele>127</ele>
        <time>2012-06-24T07:51:27Z</time>
      </trkpt>
      <trkpt lat="44.43465" lon="0.99529">
        <ele>122</ele>
        <time>2012-06-24T07:51:32Z</time>
      </trkpt>
      <trkpt lat="44.43494" lon="0.99534">
        <ele>117</ele>
        <time>2012-06-24T07:51:37Z</time>
      </trkpt>
      <trkpt lat="44.43524" lon="0.99532">
        <ele>113</ele>
        <time>2012-06-24T07:51:42Z</time>
      </trkpt>
      <trkpt lat="44.43555" lon="0.99531">
        <ele>113</ele>
        <time>2012-06-24T07:51:47Z</time>
      </trkpt>
      <trkpt lat="44.43587" lon="0.99532">
        <ele>113</ele>
        <time>2012-06-24T07:51:52Z</time>
      </trkpt>
      <trkpt lat="44.43615" lon="0.99538">
        <ele>110</ele>
        <time>2012-06-24T07:51:57Z</time>
      </trkpt>
      <trkpt lat="44.43637" lon="0.99544">
        <ele>107</ele>
        <time>2012-06-24T07:52:02Z</time>
      </trkpt>
      <trkpt lat="44.43665" lon="0.99552">
        <ele>104</ele>
        <time>2012-06-24T07:52:07Z</time>
      </trkpt>
      <trkpt lat="44.43692" lon="0.9956">
        <ele>103</ele>
        <time>2012-06-24T07:52:12Z</time>
      </trkpt>
      <trkpt lat="44.43712" lon="0.99564">
        <ele>103</ele>
        <time>2012-06-24T07:52:17Z</time>
      </trkpt>
      <trkpt lat="44.43733" lon="0.99569">
        <ele>103</ele>
        <time>2012-06-24T07:52:22Z</time>
      </trkpt>
      <trkpt lat="44.43755" lon="0.99571">
        <ele>106</ele>
        <time>2012-06-24T07:52:27Z</time>
      </trkpt>
      <trkpt lat="44.43779" lon="0.99574">
        <ele>106</ele>
        <time>2012-06-24T07:52:32Z</time>
      </trkpt>
      <trkpt lat="44.43805" lon="0.99577">
        <ele>106</ele>
        <time>2012-06-24T07:52:37Z</time>
      </trkpt>
      <trkpt lat="44.43824" lon="0.99588">
        <ele>106</ele>
        <time>2012-06-24T07:52:42Z</time>
      </trkpt>
      <trkpt lat="44.4384" lon="0.99595">
        <ele>106</ele>
        <time>2012-06-24T07:52:47Z</time>
      </trkpt>
      <trkpt lat="44.43847" lon="0.99598">
        <ele>106</ele>
        <time>2012-06-24T07:52:54Z</time>
      </trkpt>
      <trkpt lat="44.43849" lon="0.99601">
        <ele>112</ele>
        <time>2012-06-24T07:53:01Z</time>
      </trkpt>
      <trkpt lat="44.43849" lon="0.99607">
        <ele>114</ele>
        <time>2012-06-24T07:53:06Z</time>
      </trkpt>
      <trkpt lat="44.4385" lon="0.99603">
        <ele>115</ele>
        <time>2012-06-24T07:53:13Z</time>
      </trkpt>
      <trkpt lat="44.43854" lon="0.99604">
        <ele>115</ele>
        <time>2012-06-24T07:53:19Z</time>
      </trkpt>
      <trkpt lat="44.43866" lon="0.9961">
        <ele>115</ele>
        <time>2012-06-24T07:53:24Z</time>
      </trkpt>
      <trkpt lat="44.4389" lon="0.99615">
        <ele>115</ele>
        <time>2012-06-24T07:53:29Z</time>
      </trkpt>
      <trkpt lat="44.4392" lon="0.99618">
        <ele>115</ele>
        <time>2012-06-24T07:53:34Z</time>
      </trkpt>
      <trkpt lat="44.43952" lon="0.99605">
        <ele>115</ele>
        <time>2012-06-24T07:53:39Z</time>
      </trkpt>
      <trkpt lat="44.43982" lon="0.9959">
        <ele>114</ele>
        <time>2012-06-24T07:53:44Z</time>
      </trkpt>
      <trkpt lat="44.44013" lon="0.99577">
        <ele>111</ele>
        <time>2012-06-24T07:53:49Z</time>
      </trkpt>
      <trkpt lat="44.44042" lon="0.9957">
        <ele>110</ele>
        <time>2012-06-24T07:53:54Z</time>
      </trkpt>
      <trkpt lat="44.44069" lon="0.99565">
        <ele>110</ele>
        <time>2012-06-24T07:53:59Z</time>
      </trkpt>
      <trkpt lat="44.44099" lon="0.99557">
        <ele>109</ele>
        <time>2012-06-24T07:54:04Z</time>
      </trkpt>
      <trkpt lat="44.44128" lon="0.99553">
        <ele>107</ele>
        <time>2012-06-24T07:54:09Z</time>
      </trkpt>
      <trkpt lat="44.44149" lon="0.99559">
        <ele>106</ele>
        <time>2012-06-24T07:54:14Z</time>
      </trkpt>
      <trkpt lat="44.44173" lon="0.99554">
        <ele>106</ele>
        <time>2012-06-24T07:54:19Z</time>
      </trkpt>
      <trkpt lat="44.44204" lon="0.99553">
        <ele>106</ele>
        <time>2012-06-24T07:54:24Z</time>
      </trkpt>
      <trkpt lat="44.44237" lon="0.99548">
        <ele>106</ele>
        <time>2012-06-24T07:54:29Z</time>
      </trkpt>
      <trkpt lat="44.4426" lon="0.99527">
        <ele>106</ele>
        <time>2012-06-24T07:54:34Z</time>
      </trkpt>
      <trkpt lat="44.44285" lon="0.99502">
        <ele>105</ele>
        <time>2012-06-24T07:54:39Z</time>
      </trkpt>
      <trkpt lat="44.44311" lon="0.99471">
        <ele>105</ele>
        <time>2012-06-24T07:54:44Z</time>
      </trkpt>
      <trkpt lat="44.44337" lon="0.99441">
        <ele>105</ele>
        <time>2012-06-24T07:54:49Z</time>
      </trkpt>
      <trkpt lat="44.44363" lon="0.99411">
        <ele>105</ele>
        <time>2012-06-24T07:54:54Z</time>
      </trkpt>
      <trkpt lat="44.44387" lon="0.99382">
        <ele>105</ele>
        <time>2012-06-24T07:54:59Z</time>
      </trkpt>
      <trkpt lat="44.44411" lon="0.99354">
        <ele>105</ele>
        <time>2012-06-24T07:55:04Z</time>
      </trkpt>
      <trkpt lat="44.44432" lon="0.99328">
        <ele>105</ele>
        <time>2012-06-24T07:55:09Z</time>
      </trkpt>
      <trkpt lat="44.44438" lon="0.99313">
        <ele>105</ele>
        <time>2012-06-24T07:55:14Z</time>
      </trkpt>
      <trkpt lat="44.44439" lon="0.99313">
        <ele>105</ele>
        <time>2012-06-24T07:55:26Z</time>
      </trkpt>
      <trkpt lat="44.44439" lon="0.99315">
        <ele>105</ele>
        <time>2012-06-24T07:55:33Z</time>
      </trkpt>
      <trkpt lat="44.44438" lon="0.99313">
        <ele>105</ele>
        <time>2012-06-24T07:55:44Z</time>
      </trkpt>
      <trkpt lat="44.44428" lon="0.99301">
        <ele>105</ele>
        <time>2012-06-24T07:55:49Z</time>
      </trkpt>
      <trkpt lat="44.44415" lon="0.99283">
        <ele>105</ele>
        <time>2012-06-24T07:55:54Z</time>
      </trkpt>
      <trkpt lat="44.44402" lon="0.9926">
        <ele>106</ele>
        <time>2012-06-24T07:55:59Z</time>
      </trkpt>
      <trkpt lat="44.44389" lon="0.9924">
        <ele>109</ele>
        <time>2012-06-24T07:56:04Z</time>
      </trkpt>
      <trkpt lat="44.44378" lon="0.99221">
        <ele>110</ele>
        <time>2012-06-24T07:56:09Z</time>
      </trkpt>
      <trkpt lat="44.44367" lon="0.99201">
        <ele>111</ele>
        <time>2012-06-24T07:56:14Z</time>
      </trkpt>
      <trkpt lat="44.44356" lon="0.9918">
        <ele>111</ele>
        <time>2012-06-24T07:56:19Z</time>
      </trkpt>
      <trkpt lat="44.44342" lon="0.99157">
        <ele>111</ele>
        <time>2012-06-24T07:56:24Z</time>
      </trkpt>
      <trkpt lat="44.4433" lon="0.99137">
        <ele>112</ele>
        <time>2012-06-24T07:56:29Z</time>
      </trkpt>
      <trkpt lat="44.44318" lon="0.99117">
        <ele>114</ele>
        <time>2012-06-24T07:56:34Z</time>
      </trkpt>
      <trkpt lat="44.44307" lon="0.99102">
        <ele>116</ele>
        <time>2012-06-24T07:56:39Z</time>
      </trkpt>
      <trkpt lat="44.443" lon="0.9909">
        <ele>116</ele>
        <time>2012-06-24T07:56:44Z</time>
      </trkpt>
      <trkpt lat="44.44293" lon="0.99075">
        <ele>117</ele>
        <time>2012-06-24T07:56:49Z</time>
      </trkpt>
      <trkpt lat="44.44286" lon="0.9906">
        <ele>120</ele>
        <time>2012-06-24T07:56:54Z</time>
      </trkpt>
      <trkpt lat="44.44287" lon="0.99045">
        <ele>122</ele>
        <time>2012-06-24T07:56:59Z</time>
      </trkpt>
      <trkpt lat="44.44293" lon="0.99013">
        <ele>123</ele>
        <time>2012-06-24T07:57:04Z</time>
      </trkpt>
      <trkpt lat="44.44298" lon="0.98969">
        <ele>123</ele>
        <time>2012-06-24T07:57:09Z</time>
      </trkpt>
      <trkpt lat="44.44304" lon="0.98932">
        <ele>123</ele>
        <time>2012-06-24T07:57:14Z</time>
      </trkpt>
      <trkpt lat="44.44307" lon="0.98893">
        <ele>123</ele>
        <time>2012-06-24T07:57:19Z</time>
      </trkpt>
      <trkpt lat="44.44309" lon="0.98852">
        <ele>120</ele>
        <time>2012-06-24T07:57:24Z</time>
      </trkpt>
      <trkpt lat="44.44313" lon="0.98812">
        <ele>116</ele>
        <time>2012-06-24T07:57:29Z</time>
      </trkpt>
      <trkpt lat="44.44317" lon="0.98768">
        <ele>114</ele>
        <time>2012-06-24T07:57:34Z</time>
      </trkpt>
      <trkpt lat="44.44322" lon="0.98736">
        <ele>113</ele>
        <time>2012-06-24T07:57:39Z</time>
      </trkpt>
      <trkpt lat="44.4431" lon="0.98732">
        <ele>113</ele>
        <time>2012-06-24T07:57:44Z</time>
      </trkpt>
      <trkpt lat="44.44293" lon="0.98733">
        <ele>113</ele>
        <time>2012-06-24T07:57:49Z</time>
      </trkpt>
      <trkpt lat="44.44276" lon="0.98733">
        <ele>113</ele>
        <time>2012-06-24T07:57:54Z</time>
      </trkpt>
      <trkpt lat="44.4426" lon="0.98737">
        <ele>114</ele>
        <time>2012-06-24T07:57:59Z</time>
      </trkpt>
      <trkpt lat="44.44247" lon="0.98746">
        <ele>118</ele>
        <time>2012-06-24T07:58:04Z</time>
      </trkpt>
      <trkpt lat="44.44236" lon="0.98755">
        <ele>121</ele>
        <time>2012-06-24T07:58:09Z</time>
      </trkpt>
      <trkpt lat="44.44225" lon="0.98765">
        <ele>123</ele>
        <time>2012-06-24T07:58:14Z</time>
      </trkpt>
      <trkpt lat="44.44214" lon="0.98773">
        <ele>124</ele>
        <time>2012-06-24T07:58:19Z</time>
      </trkpt>
      <trkpt lat="44.44204" lon="0.98779">
        <ele>126</ele>
        <time>2012-06-24T07:58:24Z</time>
      </trkpt>
      <trkpt lat="44.44195" lon="0.98786">
        <ele>128</ele>
        <time>2012-06-24T07:58:29Z</time>
      </trkpt>
      <trkpt lat="44.44185" lon="0.98792">
        <ele>130</ele>
        <time>2012-06-24T07:58:34Z</time>
      </trkpt>
      <trkpt lat="44.44175" lon="0.988">
        <ele>131</ele>
        <time>2012-06-24T07:58:39Z</time>
      </trkpt>
      <trkpt lat="44.44165" lon="0.98808">
        <ele>132</ele>
        <time>2012-06-24T07:58:44Z</time>
      </trkpt>
      <trkpt lat="44.44155" lon="0.98816">
        <ele>132</ele>
        <time>2012-06-24T07:58:49Z</time>
      </trkpt>
      <trkpt lat="44.44144" lon="0.98817">
        <ele>132</ele>
        <time>2012-06-24T07:58:54Z</time>
      </trkpt>
      <trkpt lat="44.44134" lon="0.98817">
        <ele>134</ele>
        <time>2012-06-24T07:58:59Z</time>
      </trkpt>
      <trkpt lat="44.44124" lon="0.98824">
        <ele>134</ele>
        <time>2012-06-24T07:59:04Z</time>
      </trkpt>
      <trkpt lat="44.44116" lon="0.98827">
        <ele>136</ele>
        <time>2012-06-24T07:59:09Z</time>
      </trkpt>
      <trkpt lat="44.44108" lon="0.9883">
        <ele>139</ele>
        <time>2012-06-24T07:59:14Z</time>
      </trkpt>
      <trkpt lat="44.44101" lon="0.98835">
        <ele>141</ele>
        <time>2012-06-24T07:59:19Z</time>
      </trkpt>
      <trkpt lat="44.44093" lon="0.98838">
        <ele>143</ele>
        <time>2012-06-24T07:59:24Z</time>
      </trkpt>
      <trkpt lat="44.44085" lon="0.98841">
        <ele>143</ele>
        <time>2012-06-24T07:59:29Z</time>
      </trkpt>
      <trkpt lat="44.44077" lon="0.98844">
        <ele>143</ele>
        <time>2012-06-24T07:59:34Z</time>
      </trkpt>
      <trkpt lat="44.44068" lon="0.98847">
        <ele>144</ele>
        <time>2012-06-24T07:59:39Z</time>
      </trkpt>
      <trkpt lat="44.4406" lon="0.98848">
        <ele>145</ele>
        <time>2012-06-24T07:59:44Z</time>
      </trkpt>
      <trkpt lat="44.44052" lon="0.98849">
        <ele>146</ele>
        <time>2012-06-24T07:59:49Z</time>
      </trkpt>
      <trkpt lat="44.44044" lon="0.98851">
        <ele>147</ele>
        <time>2012-06-24T07:59:54Z</time>
      </trkpt>
      <trkpt lat="44.44036" lon="0.98855">
        <ele>147</ele>
        <time>2012-06-24T07:59:59Z</time>
      </trkpt>
      <trkpt lat="44.4403" lon="0.98859">
        <ele>149</ele>
        <time>2012-06-24T08:00:04Z</time>
      </trkpt>
      <trkpt lat="44.44026" lon="0.98867">
        <ele>152</ele>
        <time>2012-06-24T08:00:09Z</time>
      </trkpt>
      <trkpt lat="44.44022" lon="0.98875">
        <ele>154</ele>
        <time>2012-06-24T08:00:14Z</time>
      </trkpt>
      <trkpt lat="44.44014" lon="0.98879">
        <ele>156</ele>
        <time>2012-06-24T08:00:19Z</time>
      </trkpt>
      <trkpt lat="44.44006" lon="0.98883">
        <ele>157</ele>
        <time>2012-06-24T08:00:24Z</time>
      </trkpt>
      <trkpt lat="44.43998" lon="0.98886">
        <ele>158</ele>
        <time>2012-06-24T08:00:29Z</time>
      </trkpt>
      <trkpt lat="44.4399" lon="0.98889">
        <ele>159</ele>
        <time>2012-06-24T08:00:34Z</time>
      </trkpt>
      <trkpt lat="44.43982" lon="0.98897">
        <ele>162</ele>
        <time>2012-06-24T08:00:40Z</time>
      </trkpt>
      <trkpt lat="44.43975" lon="0.989">
        <ele>163</ele>
        <time>2012-06-24T08:00:45Z</time>
      </trkpt>
      <trkpt lat="44.43967" lon="0.98902">
        <ele>166</ele>
        <time>2012-06-24T08:00:50Z</time>
      </trkpt>
      <trkpt lat="44.43961" lon="0.98908">
        <ele>167</ele>
        <time>2012-06-24T08:00:55Z</time>
      </trkpt>
      <trkpt lat="44.43952" lon="0.98914">
        <ele>167</ele>
        <time>2012-06-24T08:01:00Z</time>
      </trkpt>
      <trkpt lat="44.43944" lon="0.98918">
        <ele>167</ele>
        <time>2012-06-24T08:01:05Z</time>
      </trkpt>
      <trkpt lat="44.43936" lon="0.98922">
        <ele>167</ele>
        <time>2012-06-24T08:01:10Z</time>
      </trkpt>
      <trkpt lat="44.43926" lon="0.98925">
        <ele>167</ele>
        <time>2012-06-24T08:01:15Z</time>
      </trkpt>
      <trkpt lat="44.43918" lon="0.9893">
        <ele>167</ele>
        <time>2012-06-24T08:01:20Z</time>
      </trkpt>
      <trkpt lat="44.43909" lon="0.98934">
        <ele>167</ele>
        <time>2012-06-24T08:01:25Z</time>
      </trkpt>
      <trkpt lat="44.43902" lon="0.98938">
        <ele>168</ele>
        <time>2012-06-24T08:01:30Z</time>
      </trkpt>
      <trkpt lat="44.43895" lon="0.98943">
        <ele>169</ele>
        <time>2012-06-24T08:01:35Z</time>
      </trkpt>
      <trkpt lat="44.43889" lon="0.9895">
        <ele>169</ele>
        <time>2012-06-24T08:01:40Z</time>
      </trkpt>
      <trkpt lat="44.43881" lon="0.98954">
        <ele>169</ele>
        <time>2012-06-24T08:01:45Z</time>
      </trkpt>
      <trkpt lat="44.43874" lon="0.98961">
        <ele>169</ele>
        <time>2012-06-24T08:01:50Z</time>
      </trkpt>
      <trkpt lat="44.43865" lon="0.98966">
        <ele>169</ele>
        <time>2012-06-24T08:01:55Z</time>
      </trkpt>
      <trkpt lat="44.43855" lon="0.98975">
        <ele>169</ele>
        <time>2012-06-24T08:02:00Z</time>
      </trkpt>
      <trkpt lat="44.43845" lon="0.98979">
        <ele>171</ele>
        <time>2012-06-24T08:02:05Z</time>
      </trkpt>
      <trkpt lat="44.43837" lon="0.98985">
        <ele>176</ele>
        <time>2012-06-24T08:02:10Z</time>
      </trkpt>
      <trkpt lat="44.43831" lon="0.98995">
        <ele>179</ele>
        <time>2012-06-24T08:02:15Z</time>
      </trkpt>
      <trkpt lat="44.43823" lon="0.99002">
        <ele>179</ele>
        <time>2012-06-24T08:02:20Z</time>
      </trkpt>
      <trkpt lat="44.43815" lon="0.99009">
        <ele>180</ele>
        <time>2012-06-24T08:02:25Z</time>
      </trkpt>
      <trkpt lat="44.43806" lon="0.99017">
        <ele>180</ele>
        <time>2012-06-24T08:02:30Z</time>
      </trkpt>
      <trkpt lat="44.43797" lon="0.99024">
        <ele>180</ele>
        <time>2012-06-24T08:02:35Z</time>
      </trkpt>
      <trkpt lat="44.43788" lon="0.99027">
        <ele>180</ele>
        <time>2012-06-24T08:02:40Z</time>
      </trkpt>
      <trkpt lat="44.4378" lon="0.9903">
        <ele>181</ele>
        <time>2012-06-24T08:02:45Z</time>
      </trkpt>
      <trkpt lat="44.4377" lon="0.99034">
        <ele>184</ele>
        <time>2012-06-24T08:02:50Z</time>
      </trkpt>
      <trkpt lat="44.43762" lon="0.99037">
        <ele>185</ele>
        <time>2012-06-24T08:02:55Z</time>
      </trkpt>
      <trkpt lat="44.43754" lon="0.99042">
        <ele>185</ele>
        <time>2012-06-24T08:03:00Z</time>
      </trkpt>
      <trkpt lat="44.43741" lon="0.99049">
        <ele>185</ele>
        <time>2012-06-24T08:03:05Z</time>
      </trkpt>
      <trkpt lat="44.43731" lon="0.99054">
        <ele>186</ele>
        <time>2012-06-24T08:03:10Z</time>
      </trkpt>
      <trkpt lat="44.43722" lon="0.99056">
        <ele>189</ele>
        <time>2012-06-24T08:03:15Z</time>
      </trkpt>
      <trkpt lat="44.43712" lon="0.99057">
        <ele>191</ele>
        <time>2012-06-24T08:03:20Z</time>
      </trkpt>
      <trkpt lat="44.43701" lon="0.99061">
        <ele>193</ele>
        <time>2012-06-24T08:03:25Z</time>
      </trkpt>
      <trkpt lat="44.43691" lon="0.99062">
        <ele>195</ele>
        <time>2012-06-24T08:03:30Z</time>
      </trkpt>
      <trkpt lat="44.4368" lon="0.99064">
        <ele>196</ele>
        <time>2012-06-24T08:03:35Z</time>
      </trkpt>
      <trkpt lat="44.43669" lon="0.99066">
        <ele>197</ele>
        <time>2012-06-24T08:03:40Z</time>
      </trkpt>
      <trkpt lat="44.43657" lon="0.99066">
        <ele>197</ele>
        <time>2012-06-24T08:03:45Z</time>
      </trkpt>
      <trkpt lat="44.43645" lon="0.99064">
        <ele>198</ele>
        <time>2012-06-24T08:03:50Z</time>
      </trkpt>
      <trkpt lat="44.43632" lon="0.99062">
        <ele>198</ele>
        <time>2012-06-24T08:03:55Z</time>
      </trkpt>
      <trkpt lat="44.43616" lon="0.99057">
        <ele>198</ele>
        <time>2012-06-24T08:04:00Z</time>
      </trkpt>
      <trkpt lat="44.43599" lon="0.99051">
        <ele>199</ele>
        <time>2012-06-24T08:04:05Z</time>
      </trkpt>
      <trkpt lat="44.43579" lon="0.99047">
        <ele>199</ele>
        <time>2012-06-24T08:04:10Z</time>
      </trkpt>
      <trkpt lat="44.43554" lon="0.99042">
        <ele>199</ele>
        <time>2012-06-24T08:04:15Z</time>
      </trkpt>
      <trkpt lat="44.43531" lon="0.99031">
        <ele>199</ele>
        <time>2012-06-24T08:04:20Z</time>
      </trkpt>
      <trkpt lat="44.4351" lon="0.99026">
        <ele>198</ele>
        <time>2012-06-24T08:04:25Z</time>
      </trkpt>
      <trkpt lat="44.43488" lon="0.99019">
        <ele>197</ele>
        <time>2012-06-24T08:04:30Z</time>
      </trkpt>
      <trkpt lat="44.43466" lon="0.99012">
        <ele>195</ele>
        <time>2012-06-24T08:04:35Z</time>
      </trkpt>
      <trkpt lat="44.43446" lon="0.99001">
        <ele>194</ele>
        <time>2012-06-24T08:04:40Z</time>
      </trkpt>
      <trkpt lat="44.43431" lon="0.98993">
        <ele>193</ele>
        <time>2012-06-24T08:04:45Z</time>
      </trkpt>
      <trkpt lat="44.43428" lon="0.98988">
        <ele>193</ele>
        <time>2012-06-24T08:04:53Z</time>
      </trkpt>
      <trkpt lat="44.43424" lon="0.98985">
        <ele>193</ele>
        <time>2012-06-24T08:04:59Z</time>
      </trkpt>
      <trkpt lat="44.43421" lon="0.98983">
        <ele>193</ele>
        <time>2012-06-24T08:05:04Z</time>
      </trkpt>
      <trkpt lat="44.43407" lon="0.98977">
        <ele>193</ele>
        <time>2012-06-24T08:05:09Z</time>
      </trkpt>
      <trkpt lat="44.43393" lon="0.98966">
        <ele>193</ele>
        <time>2012-06-24T08:05:14Z</time>
      </trkpt>
      <trkpt lat="44.43377" lon="0.98952">
        <ele>193</ele>
        <time>2012-06-24T08:05:19Z</time>
      </trkpt>
      <trkpt lat="44.43355" lon="0.9893">
        <ele>193</ele>
        <time>2012-06-24T08:05:24Z</time>
      </trkpt>
      <trkpt lat="44.4333" lon="0.98895">
        <ele>193</ele>
        <time>2012-06-24T08:05:29Z</time>
      </trkpt>
      <trkpt lat="44.43299" lon="0.98864">
        <ele>193</ele>
        <time>2012-06-24T08:05:34Z</time>
      </trkpt>
      <trkpt lat="44.43266" lon="0.98841">
        <ele>193</ele>
        <time>2012-06-24T08:05:39Z</time>
      </trkpt>
      <trkpt lat="44.43235" lon="0.98819">
        <ele>188</ele>
        <time>2012-06-24T08:05:44Z</time>
      </trkpt>
      <trkpt lat="44.43204" lon="0.98798">
        <ele>185</ele>
        <time>2012-06-24T08:05:49Z</time>
      </trkpt>
      <trkpt lat="44.43171" lon="0.98791">
        <ele>180</ele>
        <time>2012-06-24T08:05:54Z</time>
      </trkpt>
      <trkpt lat="44.43137" lon="0.98781">
        <ele>175</ele>
        <time>2012-06-24T08:05:59Z</time>
      </trkpt>
      <trkpt lat="44.43106" lon="0.98769">
        <ele>174</ele>
        <time>2012-06-24T08:06:04Z</time>
      </trkpt>
      <trkpt lat="44.43089" lon="0.98766">
        <ele>174</ele>
        <time>2012-06-24T08:06:09Z</time>
      </trkpt>
      <trkpt lat="44.43068" lon="0.98768">
        <ele>174</ele>
        <time>2012-06-24T08:06:14Z</time>
      </trkpt>
      <trkpt lat="44.43045" lon="0.98774">
        <ele>174</ele>
        <time>2012-06-24T08:06:19Z</time>
      </trkpt>
      <trkpt lat="44.43023" lon="0.98777">
        <ele>174</ele>
        <time>2012-06-24T08:06:24Z</time>
      </trkpt>
      <trkpt lat="44.43004" lon="0.98773">
        <ele>174</ele>
        <time>2012-06-24T08:06:29Z</time>
      </trkpt>
      <trkpt lat="44.42988" lon="0.98769">
        <ele>175</ele>
        <time>2012-06-24T08:06:34Z</time>
      </trkpt>
      <trkpt lat="44.42971" lon="0.98764">
        <ele>178</ele>
        <time>2012-06-24T08:06:39Z</time>
      </trkpt>
      <trkpt lat="44.42958" lon="0.9876">
        <ele>180</ele>
        <time>2012-06-24T08:06:44Z</time>
      </trkpt>
      <trkpt lat="44.42947" lon="0.98758">
        <ele>182</ele>
        <time>2012-06-24T08:06:49Z</time>
      </trkpt>
      <trkpt lat="44.42937" lon="0.98753">
        <ele>184</ele>
        <time>2012-06-24T08:06:54Z</time>
      </trkpt>
      <trkpt lat="44.42928" lon="0.98746">
        <ele>187</ele>
        <time>2012-06-24T08:06:59Z</time>
      </trkpt>
      <trkpt lat="44.42918" lon="0.98741">
        <ele>190</ele>
        <time>2012-06-24T08:07:04Z</time>
      </trkpt>
      <trkpt lat="44.42911" lon="0.98738">
        <ele>191</ele>
        <time>2012-06-24T08:07:09Z</time>
      </trkpt>
      <trkpt lat="44.42903" lon="0.98734">
        <ele>191</ele>
        <time>2012-06-24T08:07:14Z</time>
      </trkpt>
      <trkpt lat="44.42895" lon="0.98728">
        <ele>191</ele>
        <time>2012-06-24T08:07:19Z</time>
      </trkpt>
      <trkpt lat="44.42884" lon="0.98721">
        <ele>191</ele>
        <time>2012-06-24T08:07:24Z</time>
      </trkpt>
      <trkpt lat="44.42868" lon="0.98713">
        <ele>191</ele>
        <time>2012-06-24T08:07:29Z</time>
      </trkpt>
      <trkpt lat="44.42851" lon="0.98704">
        <ele>191</ele>
        <time>2012-06-24T08:07:34Z</time>
      </trkpt>
      <trkpt lat="44.42831" lon="0.98697">
        <ele>191</ele>
        <time>2012-06-24T08:07:39Z</time>
      </trkpt>
      <trkpt lat="44.42815" lon="0.98695">
        <ele>191</ele>
        <time>2012-06-24T08:07:44Z</time>
      </trkpt>
      <trkpt lat="44.42808" lon="0.98704">
        <ele>191</ele>
        <time>2012-06-24T08:07:49Z</time>
      </trkpt>
      <trkpt lat="44.42796" lon="0.98711">
        <ele>192</ele>
        <time>2012-06-24T08:07:54Z</time>
      </trkpt>
      <trkpt lat="44.42778" lon="0.98715">
        <ele>193</ele>
        <time>2012-06-24T08:07:59Z</time>
      </trkpt>
      <trkpt lat="44.4276" lon="0.9872">
        <ele>195</ele>
        <time>2012-06-24T08:08:04Z</time>
      </trkpt>
      <trkpt lat="44.42741" lon="0.98726">
        <ele>197</ele>
        <time>2012-06-24T08:08:09Z</time>
      </trkpt>
      <trkpt lat="44.42722" lon="0.98735">
        <ele>198</ele>
        <time>2012-06-24T08:08:14Z</time>
      </trkpt>
      <trkpt lat="44.42702" lon="0.98744">
        <ele>198</ele>
        <time>2012-06-24T08:08:19Z</time>
      </trkpt>
      <trkpt lat="44.42678" lon="0.98753">
        <ele>198</ele>
        <time>2012-06-24T08:08:24Z</time>
      </trkpt>
      <trkpt lat="44.42646" lon="0.98758">
        <ele>198</ele>
        <time>2012-06-24T08:08:29Z</time>
      </trkpt>
      <trkpt lat="44.42607" lon="0.98758">
        <ele>196</ele>
        <time>2012-06-24T08:08:34Z</time>
      </trkpt>
      <trkpt lat="44.42568" lon="0.98761">
        <ele>196</ele>
        <time>2012-06-24T08:08:39Z</time>
      </trkpt>
      <trkpt lat="44.42532" lon="0.98765">
        <ele>196</ele>
        <time>2012-06-24T08:08:44Z</time>
      </trkpt>
      <trkpt lat="44.425" lon="0.98772">
        <ele>196</ele>
        <time>2012-06-24T08:08:49Z</time>
      </trkpt>
      <trkpt lat="44.42473" lon="0.98777">
        <ele>196</ele>
        <time>2012-06-24T08:08:54Z</time>
      </trkpt>
      <trkpt lat="44.42457" lon="0.98781">
        <ele>196</ele>
        <time>2012-06-24T08:08:59Z</time>
      </trkpt>
      <trkpt lat="44.42454" lon="0.9878">
        <ele>196</ele>
        <time>2012-06-24T08:09:10Z</time>
      </trkpt>
      <trkpt lat="44.42455" lon="0.98778">
        <ele>197</ele>
        <time>2012-06-24T08:09:17Z</time>
      </trkpt>
      <trkpt lat="44.42455" lon="0.98777">
        <ele>198</ele>
        <time>2012-06-24T08:09:23Z</time>
      </trkpt>
      <trkpt lat="44.42455" lon="0.98775">
        <ele>200</ele>
        <time>2012-06-24T08:09:31Z</time>
      </trkpt>
      <trkpt lat="44.42455" lon="0.98774">
        <ele>203</ele>
        <time>2012-06-24T08:09:44Z</time>
      </trkpt>
      <trkpt lat="44.42455" lon="0.98772">
        <ele>203</ele>
        <time>2012-06-24T08:10:02Z</time>
      </trkpt>
      <trkpt lat="44.42456" lon="0.98771">
        <ele>205</ele>
        <time>2012-06-24T08:10:13Z</time>
      </trkpt>
      <trkpt lat="44.42454" lon="0.98772">
        <ele>206</ele>
        <time>2012-06-24T08:10:42Z</time>
      </trkpt>
      <trkpt lat="44.42451" lon="0.98774">
        <ele>205</ele>
        <time>2012-06-24T08:10:48Z</time>
      </trkpt>
      <trkpt lat="44.42449" lon="0.98772">
        <ele>199</ele>
        <time>2012-06-24T08:10:57Z</time>
      </trkpt>
      <trkpt lat="44.42452" lon="0.98771">
        <ele>199</ele>
        <time>2012-06-24T08:11:05Z</time>
      </trkpt>
      <trkpt lat="44.42454" lon="0.98771">
        <ele>200</ele>
        <time>2012-06-24T08:11:14Z</time>
      </trkpt>
      <trkpt lat="44.42455" lon="0.98769">
        <ele>204</ele>
        <time>2012-06-24T08:11:20Z</time>
      </trkpt>
      <trkpt lat="44.42455" lon="0.98771">
        <ele>205</ele>
        <time>2012-06-24T08:11:29Z</time>
      </trkpt>
      <trkpt lat="44.42456" lon="0.9877">
        <ele>205</ele>
        <time>2012-06-24T08:11:34Z</time>
      </trkpt>
      <trkpt lat="44.42457" lon="0.98771">
        <ele>205</ele>
        <time>2012-06-24T08:11:41Z</time>
      </trkpt>
      <trkpt lat="44.42456" lon="0.98773">
        <ele>205</ele>
        <time>2012-06-24T08:11:50Z</time>
      </trkpt>
      <trkpt lat="44.42455" lon="0.98772">
        <ele>207</ele>
        <time>2012-06-24T08:12:39Z</time>
      </trkpt>
      <trkpt lat="44.42454" lon="0.98773">
        <ele>208</ele>
        <time>2012-06-24T08:13:27Z</time>
      </trkpt>
      <trkpt lat="44.42444" lon="0.98774">
        <ele>208</ele>
        <time>2012-06-24T08:13:32Z</time>
      </trkpt>
      <trkpt lat="44.42429" lon="0.98779">
        <ele>208</ele>
        <time>2012-06-24T08:13:37Z</time>
      </trkpt>
      <trkpt lat="44.42411" lon="0.98785">
        <ele>208</ele>
        <time>2012-06-24T08:13:42Z</time>
      </trkpt>
      <trkpt lat="44.4239" lon="0.98789">
        <ele>204</ele>
        <time>2012-06-24T08:13:47Z</time>
      </trkpt>
      <trkpt lat="44.42374" lon="0.98784">
        <ele>202</ele>
        <time>2012-06-24T08:13:52Z</time>
      </trkpt>
      <trkpt lat="44.42368" lon="0.98757">
        <ele>202</ele>
        <time>2012-06-24T08:13:57Z</time>
      </trkpt>
      <trkpt lat="44.42355" lon="0.98731">
        <ele>202</ele>
        <time>2012-06-24T08:14:02Z</time>
      </trkpt>
      <trkpt lat="44.4234" lon="0.98708">
        <ele>202</ele>
        <time>2012-06-24T08:14:07Z</time>
      </trkpt>
      <trkpt lat="44.42324" lon="0.98685">
        <ele>202</ele>
        <time>2012-06-24T08:14:12Z</time>
      </trkpt>
      <trkpt lat="44.42308" lon="0.9866">
        <ele>202</ele>
        <time>2012-06-24T08:14:17Z</time>
      </trkpt>
      <trkpt lat="44.42292" lon="0.98634">
        <ele>202</ele>
        <time>2012-06-24T08:14:22Z</time>
      </trkpt>
      <trkpt lat="44.42273" lon="0.98606">
        <ele>202</ele>
        <time>2012-06-24T08:14:27Z</time>
      </trkpt>
      <trkpt lat="44.42253" lon="0.98577">
        <ele>202</ele>
        <time>2012-06-24T08:14:32Z</time>
      </trkpt>
      <trkpt lat="44.42236" lon="0.98552">
        <ele>202</ele>
        <time>2012-06-24T08:14:37Z</time>
      </trkpt>
      <trkpt lat="44.42227" lon="0.98539">
        <ele>202</ele>
        <time>2012-06-24T08:14:42Z</time>
      </trkpt>
      <trkpt lat="44.4222" lon="0.98527">
        <ele>202</ele>
        <time>2012-06-24T08:14:47Z</time>
      </trkpt>
      <trkpt lat="44.42211" lon="0.98515">
        <ele>202</ele>
        <time>2012-06-24T08:14:52Z</time>
      </trkpt>
      <trkpt lat="44.42198" lon="0.98493">
        <ele>202</ele>
        <time>2012-06-24T08:14:58Z</time>
      </trkpt>
      <trkpt lat="44.42189" lon="0.98478">
        <ele>202</ele>
        <time>2012-06-24T08:15:03Z</time>
      </trkpt>
      <trkpt lat="44.42177" lon="0.98462">
        <ele>202</ele>
        <time>2012-06-24T08:15:08Z</time>
      </trkpt>
      <trkpt lat="44.42158" lon="0.98444">
        <ele>202</ele>
        <time>2012-06-24T08:15:13Z</time>
      </trkpt>
      <trkpt lat="44.42139" lon="0.98425">
        <ele>202</ele>
        <time>2012-06-24T08:15:18Z</time>
      </trkpt>
      <trkpt lat="44.42114" lon="0.98403">
        <ele>200</ele>
        <time>2012-06-24T08:15:23Z</time>
      </trkpt>
      <trkpt lat="44.42099" lon="0.98375">
        <ele>195</ele>
        <time>2012-06-24T08:15:29Z</time>
      </trkpt>
      <trkpt lat="44.42102" lon="0.98352">
        <ele>191</ele>
        <time>2012-06-24T08:15:34Z</time>
      </trkpt>
      <trkpt lat="44.42095" lon="0.98327">
        <ele>188</ele>
        <time>2012-06-24T08:15:40Z</time>
      </trkpt>
      <trkpt lat="44.42091" lon="0.98312">
        <ele>187</ele>
        <time>2012-06-24T08:15:45Z</time>
      </trkpt>
      <trkpt lat="44.42087" lon="0.98294">
        <ele>187</ele>
        <time>2012-06-24T08:15:50Z</time>
      </trkpt>
      <trkpt lat="44.4208" lon="0.98269">
        <ele>187</ele>
        <time>2012-06-24T08:15:55Z</time>
      </trkpt>
      <trkpt lat="44.42074" lon="0.98244">
        <ele>187</ele>
        <time>2012-06-24T08:16:00Z</time>
      </trkpt>
      <trkpt lat="44.42067" lon="0.98219">
        <ele>187</ele>
        <time>2012-06-24T08:16:05Z</time>
      </trkpt>
      <trkpt lat="44.42066" lon="0.98194">
        <ele>187</ele>
        <time>2012-06-24T08:16:10Z</time>
      </trkpt>
      <trkpt lat="44.42062" lon="0.98169">
        <ele>187</ele>
        <time>2012-06-24T08:16:15Z</time>
      </trkpt>
      <trkpt lat="44.4206" lon="0.98143">
        <ele>188</ele>
        <time>2012-06-24T08:16:20Z</time>
      </trkpt>
      <trkpt lat="44.42061" lon="0.98118">
        <ele>190</ele>
        <time>2012-06-24T08:16:25Z</time>
      </trkpt>
      <trkpt lat="44.42062" lon="0.9809">
        <ele>190</ele>
        <time>2012-06-24T08:16:30Z</time>
      </trkpt>
      <trkpt lat="44.42066" lon="0.9806">
        <ele>191</ele>
        <time>2012-06-24T08:16:35Z</time>
      </trkpt>
      <trkpt lat="44.4207" lon="0.98033">
        <ele>191</ele>
        <time>2012-06-24T08:16:40Z</time>
      </trkpt>
      <trkpt lat="44.42062" lon="0.98013">
        <ele>191</ele>
        <time>2012-06-24T08:16:46Z</time>
      </trkpt>
      <trkpt lat="44.42041" lon="0.98004">
        <ele>190</ele>
        <time>2012-06-24T08:16:51Z</time>
      </trkpt>
      <trkpt lat="44.42023" lon="0.97994">
        <ele>188</ele>
        <time>2012-06-24T08:16:56Z</time>
      </trkpt>
      <trkpt lat="44.42004" lon="0.97983">
        <ele>188</ele>
        <time>2012-06-24T08:17:02Z</time>
      </trkpt>
      <trkpt lat="44.41987" lon="0.97973">
        <ele>188</ele>
        <time>2012-06-24T08:17:08Z</time>
      </trkpt>
      <trkpt lat="44.41977" lon="0.97958">
        <ele>188</ele>
        <time>2012-06-24T08:17:13Z</time>
      </trkpt>
      <trkpt lat="44.41972" lon="0.97937">
        <ele>188</ele>
        <time>2012-06-24T08:17:18Z</time>
      </trkpt>
      <trkpt lat="44.41972" lon="0.97907">
        <ele>188</ele>
        <time>2012-06-24T08:17:24Z</time>
      </trkpt>
      <trkpt lat="44.41972" lon="0.97882">
        <ele>188</ele>
        <time>2012-06-24T08:17:29Z</time>
      </trkpt>
      <trkpt lat="44.41972" lon="0.97856">
        <ele>190</ele>
        <time>2012-06-24T08:17:34Z</time>
      </trkpt>
      <trkpt lat="44.41973" lon="0.9782">
        <ele>190</ele>
        <time>2012-06-24T08:17:40Z</time>
      </trkpt>
      <trkpt lat="44.41974" lon="0.97789">
        <ele>190</ele>
        <time>2012-06-24T08:17:45Z</time>
      </trkpt>
      <trkpt lat="44.41976" lon="0.97747">
        <ele>190</ele>
        <time>2012-06-24T08:17:51Z</time>
      </trkpt>
      <trkpt lat="44.41975" lon="0.97707">
        <ele>189</ele>
        <time>2012-06-24T08:17:56Z</time>
      </trkpt>
      <trkpt lat="44.41962" lon="0.97647">
        <ele>186</ele>
        <time>2012-06-24T08:18:02Z</time>
      </trkpt>
      <trkpt lat="44.41945" lon="0.9758">
        <ele>183</ele>
        <time>2012-06-24T08:18:08Z</time>
      </trkpt>
      <trkpt lat="44.41919" lon="0.97513">
        <ele>181</ele>
        <time>2012-06-24T08:18:14Z</time>
      </trkpt>
      <trkpt lat="44.41897" lon="0.97459">
        <ele>181</ele>
        <time>2012-06-24T08:18:19Z</time>
      </trkpt>
      <trkpt lat="44.41881" lon="0.97408">
        <ele>180</ele>
        <time>2012-06-24T08:18:24Z</time>
      </trkpt>
      <trkpt lat="44.41878" lon="0.97356">
        <ele>179</ele>
        <time>2012-06-24T08:18:29Z</time>
      </trkpt>
      <trkpt lat="44.41891" lon="0.97301">
        <ele>177</ele>
        <time>2012-06-24T08:18:34Z</time>
      </trkpt>
      <trkpt lat="44.41904" lon="0.9726">
        <ele>173</ele>
        <time>2012-06-24T08:18:39Z</time>
      </trkpt>
      <trkpt lat="44.41902" lon="0.97208">
        <ele>168</ele>
        <time>2012-06-24T08:18:45Z</time>
      </trkpt>
      <trkpt lat="44.41909" lon="0.97181">
        <ele>166</ele>
        <time>2012-06-24T08:18:50Z</time>
      </trkpt>
      <trkpt lat="44.41898" lon="0.9717">
        <ele>166</ele>
        <time>2012-06-24T08:18:56Z</time>
      </trkpt>
      <trkpt lat="44.41887" lon="0.97145">
        <ele>165</ele>
        <time>2012-06-24T08:19:01Z</time>
      </trkpt>
      <trkpt lat="44.41889" lon="0.971">
        <ele>162</ele>
        <time>2012-06-24T08:19:06Z</time>
      </trkpt>
      <trkpt lat="44.4189" lon="0.97072">
        <ele>161</ele>
        <time>2012-06-24T08:19:11Z</time>
      </trkpt>
      <trkpt lat="44.4188" lon="0.97069">
        <ele>161</ele>
        <time>2012-06-24T08:19:16Z</time>
      </trkpt>
      <trkpt lat="44.41876" lon="0.97069">
        <ele>161</ele>
        <time>2012-06-24T08:19:25Z</time>
      </trkpt>
      <trkpt lat="44.41877" lon="0.97068">
        <ele>161</ele>
        <time>2012-06-24T08:19:31Z</time>
      </trkpt>
      <trkpt lat="44.4188" lon="0.97068">
        <ele>171</ele>
        <time>2012-06-24T08:19:43Z</time>
      </trkpt>
      <trkpt lat="44.41881" lon="0.97068">
        <ele>177</ele>
        <time>2012-06-24T08:20:02Z</time>
      </trkpt>
      <trkpt lat="44.41879" lon="0.97068">
        <ele>177</ele>
        <time>2012-06-24T08:20:24Z</time>
      </trkpt>
      <trkpt lat="44.41875" lon="0.97068">
        <ele>177</ele>
        <time>2012-06-24T08:20:34Z</time>
      </trkpt>
      <trkpt lat="44.41874" lon="0.97068">
        <ele>177</ele>
        <time>2012-06-24T08:20:44Z</time>
      </trkpt>
      <trkpt lat="44.41875" lon="0.97067">
        <ele>172</ele>
        <time>2012-06-24T08:22:36Z</time>
      </trkpt>
      <trkpt lat="44.41876" lon="0.97067">
        <ele>170</ele>
        <time>2012-06-24T08:23:06Z</time>
      </trkpt>
      <trkpt lat="44.41877" lon="0.97065">
        <ele>169</ele>
        <time>2012-06-24T08:24:53Z</time>
      </trkpt>
      <trkpt lat="44.4188" lon="0.97065">
        <ele>169</ele>
        <time>2012-06-24T08:25:00Z</time>
      </trkpt>
      <trkpt lat="44.41888" lon="0.97066">
        <ele>169</ele>
        <time>2012-06-24T08:25:05Z</time>
      </trkpt>
      <trkpt lat="44.41893" lon="0.97054">
        <ele>169</ele>
        <time>2012-06-24T08:25:10Z</time>
      </trkpt>
      <trkpt lat="44.41886" lon="0.97039">
        <ele>169</ele>
        <time>2012-06-24T08:25:15Z</time>
      </trkpt>
      <trkpt lat="44.41869" lon="0.97046">
        <ele>169</ele>
        <time>2012-06-24T08:25:20Z</time>
      </trkpt>
      <trkpt lat="44.41849" lon="0.97053">
        <ele>167</ele>
        <time>2012-06-24T08:25:25Z</time>
      </trkpt>
      <trkpt lat="44.41827" lon="0.97057">
        <ele>165</ele>
        <time>2012-06-24T08:25:30Z</time>
      </trkpt>
      <trkpt lat="44.41806" lon="0.97061">
        <ele>164</ele>
        <time>2012-06-24T08:25:35Z</time>
      </trkpt>
      <trkpt lat="44.41784" lon="0.97066">
        <ele>163</ele>
        <time>2012-06-24T08:25:40Z</time>
      </trkpt>
      <trkpt lat="44.41762" lon="0.97064">
        <ele>161</ele>
        <time>2012-06-24T08:25:45Z</time>
      </trkpt>
      <trkpt lat="44.41735" lon="0.97052">
        <ele>159</ele>
        <time>2012-06-24T08:25:50Z</time>
      </trkpt>
      <trkpt lat="44.41713" lon="0.97012">
        <ele>155</ele>
        <time>2012-06-24T08:25:55Z</time>
      </trkpt>
      <trkpt lat="44.417" lon="0.96955">
        <ele>151</ele>
        <time>2012-06-24T08:26:00Z</time>
      </trkpt>
      <trkpt lat="44.4169" lon="0.96906">
        <ele>151</ele>
        <time>2012-06-24T08:26:05Z</time>
      </trkpt>
      <trkpt lat="44.41674" lon="0.96867">
        <ele>151</ele>
        <time>2012-06-24T08:26:10Z</time>
      </trkpt>
      <trkpt lat="44.4165" lon="0.96833">
        <ele>151</ele>
        <time>2012-06-24T08:26:15Z</time>
      </trkpt>
      <trkpt lat="44.4163" lon="0.96798">
        <ele>151</ele>
        <time>2012-06-24T08:26:20Z</time>
      </trkpt>
      <trkpt lat="44.41617" lon="0.96761">
        <ele>154</ele>
        <time>2012-06-24T08:26:25Z</time>
      </trkpt>
      <trkpt lat="44.41607" lon="0.96725">
        <ele>155</ele>
        <time>2012-06-24T08:26:30Z</time>
      </trkpt>
      <trkpt lat="44.41599" lon="0.96693">
        <ele>157</ele>
        <time>2012-06-24T08:26:35Z</time>
      </trkpt>
      <trkpt lat="44.41591" lon="0.96666">
        <ele>157</ele>
        <time>2012-06-24T08:26:40Z</time>
      </trkpt>
      <trkpt lat="44.41584" lon="0.96641">
        <ele>157</ele>
        <time>2012-06-24T08:26:45Z</time>
      </trkpt>
      <trkpt lat="44.41576" lon="0.96616">
        <ele>157</ele>
        <time>2012-06-24T08:26:50Z</time>
      </trkpt>
      <trkpt lat="44.41561" lon="0.96596">
        <ele>157</ele>
        <time>2012-06-24T08:26:55Z</time>
      </trkpt>
      <trkpt lat="44.41544" lon="0.96576">
        <ele>157</ele>
        <time>2012-06-24T08:27:00Z</time>
      </trkpt>
      <trkpt lat="44.41526" lon="0.96558">
        <ele>157</ele>
        <time>2012-06-24T08:27:05Z</time>
      </trkpt>
      <trkpt lat="44.41508" lon="0.96539">
        <ele>157</ele>
        <time>2012-06-24T08:27:10Z</time>
      </trkpt>
      <trkpt lat="44.41492" lon="0.96519">
        <ele>157</ele>
        <time>2012-06-24T08:27:15Z</time>
      </trkpt>
      <trkpt lat="44.41484" lon="0.96488">
        <ele>157</ele>
        <time>2012-06-24T08:27:20Z</time>
      </trkpt>
      <trkpt lat="44.41478" lon="0.96455">
        <ele>157</ele>
        <time>2012-06-24T08:27:25Z</time>
      </trkpt>
      <trkpt lat="44.41468" lon="0.96421">
        <ele>157</ele>
        <time>2012-06-24T08:27:30Z</time>
      </trkpt>
      <trkpt lat="44.41459" lon="0.96389">
        <ele>157</ele>
        <time>2012-06-24T08:27:35Z</time>
      </trkpt>
      <trkpt lat="44.41449" lon="0.96357">
        <ele>157</ele>
        <time>2012-06-24T08:27:40Z</time>
      </trkpt>
      <trkpt lat="44.41439" lon="0.96327">
        <ele>157</ele>
        <time>2012-06-24T08:27:45Z</time>
      </trkpt>
      <trkpt lat="44.41432" lon="0.96296">
        <ele>160</ele>
        <time>2012-06-24T08:27:50Z</time>
      </trkpt>
      <trkpt lat="44.41424" lon="0.9627">
        <ele>163</ele>
        <time>2012-06-24T08:27:55Z</time>
      </trkpt>
      <trkpt lat="44.41416" lon="0.96248">
        <ele>164</ele>
        <time>2012-06-24T08:28:00Z</time>
      </trkpt>
      <trkpt lat="44.41402" lon="0.96234">
        <ele>164</ele>
        <time>2012-06-24T08:28:05Z</time>
      </trkpt>
      <trkpt lat="44.41381" lon="0.96217">
        <ele>164</ele>
        <time>2012-06-24T08:28:10Z</time>
      </trkpt>
      <trkpt lat="44.41358" lon="0.96201">
        <ele>164</ele>
        <time>2012-06-24T08:28:15Z</time>
      </trkpt>
      <trkpt lat="44.41335" lon="0.96186">
        <ele>164</ele>
        <time>2012-06-24T08:28:20Z</time>
      </trkpt>
      <trkpt lat="44.41312" lon="0.96177">
        <ele>164</ele>
        <time>2012-06-24T08:28:25Z</time>
      </trkpt>
      <trkpt lat="44.41293" lon="0.96182">
        <ele>164</ele>
        <time>2012-06-24T08:28:30Z</time>
      </trkpt>
      <trkpt lat="44.41275" lon="0.96196">
        <ele>164</ele>
        <time>2012-06-24T08:28:35Z</time>
      </trkpt>
      <trkpt lat="44.41257" lon="0.96214">
        <ele>164</ele>
        <time>2012-06-24T08:28:40Z</time>
      </trkpt>
      <trkpt lat="44.41239" lon="0.96229">
        <ele>164</ele>
        <time>2012-06-24T08:28:45Z</time>
      </trkpt>
      <trkpt lat="44.41222" lon="0.96238">
        <ele>164</ele>
        <time>2012-06-24T08:28:50Z</time>
      </trkpt>
      <trkpt lat="44.41212" lon="0.96237">
        <ele>165</ele>
        <time>2012-06-24T08:28:55Z</time>
      </trkpt>
      <trkpt lat="44.41202" lon="0.96236">
        <ele>167</ele>
        <time>2012-06-24T08:29:00Z</time>
      </trkpt>
      <trkpt lat="44.41191" lon="0.96238">
        <ele>169</ele>
        <time>2012-06-24T08:29:05Z</time>
      </trkpt>
      <trkpt lat="44.4118" lon="0.96239">
        <ele>170</ele>
        <time>2012-06-24T08:29:10Z</time>
      </trkpt>
      <trkpt lat="44.41169" lon="0.9624">
        <ele>172</ele>
        <time>2012-06-24T08:29:15Z</time>
      </trkpt>
      <trkpt lat="44.41159" lon="0.9623">
        <ele>172</ele>
        <time>2012-06-24T08:29:20Z</time>
      </trkpt>
      <trkpt lat="44.41154" lon="0.96214">
        <ele>172</ele>
        <time>2012-06-24T08:29:25Z</time>
      </trkpt>
      <trkpt lat="44.41148" lon="0.96198">
        <ele>175</ele>
        <time>2012-06-24T08:29:30Z</time>
      </trkpt>
      <trkpt lat="44.41142" lon="0.96175">
        <ele>180</ele>
        <time>2012-06-24T08:29:35Z</time>
      </trkpt>
      <trkpt lat="44.41132" lon="0.96155">
        <ele>184</ele>
        <time>2012-06-24T08:29:40Z</time>
      </trkpt>
      <trkpt lat="44.41119" lon="0.96137">
        <ele>188</ele>
        <time>2012-06-24T08:29:45Z</time>
      </trkpt>
      <trkpt lat="44.41108" lon="0.96118">
        <ele>189</ele>
        <time>2012-06-24T08:29:50Z</time>
      </trkpt>
      <trkpt lat="44.41096" lon="0.96103">
        <ele>190</ele>
        <time>2012-06-24T08:29:55Z</time>
      </trkpt>
      <trkpt lat="44.41075" lon="0.96087">
        <ele>191</ele>
        <time>2012-06-24T08:30:00Z</time>
      </trkpt>
      <trkpt lat="44.41052" lon="0.96057">
        <ele>191</ele>
        <time>2012-06-24T08:30:05Z</time>
      </trkpt>
      <trkpt lat="44.4104" lon="0.9603">
        <ele>191</ele>
        <time>2012-06-24T08:30:10Z</time>
      </trkpt>
      <trkpt lat="44.41039" lon="0.96001">
        <ele>191</ele>
        <time>2012-06-24T08:30:15Z</time>
      </trkpt>
      <trkpt lat="44.41021" lon="0.95988">
        <ele>191</ele>
        <time>2012-06-24T08:30:20Z</time>
      </trkpt>
      <trkpt lat="44.41001" lon="0.95976">
        <ele>191</ele>
        <time>2012-06-24T08:30:25Z</time>
      </trkpt>
      <trkpt lat="44.40987" lon="0.95957">
        <ele>191</ele>
        <time>2012-06-24T08:30:30Z</time>
      </trkpt>
      <trkpt lat="44.40969" lon="0.95929">
        <ele>190</ele>
        <time>2012-06-24T08:30:35Z</time>
      </trkpt>
      <trkpt lat="44.40958" lon="0.95891">
        <ele>190</ele>
        <time>2012-06-24T08:30:40Z</time>
      </trkpt>
      <trkpt lat="44.40961" lon="0.95845">
        <ele>190</ele>
        <time>2012-06-24T08:30:45Z</time>
      </trkpt>
      <trkpt lat="44.4095" lon="0.95798">
        <ele>189</ele>
        <time>2012-06-24T08:30:50Z</time>
      </trkpt>
      <trkpt lat="44.40949" lon="0.95757">
        <ele>187</ele>
        <time>2012-06-24T08:30:55Z</time>
      </trkpt>
      <trkpt lat="44.40944" lon="0.95719">
        <ele>184</ele>
        <time>2012-06-24T08:31:00Z</time>
      </trkpt>
      <trkpt lat="44.40929" lon="0.95661">
        <ele>181</ele>
        <time>2012-06-24T08:31:05Z</time>
      </trkpt>
      <trkpt lat="44.40914" lon="0.95616">
        <ele>178</ele>
        <time>2012-06-24T08:31:10Z</time>
      </trkpt>
      <trkpt lat="44.40889" lon="0.95571">
        <ele>172</ele>
        <time>2012-06-24T08:31:16Z</time>
      </trkpt>
      <trkpt lat="44.40876" lon="0.95542">
        <ele>167</ele>
        <time>2012-06-24T08:31:21Z</time>
      </trkpt>
      <trkpt lat="44.40888" lon="0.95528">
        <ele>163</ele>
        <time>2012-06-24T08:31:26Z</time>
      </trkpt>
      <trkpt lat="44.40893" lon="0.95527">
        <ele>158</ele>
        <time>2012-06-24T08:31:36Z</time>
      </trkpt>
      <trkpt lat="44.40894" lon="0.95526">
        <ele>157</ele>
        <time>2012-06-24T08:31:44Z</time>
      </trkpt>
      <trkpt lat="44.40903" lon="0.95517">
        <ele>157</ele>
        <time>2012-06-24T08:31:49Z</time>
      </trkpt>
      <trkpt lat="44.4092" lon="0.95503">
        <ele>157</ele>
        <time>2012-06-24T08:31:55Z</time>
      </trkpt>
      <trkpt lat="44.40937" lon="0.95488">
        <ele>157</ele>
        <time>2012-06-24T08:32:00Z</time>
      </trkpt>
      <trkpt lat="44.40962" lon="0.95475">
        <ele>156</ele>
        <time>2012-06-24T08:32:05Z</time>
      </trkpt>
      <trkpt lat="44.40992" lon="0.95465">
        <ele>155</ele>
        <time>2012-06-24T08:32:10Z</time>
      </trkpt>
      <trkpt lat="44.41021" lon="0.95462">
        <ele>155</ele>
        <time>2012-06-24T08:32:15Z</time>
      </trkpt>
      <trkpt lat="44.41045" lon="0.95456">
        <ele>154</ele>
        <time>2012-06-24T08:32:20Z</time>
      </trkpt>
      <trkpt lat="44.41067" lon="0.95447">
        <ele>152</ele>
        <time>2012-06-24T08:32:25Z</time>
      </trkpt>
      <trkpt lat="44.41088" lon="0.95439">
        <ele>149</ele>
        <time>2012-06-24T08:32:30Z</time>
      </trkpt>
      <trkpt lat="44.41114" lon="0.95428">
        <ele>149</ele>
        <time>2012-06-24T08:32:35Z</time>
      </trkpt>
      <trkpt lat="44.41137" lon="0.95415">
        <ele>149</ele>
        <time>2012-06-24T08:32:40Z</time>
      </trkpt>
      <trkpt lat="44.41156" lon="0.95394">
        <ele>149</ele>
        <time>2012-06-24T08:32:45Z</time>
      </trkpt>
      <trkpt lat="44.41172" lon="0.95371">
        <ele>150</ele>
        <time>2012-06-24T08:32:50Z</time>
      </trkpt>
      <trkpt lat="44.41191" lon="0.95347">
        <ele>151</ele>
        <time>2012-06-24T08:32:55Z</time>
      </trkpt>
      <trkpt lat="44.41212" lon="0.95319">
        <ele>151</ele>
        <time>2012-06-24T08:33:00Z</time>
      </trkpt>
      <trkpt lat="44.41237" lon="0.95282">
        <ele>149</ele>
        <time>2012-06-24T08:33:05Z</time>
      </trkpt>
      <trkpt lat="44.41259" lon="0.95238">
        <ele>147</ele>
        <time>2012-06-24T08:33:10Z</time>
      </trkpt>
      <trkpt lat="44.41275" lon="0.95198">
        <ele>147</ele>
        <time>2012-06-24T08:33:15Z</time>
      </trkpt>
      <trkpt lat="44.41288" lon="0.95161">
        <ele>147</ele>
        <time>2012-06-24T08:33:20Z</time>
      </trkpt>
      <trkpt lat="44.41303" lon="0.95126">
        <ele>146</ele>
        <time>2012-06-24T08:33:25Z</time>
      </trkpt>
      <trkpt lat="44.4132" lon="0.95091">
        <ele>145</ele>
        <time>2012-06-24T08:33:30Z</time>
      </trkpt>
      <trkpt lat="44.41343" lon="0.95063">
        <ele>145</ele>
        <time>2012-06-24T08:33:35Z</time>
      </trkpt>
      <trkpt lat="44.41368" lon="0.95032">
        <ele>145</ele>
        <time>2012-06-24T08:33:40Z</time>
      </trkpt>
      <trkpt lat="44.41395" lon="0.95004">
        <ele>145</ele>
        <time>2012-06-24T08:33:45Z</time>
      </trkpt>
      <trkpt lat="44.41418" lon="0.94967">
        <ele>147</ele>
        <time>2012-06-24T08:33:50Z</time>
      </trkpt>
      <trkpt lat="44.41436" lon="0.94914">
        <ele>150</ele>
        <time>2012-06-24T08:33:55Z</time>
      </trkpt>
      <trkpt lat="44.41454" lon="0.94866">
        <ele>154</ele>
        <time>2012-06-24T08:34:00Z</time>
      </trkpt>
      <trkpt lat="44.41474" lon="0.94821">
        <ele>154</ele>
        <time>2012-06-24T08:34:05Z</time>
      </trkpt>
      <trkpt lat="44.41488" lon="0.94796">
        <ele>151</ele>
        <time>2012-06-24T08:34:11Z</time>
      </trkpt>
      <trkpt lat="44.41502" lon="0.94765">
        <ele>146</ele>
        <time>2012-06-24T08:34:16Z</time>
      </trkpt>
      <trkpt lat="44.41516" lon="0.94728">
        <ele>142</ele>
        <time>2012-06-24T08:34:21Z</time>
      </trkpt>
      <trkpt lat="44.41532" lon="0.94692">
        <ele>138</ele>
        <time>2012-06-24T08:34:26Z</time>
      </trkpt>
      <trkpt lat="44.41547" lon="0.94657">
        <ele>136</ele>
        <time>2012-06-24T08:34:31Z</time>
      </trkpt>
      <trkpt lat="44.41558" lon="0.94618">
        <ele>136</ele>
        <time>2012-06-24T08:34:36Z</time>
      </trkpt>
      <trkpt lat="44.41568" lon="0.94576">
        <ele>136</ele>
        <time>2012-06-24T08:34:41Z</time>
      </trkpt>
      <trkpt lat="44.41578" lon="0.9453">
        <ele>136</ele>
        <time>2012-06-24T08:34:46Z</time>
      </trkpt>
      <trkpt lat="44.41586" lon="0.94487">
        <ele>137</ele>
        <time>2012-06-24T08:34:51Z</time>
      </trkpt>
      <trkpt lat="44.41598" lon="0.94449">
        <ele>137</ele>
        <time>2012-06-24T08:34:56Z</time>
      </trkpt>
      <trkpt lat="44.41614" lon="0.94411">
        <ele>136</ele>
        <time>2012-06-24T08:35:01Z</time>
      </trkpt>
      <trkpt lat="44.41635" lon="0.94363">
        <ele>130</ele>
        <time>2012-06-24T08:35:07Z</time>
      </trkpt>
      <trkpt lat="44.4166" lon="0.94325">
        <ele>125</ele>
        <time>2012-06-24T08:35:12Z</time>
      </trkpt>
      <trkpt lat="44.41687" lon="0.94278">
        <ele>120</ele>
        <time>2012-06-24T08:35:17Z</time>
      </trkpt>
      <trkpt lat="44.41714" lon="0.94223">
        <ele>115</ele>
        <time>2012-06-24T08:35:22Z</time>
      </trkpt>
      <trkpt lat="44.41734" lon="0.94179">
        <ele>110</ele>
        <time>2012-06-24T08:35:27Z</time>
      </trkpt>
      <trkpt lat="44.41752" lon="0.94143">
        <ele>108</ele>
        <time>2012-06-24T08:35:32Z</time>
      </trkpt>
      <trkpt lat="44.41766" lon="0.94112">
        <ele>108</ele>
        <time>2012-06-24T08:35:37Z</time>
      </trkpt>
      <trkpt lat="44.41781" lon="0.94086">
        <ele>108</ele>
        <time>2012-06-24T08:35:42Z</time>
      </trkpt>
      <trkpt lat="44.41792" lon="0.94064">
        <ele>108</ele>
        <time>2012-06-24T08:35:47Z</time>
      </trkpt>
      <trkpt lat="44.41806" lon="0.94042">
        <ele>112</ele>
        <time>2012-06-24T08:35:52Z</time>
      </trkpt>
      <trkpt lat="44.41817" lon="0.94022">
        <ele>116</ele>
        <time>2012-06-24T08:35:57Z</time>
      </trkpt>
      <trkpt lat="44.41833" lon="0.93994">
        <ele>119</ele>
        <time>2012-06-24T08:36:03Z</time>
      </trkpt>
      <trkpt lat="44.41848" lon="0.93971">
        <ele>120</ele>
        <time>2012-06-24T08:36:09Z</time>
      </trkpt>
      <trkpt lat="44.41857" lon="0.93939">
        <ele>126</ele>
        <time>2012-06-24T08:36:15Z</time>
      </trkpt>
      <trkpt lat="44.41867" lon="0.9389">
        <ele>127</ele>
        <time>2012-06-24T08:36:21Z</time>
      </trkpt>
      <trkpt lat="44.4188" lon="0.93843">
        <ele>131</ele>
        <time>2012-06-24T08:36:26Z</time>
      </trkpt>
      <trkpt lat="44.41895" lon="0.93794">
        <ele>136</ele>
        <time>2012-06-24T08:36:31Z</time>
      </trkpt>
      <trkpt lat="44.41901" lon="0.93746">
        <ele>139</ele>
        <time>2012-06-24T08:36:36Z</time>
      </trkpt>
      <trkpt lat="44.41909" lon="0.93699">
        <ele>143</ele>
        <time>2012-06-24T08:36:41Z</time>
      </trkpt>
      <trkpt lat="44.41913" lon="0.93647">
        <ele>143</ele>
        <time>2012-06-24T08:36:46Z</time>
      </trkpt>
      <trkpt lat="44.41922" lon="0.93588">
        <ele>141</ele>
        <time>2012-06-24T08:36:52Z</time>
      </trkpt>
      <trkpt lat="44.41943" lon="0.93546">
        <ele>136</ele>
        <time>2012-06-24T08:36:57Z</time>
      </trkpt>
      <trkpt lat="44.41965" lon="0.93498">
        <ele>130</ele>
        <time>2012-06-24T08:37:03Z</time>
      </trkpt>
      <trkpt lat="44.41991" lon="0.93453">
        <ele>121</ele>
        <time>2012-06-24T08:37:09Z</time>
      </trkpt>
      <trkpt lat="44.42012" lon="0.93417">
        <ele>116</ele>
        <time>2012-06-24T08:37:14Z</time>
      </trkpt>
      <trkpt lat="44.42024" lon="0.93395">
        <ele>113</ele>
        <time>2012-06-24T08:37:19Z</time>
      </trkpt>
      <trkpt lat="44.42035" lon="0.93374">
        <ele>113</ele>
        <time>2012-06-24T08:37:24Z</time>
      </trkpt>
      <trkpt lat="44.42048" lon="0.93348">
        <ele>113</ele>
        <time>2012-06-24T08:37:30Z</time>
      </trkpt>
      <trkpt lat="44.42059" lon="0.93326">
        <ele>111</ele>
        <time>2012-06-24T08:37:35Z</time>
      </trkpt>
      <trkpt lat="44.42069" lon="0.93302">
        <ele>111</ele>
        <time>2012-06-24T08:37:40Z</time>
      </trkpt>
      <trkpt lat="44.42081" lon="0.93277">
        <ele>111</ele>
        <time>2012-06-24T08:37:45Z</time>
      </trkpt>
      <trkpt lat="44.42091" lon="0.93252">
        <ele>111</ele>
        <time>2012-06-24T08:37:50Z</time>
      </trkpt>
      <trkpt lat="44.42102" lon="0.93229">
        <ele>111</ele>
        <time>2012-06-24T08:37:55Z</time>
      </trkpt>
      <trkpt lat="44.42119" lon="0.93207">
        <ele>111</ele>
        <time>2012-06-24T08:38:00Z</time>
      </trkpt>
      <trkpt lat="44.42134" lon="0.93186">
        <ele>112</ele>
        <time>2012-06-24T08:38:05Z</time>
      </trkpt>
      <trkpt lat="44.42147" lon="0.93166">
        <ele>112</ele>
        <time>2012-06-24T08:38:10Z</time>
      </trkpt>
      <trkpt lat="44.42165" lon="0.93143">
        <ele>114</ele>
        <time>2012-06-24T08:38:15Z</time>
      </trkpt>
      <trkpt lat="44.42184" lon="0.93127">
        <ele>115</ele>
        <time>2012-06-24T08:38:20Z</time>
      </trkpt>
      <trkpt lat="44.42204" lon="0.93113">
        <ele>116</ele>
        <time>2012-06-24T08:38:25Z</time>
      </trkpt>
      <trkpt lat="44.42223" lon="0.93099">
        <ele>120</ele>
        <time>2012-06-24T08:38:30Z</time>
      </trkpt>
      <trkpt lat="44.42241" lon="0.93082">
        <ele>122</ele>
        <time>2012-06-24T08:38:35Z</time>
      </trkpt>
      <trkpt lat="44.42265" lon="0.93059">
        <ele>122</ele>
        <time>2012-06-24T08:38:40Z</time>
      </trkpt>
      <trkpt lat="44.42288" lon="0.93028">
        <ele>122</ele>
        <time>2012-06-24T08:38:45Z</time>
      </trkpt>
      <trkpt lat="44.42303" lon="0.92993">
        <ele>122</ele>
        <time>2012-06-24T08:38:50Z</time>
      </trkpt>
      <trkpt lat="44.4232" lon="0.92966">
        <ele>122</ele>
        <time>2012-06-24T08:38:55Z</time>
      </trkpt>
      <trkpt lat="44.42339" lon="0.92944">
        <ele>122</ele>
        <time>2012-06-24T08:39:00Z</time>
      </trkpt>
      <trkpt lat="44.42358" lon="0.92927">
        <ele>122</ele>
        <time>2012-06-24T08:39:05Z</time>
      </trkpt>
      <trkpt lat="44.42383" lon="0.92909">
        <ele>122</ele>
        <time>2012-06-24T08:39:10Z</time>
      </trkpt>
      <trkpt lat="44.42404" lon="0.92884">
        <ele>124</ele>
        <time>2012-06-24T08:39:15Z</time>
      </trkpt>
      <trkpt lat="44.42428" lon="0.92856">
        <ele>125</ele>
        <time>2012-06-24T08:39:20Z</time>
      </trkpt>
      <trkpt lat="44.42454" lon="0.92821">
        <ele>125</ele>
        <time>2012-06-24T08:39:25Z</time>
      </trkpt>
      <trkpt lat="44.42469" lon="0.9278">
        <ele>123</ele>
        <time>2012-06-24T08:39:30Z</time>
      </trkpt>
      <trkpt lat="44.42482" lon="0.92741">
        <ele>119</ele>
        <time>2012-06-24T08:39:35Z</time>
      </trkpt>
      <trkpt lat="44.42498" lon="0.92703">
        <ele>117</ele>
        <time>2012-06-24T08:39:40Z</time>
      </trkpt>
      <trkpt lat="44.42512" lon="0.92667">
        <ele>115</ele>
        <time>2012-06-24T08:39:45Z</time>
      </trkpt>
      <trkpt lat="44.42526" lon="0.92633">
        <ele>114</ele>
        <time>2012-06-24T08:39:50Z</time>
      </trkpt>
      <trkpt lat="44.42538" lon="0.9262">
        <ele>113</ele>
        <time>2012-06-24T08:39:55Z</time>
      </trkpt>
      <trkpt lat="44.42566" lon="0.92622">
        <ele>112</ele>
        <time>2012-06-24T08:40:01Z</time>
      </trkpt>
      <trkpt lat="44.42592" lon="0.92621">
        <ele>112</ele>
        <time>2012-06-24T08:40:06Z</time>
      </trkpt>
      <trkpt lat="44.42617" lon="0.9262">
        <ele>112</ele>
        <time>2012-06-24T08:40:11Z</time>
      </trkpt>
      <trkpt lat="44.42633" lon="0.92608">
        <ele>111</ele>
        <time>2012-06-24T08:40:16Z</time>
      </trkpt>
      <trkpt lat="44.42643" lon="0.92571">
        <ele>109</ele>
        <time>2012-06-24T08:40:21Z</time>
      </trkpt>
      <trkpt lat="44.42654" lon="0.92533">
        <ele>107</ele>
        <time>2012-06-24T08:40:26Z</time>
      </trkpt>
      <trkpt lat="44.42665" lon="0.92496">
        <ele>107</ele>
        <time>2012-06-24T08:40:31Z</time>
      </trkpt>
      <trkpt lat="44.42673" lon="0.92461">
        <ele>106</ele>
        <time>2012-06-24T08:40:36Z</time>
      </trkpt>
      <trkpt lat="44.42676" lon="0.92422">
        <ele>105</ele>
        <time>2012-06-24T08:40:41Z</time>
      </trkpt>
      <trkpt lat="44.42677" lon="0.92383">
        <ele>105</ele>
        <time>2012-06-24T08:40:46Z</time>
      </trkpt>
      <trkpt lat="44.42683" lon="0.92342">
        <ele>104</ele>
        <time>2012-06-24T08:40:51Z</time>
      </trkpt>
      <trkpt lat="44.42693" lon="0.92301">
        <ele>104</ele>
        <time>2012-06-24T08:40:56Z</time>
      </trkpt>
      <trkpt lat="44.42708" lon="0.92265">
        <ele>103</ele>
        <time>2012-06-24T08:41:01Z</time>
      </trkpt>
      <trkpt lat="44.42717" lon="0.92224">
        <ele>101</ele>
        <time>2012-06-24T08:41:06Z</time>
      </trkpt>
      <trkpt lat="44.42731" lon="0.92186">
        <ele>101</ele>
        <time>2012-06-24T08:41:11Z</time>
      </trkpt>
      <trkpt lat="44.42746" lon="0.92154">
        <ele>101</ele>
        <time>2012-06-24T08:41:16Z</time>
      </trkpt>
      <trkpt lat="44.42761" lon="0.92121">
        <ele>101</ele>
        <time>2012-06-24T08:41:21Z</time>
      </trkpt>
      <trkpt lat="44.42777" lon="0.92088">
        <ele>101</ele>
        <time>2012-06-24T08:41:26Z</time>
      </trkpt>
      <trkpt lat="44.42792" lon="0.92054">
        <ele>101</ele>
        <time>2012-06-24T08:41:31Z</time>
      </trkpt>
      <trkpt lat="44.42808" lon="0.92022">
        <ele>101</ele>
        <time>2012-06-24T08:41:36Z</time>
      </trkpt>
      <trkpt lat="44.42828" lon="0.91997">
        <ele>101</ele>
        <time>2012-06-24T08:41:41Z</time>
      </trkpt>
      <trkpt lat="44.42855" lon="0.91974">
        <ele>101</ele>
        <time>2012-06-24T08:41:47Z</time>
      </trkpt>
      <trkpt lat="44.42878" lon="0.91953">
        <ele>101</ele>
        <time>2012-06-24T08:41:52Z</time>
      </trkpt>
      <trkpt lat="44.42902" lon="0.91932">
        <ele>101</ele>
        <time>2012-06-24T08:41:57Z</time>
      </trkpt>
      <trkpt lat="44.42925" lon="0.91911">
        <ele>101</ele>
        <time>2012-06-24T08:42:02Z</time>
      </trkpt>
      <trkpt lat="44.4295" lon="0.9189">
        <ele>101</ele>
        <time>2012-06-24T08:42:07Z</time>
      </trkpt>
      <trkpt lat="44.42975" lon="0.91868">
        <ele>101</ele>
        <time>2012-06-24T08:42:12Z</time>
      </trkpt>
      <trkpt lat="44.43" lon="0.91849">
        <ele>101</ele>
        <time>2012-06-24T08:42:17Z</time>
      </trkpt>
      <trkpt lat="44.43027" lon="0.91836">
        <ele>101</ele>
        <time>2012-06-24T08:42:22Z</time>
      </trkpt>
      <trkpt lat="44.43054" lon="0.91822">
        <ele>101</ele>
        <time>2012-06-24T08:42:27Z</time>
      </trkpt>
      <trkpt lat="44.43081" lon="0.91807">
        <ele>101</ele>
        <time>2012-06-24T08:42:32Z</time>
      </trkpt>
      <trkpt lat="44.43106" lon="0.91787">
        <ele>101</ele>
        <time>2012-06-24T08:42:37Z</time>
      </trkpt>
      <trkpt lat="44.43129" lon="0.91762">
        <ele>101</ele>
        <time>2012-06-24T08:42:42Z</time>
      </trkpt>
      <trkpt lat="44.43157" lon="0.91744">
        <ele>101</ele>
        <time>2012-06-24T08:42:47Z</time>
      </trkpt>
      <trkpt lat="44.43187" lon="0.91732">
        <ele>101</ele>
        <time>2012-06-24T08:42:52Z</time>
      </trkpt>
      <trkpt lat="44.43216" lon="0.91719">
        <ele>101</ele>
        <time>2012-06-24T08:42:57Z</time>
      </trkpt>
      <trkpt lat="44.43241" lon="0.91697">
        <ele>101</ele>
        <time>2012-06-24T08:43:02Z</time>
      </trkpt>
      <trkpt lat="44.43265" lon="0.91676">
        <ele>101</ele>
        <time>2012-06-24T08:43:07Z</time>
      </trkpt>
      <trkpt lat="44.4329" lon="0.9166">
        <ele>101</ele>
        <time>2012-06-24T08:43:12Z</time>
      </trkpt>
      <trkpt lat="44.43323" lon="0.91651">
        <ele>101</ele>
        <time>2012-06-24T08:43:17Z</time>
      </trkpt>
      <trkpt lat="44.43358" lon="0.91634">
        <ele>101</ele>
        <time>2012-06-24T08:43:22Z</time>
      </trkpt>
      <trkpt lat="44.43398" lon="0.91613">
        <ele>101</ele>
        <time>2012-06-24T08:43:28Z</time>
      </trkpt>
      <trkpt lat="44.43434" lon="0.91585">
        <ele>101</ele>
        <time>2012-06-24T08:43:34Z</time>
      </trkpt>
      <trkpt lat="44.43458" lon="0.91561">
        <ele>101</ele>
        <time>2012-06-24T08:43:39Z</time>
      </trkpt>
      <trkpt lat="44.43475" lon="0.91551">
        <ele>101</ele>
        <time>2012-06-24T08:43:44Z</time>
      </trkpt>
      <trkpt lat="44.43484" lon="0.91573">
        <ele>101</ele>
        <time>2012-06-24T08:43:49Z</time>
      </trkpt>
      <trkpt lat="44.43489" lon="0.916">
        <ele>101</ele>
        <time>2012-06-24T08:43:54Z</time>
      </trkpt>
      <trkpt lat="44.43497" lon="0.91633">
        <ele>101</ele>
        <time>2012-06-24T08:44:00Z</time>
      </trkpt>
      <trkpt lat="44.43505" lon="0.91662">
        <ele>101</ele>
        <time>2012-06-24T08:44:05Z</time>
      </trkpt>
      <trkpt lat="44.43515" lon="0.91688">
        <ele>101</ele>
        <time>2012-06-24T08:44:10Z</time>
      </trkpt>
      <trkpt lat="44.43527" lon="0.91711">
        <ele>101</ele>
        <time>2012-06-24T08:44:15Z</time>
      </trkpt>
      <trkpt lat="44.43538" lon="0.91735">
        <ele>101</ele>
        <time>2012-06-24T08:44:20Z</time>
      </trkpt>
      <trkpt lat="44.43548" lon="0.91758">
        <ele>103</ele>
        <time>2012-06-24T08:44:25Z</time>
      </trkpt>
      <trkpt lat="44.43563" lon="0.91786">
        <ele>106</ele>
        <time>2012-06-24T08:44:31Z</time>
      </trkpt>
      <trkpt lat="44.43575" lon="0.91808">
        <ele>108</ele>
        <time>2012-06-24T08:44:36Z</time>
      </trkpt>
      <trkpt lat="44.43587" lon="0.9183">
        <ele>110</ele>
        <time>2012-06-24T08:44:41Z</time>
      </trkpt>
      <trkpt lat="44.43602" lon="0.9185">
        <ele>112</ele>
        <time>2012-06-24T08:44:46Z</time>
      </trkpt>
      <trkpt lat="44.43616" lon="0.91872">
        <ele>113</ele>
        <time>2012-06-24T08:44:51Z</time>
      </trkpt>
      <trkpt lat="44.43632" lon="0.91899">
        <ele>113</ele>
        <time>2012-06-24T08:44:56Z</time>
      </trkpt>
      <trkpt lat="44.4365" lon="0.91934">
        <ele>113</ele>
        <time>2012-06-24T08:45:01Z</time>
      </trkpt>
      <trkpt lat="44.43672" lon="0.91963">
        <ele>113</ele>
        <time>2012-06-24T08:45:06Z</time>
      </trkpt>
      <trkpt lat="44.43692" lon="0.91982">
        <ele>113</ele>
        <time>2012-06-24T08:45:11Z</time>
      </trkpt>
      <trkpt lat="44.43708" lon="0.91999">
        <ele>113</ele>
        <time>2012-06-24T08:45:16Z</time>
      </trkpt>
      <trkpt lat="44.43723" lon="0.92015">
        <ele>113</ele>
        <time>2012-06-24T08:45:21Z</time>
      </trkpt>
      <trkpt lat="44.43737" lon="0.92029">
        <ele>114</ele>
        <time>2012-06-24T08:45:26Z</time>
      </trkpt>
      <trkpt lat="44.43756" lon="0.92048">
        <ele>116</ele>
        <time>2012-06-24T08:45:31Z</time>
      </trkpt>
      <trkpt lat="44.43775" lon="0.92064">
        <ele>116</ele>
        <time>2012-06-24T08:45:36Z</time>
      </trkpt>
      <trkpt lat="44.43795" lon="0.92078">
        <ele>116</ele>
        <time>2012-06-24T08:45:41Z</time>
      </trkpt>
      <trkpt lat="44.43813" lon="0.92093">
        <ele>116</ele>
        <time>2012-06-24T08:45:46Z</time>
      </trkpt>
      <trkpt lat="44.43831" lon="0.92113">
        <ele>116</ele>
        <time>2012-06-24T08:45:51Z</time>
      </trkpt>
      <trkpt lat="44.43847" lon="0.92136">
        <ele>116</ele>
        <time>2012-06-24T08:45:56Z</time>
      </trkpt>
      <trkpt lat="44.4386" lon="0.92159">
        <ele>116</ele>
        <time>2012-06-24T08:46:01Z</time>
      </trkpt>
      <trkpt lat="44.43872" lon="0.92186">
        <ele>116</ele>
        <time>2012-06-24T08:46:06Z</time>
      </trkpt>
      <trkpt lat="44.43882" lon="0.92216">
        <ele>116</ele>
        <time>2012-06-24T08:46:11Z</time>
      </trkpt>
      <trkpt lat="44.4389" lon="0.92247">
        <ele>116</ele>
        <time>2012-06-24T08:46:16Z</time>
      </trkpt>
      <trkpt lat="44.43897" lon="0.92279">
        <ele>115</ele>
        <time>2012-06-24T08:46:21Z</time>
      </trkpt>
      <trkpt lat="44.43906" lon="0.92316">
        <ele>114</ele>
        <time>2012-06-24T08:46:26Z</time>
      </trkpt>
      <trkpt lat="44.43917" lon="0.92356">
        <ele>111</ele>
        <time>2012-06-24T08:46:31Z</time>
      </trkpt>
      <trkpt lat="44.43924" lon="0.9239">
        <ele>108</ele>
        <time>2012-06-24T08:46:36Z</time>
      </trkpt>
      <trkpt lat="44.43909" lon="0.92411">
        <ele>105</ele>
        <time>2012-06-24T08:46:41Z</time>
      </trkpt>
      <trkpt lat="44.43914" lon="0.92432">
        <ele>104</ele>
        <time>2012-06-24T08:46:46Z</time>
      </trkpt>
      <trkpt lat="44.43931" lon="0.92462">
        <ele>103</ele>
        <time>2012-06-24T08:46:51Z</time>
      </trkpt>
      <trkpt lat="44.43939" lon="0.92505">
        <ele>102</ele>
        <time>2012-06-24T08:46:56Z</time>
      </trkpt>
      <trkpt lat="44.43944" lon="0.92546">
        <ele>102</ele>
        <time>2012-06-24T08:47:01Z</time>
      </trkpt>
      <trkpt lat="44.43953" lon="0.92584">
        <ele>101</ele>
        <time>2012-06-24T08:47:06Z</time>
      </trkpt>
      <trkpt lat="44.43966" lon="0.92618">
        <ele>101</ele>
        <time>2012-06-24T08:47:11Z</time>
      </trkpt>
      <trkpt lat="44.4398" lon="0.9265">
        <ele>101</ele>
        <time>2012-06-24T08:47:16Z</time>
      </trkpt>
      <trkpt lat="44.43994" lon="0.92681">
        <ele>101</ele>
        <time>2012-06-24T08:47:21Z</time>
      </trkpt>
      <trkpt lat="44.44006" lon="0.92706">
        <ele>101</ele>
        <time>2012-06-24T08:47:26Z</time>
      </trkpt>
      <trkpt lat="44.4401" lon="0.92735">
        <ele>101</ele>
        <time>2012-06-24T08:47:31Z</time>
      </trkpt>
      <trkpt lat="44.44006" lon="0.92761">
        <ele>101</ele>
        <time>2012-06-24T08:47:36Z</time>
      </trkpt>
      <trkpt lat="44.44009" lon="0.92786">
        <ele>101</ele>
        <time>2012-06-24T08:47:41Z</time>
      </trkpt>
      <trkpt lat="44.44003" lon="0.92817">
        <ele>101</ele>
        <time>2012-06-24T08:47:46Z</time>
      </trkpt>
      <trkpt lat="44.43995" lon="0.92845">
        <ele>99</ele>
        <time>2012-06-24T08:47:51Z</time>
      </trkpt>
      <trkpt lat="44.44012" lon="0.92848">
        <ele>95</ele>
        <time>2012-06-24T08:47:56Z</time>
      </trkpt>
      <trkpt lat="44.44035" lon="0.92841">
        <ele>93</ele>
        <time>2012-06-24T08:48:01Z</time>
      </trkpt>
      <trkpt lat="44.44052" lon="0.92863">
        <ele>91</ele>
        <time>2012-06-24T08:48:06Z</time>
      </trkpt>
      <trkpt lat="44.44071" lon="0.92893">
        <ele>89</ele>
        <time>2012-06-24T08:48:11Z</time>
      </trkpt>
      <trkpt lat="44.4409" lon="0.92924">
        <ele>87</ele>
        <time>2012-06-24T08:48:16Z</time>
      </trkpt>
      <trkpt lat="44.44104" lon="0.92951">
        <ele>86</ele>
        <time>2012-06-24T08:48:21Z</time>
      </trkpt>
      <trkpt lat="44.44111" lon="0.92978">
        <ele>86</ele>
        <time>2012-06-24T08:48:26Z</time>
      </trkpt>
      <trkpt lat="44.44117" lon="0.93003">
        <ele>85</ele>
        <time>2012-06-24T08:48:31Z</time>
      </trkpt>
      <trkpt lat="44.44123" lon="0.93032">
        <ele>83</ele>
        <time>2012-06-24T08:48:36Z</time>
      </trkpt>
      <trkpt lat="44.44132" lon="0.93069">
        <ele>81</ele>
        <time>2012-06-24T08:48:41Z</time>
      </trkpt>
      <trkpt lat="44.44143" lon="0.93109">
        <ele>80</ele>
        <time>2012-06-24T08:48:46Z</time>
      </trkpt>
      <trkpt lat="44.44151" lon="0.93146">
        <ele>78</ele>
        <time>2012-06-24T08:48:51Z</time>
      </trkpt>
      <trkpt lat="44.44162" lon="0.9318">
        <ele>76</ele>
        <time>2012-06-24T08:48:56Z</time>
      </trkpt>
      <trkpt lat="44.44162" lon="0.93203">
        <ele>76</ele>
        <time>2012-06-24T08:49:01Z</time>
      </trkpt>
      <trkpt lat="44.44161" lon="0.93222">
        <ele>76</ele>
        <time>2012-06-24T08:49:06Z</time>
      </trkpt>
      <trkpt lat="44.44159" lon="0.93233">
        <ele>78</ele>
        <time>2012-06-24T08:49:11Z</time>
      </trkpt>
      <trkpt lat="44.44159" lon="0.93245">
        <ele>80</ele>
        <time>2012-06-24T08:49:16Z</time>
      </trkpt>
      <trkpt lat="44.44157" lon="0.93257">
        <ele>82</ele>
        <time>2012-06-24T08:49:21Z</time>
      </trkpt>
      <trkpt lat="44.44156" lon="0.93269">
        <ele>86</ele>
        <time>2012-06-24T08:49:26Z</time>
      </trkpt>
      <trkpt lat="44.44158" lon="0.9328">
        <ele>90</ele>
        <time>2012-06-24T08:49:31Z</time>
      </trkpt>
      <trkpt lat="44.44162" lon="0.93293">
        <ele>92</ele>
        <time>2012-06-24T08:49:36Z</time>
      </trkpt>
      <trkpt lat="44.44167" lon="0.93305">
        <ele>95</ele>
        <time>2012-06-24T08:49:41Z</time>
      </trkpt>
      <trkpt lat="44.44172" lon="0.93314">
        <ele>99</ele>
        <time>2012-06-24T08:49:46Z</time>
      </trkpt>
      <trkpt lat="44.4418" lon="0.93324">
        <ele>101</ele>
        <time>2012-06-24T08:49:51Z</time>
      </trkpt>
      <trkpt lat="44.44189" lon="0.93331">
        <ele>101</ele>
        <time>2012-06-24T08:49:56Z</time>
      </trkpt>
      <trkpt lat="44.44198" lon="0.93341">
        <ele>101</ele>
        <time>2012-06-24T08:50:01Z</time>
      </trkpt>
      <trkpt lat="44.44206" lon="0.93351">
        <ele>101</ele>
        <time>2012-06-24T08:50:06Z</time>
      </trkpt>
      <trkpt lat="44.44209" lon="0.93366">
        <ele>102</ele>
        <time>2012-06-24T08:50:11Z</time>
      </trkpt>
      <trkpt lat="44.44197" lon="0.93371">
        <ele>103</ele>
        <time>2012-06-24T08:50:16Z</time>
      </trkpt>
      <trkpt lat="44.44186" lon="0.93376">
        <ele>103</ele>
        <time>2012-06-24T08:50:21Z</time>
      </trkpt>
      <trkpt lat="44.44177" lon="0.93381">
        <ele>103</ele>
        <time>2012-06-24T08:50:26Z</time>
      </trkpt>
      <trkpt lat="44.44167" lon="0.9339">
        <ele>103</ele>
        <time>2012-06-24T08:50:31Z</time>
      </trkpt>
      <trkpt lat="44.4416" lon="0.93402">
        <ele>101</ele>
        <time>2012-06-24T08:50:36Z</time>
      </trkpt>
      <trkpt lat="44.44154" lon="0.93417">
        <ele>100</ele>
        <time>2012-06-24T08:50:41Z</time>
      </trkpt>
      <trkpt lat="44.44148" lon="0.93431">
        <ele>100</ele>
        <time>2012-06-24T08:50:46Z</time>
      </trkpt>
      <trkpt lat="44.44141" lon="0.93447">
        <ele>100</ele>
        <time>2012-06-24T08:50:51Z</time>
      </trkpt>
      <trkpt lat="44.44135" lon="0.93464">
        <ele>100</ele>
        <time>2012-06-24T08:50:56Z</time>
      </trkpt>
      <trkpt lat="44.44131" lon="0.93481">
        <ele>100</ele>
        <time>2012-06-24T08:51:01Z</time>
      </trkpt>
      <trkpt lat="44.44133" lon="0.93503">
        <ele>100</ele>
        <time>2012-06-24T08:51:06Z</time>
      </trkpt>
      <trkpt lat="44.4414" lon="0.93525">
        <ele>101</ele>
        <time>2012-06-24T08:51:11Z</time>
      </trkpt>
      <trkpt lat="44.44152" lon="0.93548">
        <ele>103</ele>
        <time>2012-06-24T08:51:16Z</time>
      </trkpt>
      <trkpt lat="44.44164" lon="0.93567">
        <ele>106</ele>
        <time>2012-06-24T08:51:21Z</time>
      </trkpt>
      <trkpt lat="44.44186" lon="0.93583">
        <ele>106</ele>
        <time>2012-06-24T08:51:26Z</time>
      </trkpt>
      <trkpt lat="44.44219" lon="0.93602">
        <ele>105</ele>
        <time>2012-06-24T08:51:31Z</time>
      </trkpt>
      <trkpt lat="44.44249" lon="0.93611">
        <ele>103</ele>
        <time>2012-06-24T08:51:36Z</time>
      </trkpt>
      <trkpt lat="44.44278" lon="0.93618">
        <ele>103</ele>
        <time>2012-06-24T08:51:41Z</time>
      </trkpt>
      <trkpt lat="44.44308" lon="0.93622">
        <ele>102</ele>
        <time>2012-06-24T08:51:46Z</time>
      </trkpt>
      <trkpt lat="44.44334" lon="0.93604">
        <ele>102</ele>
        <time>2012-06-24T08:51:51Z</time>
      </trkpt>
      <trkpt lat="44.44352" lon="0.93577">
        <ele>102</ele>
        <time>2012-06-24T08:51:56Z</time>
      </trkpt>
      <trkpt lat="44.44373" lon="0.93548">
        <ele>102</ele>
        <time>2012-06-24T08:52:01Z</time>
      </trkpt>
      <trkpt lat="44.44397" lon="0.93525">
        <ele>102</ele>
        <time>2012-06-24T08:52:06Z</time>
      </trkpt>
      <trkpt lat="44.44421" lon="0.93502">
        <ele>102</ele>
        <time>2012-06-24T08:52:11Z</time>
      </trkpt>
      <trkpt lat="44.44446" lon="0.93476">
        <ele>102</ele>
        <time>2012-06-24T08:52:16Z</time>
      </trkpt>
      <trkpt lat="44.4447" lon="0.93451">
        <ele>102</ele>
        <time>2012-06-24T08:52:21Z</time>
      </trkpt>
      <trkpt lat="44.44498" lon="0.93436">
        <ele>103</ele>
        <time>2012-06-24T08:52:26Z</time>
      </trkpt>
      <trkpt lat="44.44517" lon="0.93424">
        <ele>106</ele>
        <time>2012-06-24T08:52:31Z</time>
      </trkpt>
      <trkpt lat="44.4452" lon="0.93391">
        <ele>108</ele>
        <time>2012-06-24T08:52:36Z</time>
      </trkpt>
      <trkpt lat="44.44519" lon="0.93354">
        <ele>108</ele>
        <time>2012-06-24T08:52:41Z</time>
      </trkpt>
      <trkpt lat="44.44514" lon="0.93326">
        <ele>108</ele>
        <time>2012-06-24T08:52:46Z</time>
      </trkpt>
      <trkpt lat="44.44505" lon="0.93301">
        <ele>109</ele>
        <time>2012-06-24T08:52:51Z</time>
      </trkpt>
      <trkpt lat="44.445" lon="0.93276">
        <ele>109</ele>
        <time>2012-06-24T08:52:56Z</time>
      </trkpt>
      <trkpt lat="44.44486" lon="0.93241">
        <ele>109</ele>
        <time>2012-06-24T08:53:01Z</time>
      </trkpt>
      <trkpt lat="44.44458" lon="0.93214">
        <ele>109</ele>
        <time>2012-06-24T08:53:06Z</time>
      </trkpt>
      <trkpt lat="44.44453" lon="0.9319">
        <ele>109</ele>
        <time>2012-06-24T08:53:11Z</time>
      </trkpt>
      <trkpt lat="44.4446" lon="0.93167">
        <ele>109</ele>
        <time>2012-06-24T08:53:16Z</time>
      </trkpt>
      <trkpt lat="44.44471" lon="0.9314">
        <ele>109</ele>
        <time>2012-06-24T08:53:21Z</time>
      </trkpt>
      <trkpt lat="44.44486" lon="0.93119">
        <ele>109</ele>
        <time>2012-06-24T08:53:26Z</time>
      </trkpt>
      <trkpt lat="44.44506" lon="0.93096">
        <ele>106</ele>
        <time>2012-06-24T08:53:31Z</time>
      </trkpt>
      <trkpt lat="44.44519" lon="0.93083">
        <ele>101</ele>
        <time>2012-06-24T08:53:36Z</time>
      </trkpt>
      <trkpt lat="44.44535" lon="0.93078">
        <ele>101</ele>
        <time>2012-06-24T08:53:41Z</time>
      </trkpt>
      <trkpt lat="44.44556" lon="0.93074">
        <ele>101</ele>
        <time>2012-06-24T08:53:46Z</time>
      </trkpt>
      <trkpt lat="44.44578" lon="0.93076">
        <ele>101</ele>
        <time>2012-06-24T08:53:51Z</time>
      </trkpt>
      <trkpt lat="44.44595" lon="0.93087">
        <ele>104</ele>
        <time>2012-06-24T08:53:56Z</time>
      </trkpt>
      <trkpt lat="44.44611" lon="0.93097">
        <ele>108</ele>
        <time>2012-06-24T08:54:01Z</time>
      </trkpt>
      <trkpt lat="44.44624" lon="0.93106">
        <ele>112</ele>
        <time>2012-06-24T08:54:06Z</time>
      </trkpt>
      <trkpt lat="44.44643" lon="0.93122">
        <ele>112</ele>
        <time>2012-06-24T08:54:11Z</time>
      </trkpt>
      <trkpt lat="44.44669" lon="0.93139">
        <ele>112</ele>
        <time>2012-06-24T08:54:16Z</time>
      </trkpt>
      <trkpt lat="44.44694" lon="0.93156">
        <ele>112</ele>
        <time>2012-06-24T08:54:21Z</time>
      </trkpt>
      <trkpt lat="44.44719" lon="0.93169">
        <ele>111</ele>
        <time>2012-06-24T08:54:26Z</time>
      </trkpt>
      <trkpt lat="44.4473" lon="0.93141">
        <ele>107</ele>
        <time>2012-06-24T08:54:31Z</time>
      </trkpt>
      <trkpt lat="44.44732" lon="0.93109">
        <ele>104</ele>
        <time>2012-06-24T08:54:36Z</time>
      </trkpt>
      <trkpt lat="44.44732" lon="0.93081">
        <ele>101</ele>
        <time>2012-06-24T08:54:41Z</time>
      </trkpt>
      <trkpt lat="44.44722" lon="0.93053">
        <ele>97</ele>
        <time>2012-06-24T08:54:46Z</time>
      </trkpt>
      <trkpt lat="44.44731" lon="0.93004">
        <ele>92</ele>
        <time>2012-06-24T08:54:51Z</time>
      </trkpt>
      <trkpt lat="44.44741" lon="0.92979">
        <ele>87</ele>
        <time>2012-06-24T08:54:56Z</time>
      </trkpt>
      <trkpt lat="44.44764" lon="0.92982">
        <ele>82</ele>
        <time>2012-06-24T08:55:01Z</time>
      </trkpt>
      <trkpt lat="44.44798" lon="0.92968">
        <ele>77</ele>
        <time>2012-06-24T08:55:06Z</time>
      </trkpt>
      <trkpt lat="44.44808" lon="0.92907">
        <ele>73</ele>
        <time>2012-06-24T08:55:11Z</time>
      </trkpt>
      <trkpt lat="44.44814" lon="0.92854">
        <ele>69</ele>
        <time>2012-06-24T08:55:16Z</time>
      </trkpt>
      <trkpt lat="44.44825" lon="0.92817">
        <ele>68</ele>
        <time>2012-06-24T08:55:21Z</time>
      </trkpt>
      <trkpt lat="44.44844" lon="0.92794">
        <ele>67</ele>
        <time>2012-06-24T08:55:26Z</time>
      </trkpt>
      <trkpt lat="44.44869" lon="0.92803">
        <ele>67</ele>
        <time>2012-06-24T08:55:31Z</time>
      </trkpt>
      <trkpt lat="44.44895" lon="0.92812">
        <ele>67</ele>
        <time>2012-06-24T08:55:36Z</time>
      </trkpt>
      <trkpt lat="44.44921" lon="0.92821">
        <ele>67</ele>
        <time>2012-06-24T08:55:41Z</time>
      </trkpt>
      <trkpt lat="44.4495" lon="0.92828">
        <ele>68</ele>
        <time>2012-06-24T08:55:46Z</time>
      </trkpt>
      <trkpt lat="44.44975" lon="0.92846">
        <ele>68</ele>
        <time>2012-06-24T08:55:51Z</time>
      </trkpt>
      <trkpt lat="44.44997" lon="0.92868">
        <ele>68</ele>
        <time>2012-06-24T08:55:56Z</time>
      </trkpt>
      <trkpt lat="44.45018" lon="0.92891">
        <ele>69</ele>
        <time>2012-06-24T08:56:01Z</time>
      </trkpt>
      <trkpt lat="44.45041" lon="0.92914">
        <ele>69</ele>
        <time>2012-06-24T08:56:06Z</time>
      </trkpt>
      <trkpt lat="44.45062" lon="0.92939">
        <ele>69</ele>
        <time>2012-06-24T08:56:11Z</time>
      </trkpt>
      <trkpt lat="44.45073" lon="0.92978">
        <ele>70</ele>
        <time>2012-06-24T08:56:16Z</time>
      </trkpt>
      <trkpt lat="44.45082" lon="0.93018">
        <ele>70</ele>
        <time>2012-06-24T08:56:21Z</time>
      </trkpt>
      <trkpt lat="44.45094" lon="0.93057">
        <ele>71</ele>
        <time>2012-06-24T08:56:26Z</time>
      </trkpt>
      <trkpt lat="44.45105" lon="0.93096">
        <ele>72</ele>
        <time>2012-06-24T08:56:31Z</time>
      </trkpt>
      <trkpt lat="44.45114" lon="0.93124">
        <ele>73</ele>
        <time>2012-06-24T08:56:36Z</time>
      </trkpt>
      <trkpt lat="44.45135" lon="0.93116">
        <ele>74</ele>
        <time>2012-06-24T08:56:41Z</time>
      </trkpt>
      <trkpt lat="44.45164" lon="0.93103">
        <ele>74</ele>
        <time>2012-06-24T08:56:46Z</time>
      </trkpt>
      <trkpt lat="44.45196" lon="0.93093">
        <ele>74</ele>
        <time>2012-06-24T08:56:51Z</time>
      </trkpt>
      <trkpt lat="44.4523" lon="0.93084">
        <ele>74</ele>
        <time>2012-06-24T08:56:56Z</time>
      </trkpt>
      <trkpt lat="44.45264" lon="0.93074">
        <ele>74</ele>
        <time>2012-06-24T08:57:01Z</time>
      </trkpt>
      <trkpt lat="44.45297" lon="0.93056">
        <ele>74</ele>
        <time>2012-06-24T08:57:06Z</time>
      </trkpt>
      <trkpt lat="44.45326" lon="0.93023">
        <ele>73</ele>
        <time>2012-06-24T08:57:11Z</time>
      </trkpt>
      <trkpt lat="44.45353" lon="0.9299">
        <ele>72</ele>
        <time>2012-06-24T08:57:16Z</time>
      </trkpt>
      <trkpt lat="44.45381" lon="0.92955">
        <ele>71</ele>
        <time>2012-06-24T08:57:21Z</time>
      </trkpt>
      <trkpt lat="44.45407" lon="0.92923">
        <ele>70</ele>
        <time>2012-06-24T08:57:26Z</time>
      </trkpt>
      <trkpt lat="44.4543" lon="0.92897">
        <ele>68</ele>
        <time>2012-06-24T08:57:31Z</time>
      </trkpt>
      <trkpt lat="44.45454" lon="0.92917">
        <ele>68</ele>
        <time>2012-06-24T08:57:36Z</time>
      </trkpt>
      <trkpt lat="44.45483" lon="0.92943">
        <ele>68</ele>
        <time>2012-06-24T08:57:41Z</time>
      </trkpt>
      <trkpt lat="44.45513" lon="0.9297">
        <ele>68</ele>
        <time>2012-06-24T08:57:46Z</time>
      </trkpt>
      <trkpt lat="44.45544" lon="0.92997">
        <ele>68</ele>
        <time>2012-06-24T08:57:51Z</time>
      </trkpt>
      <trkpt lat="44.45576" lon="0.93025">
        <ele>68</ele>
        <time>2012-06-24T08:57:56Z</time>
      </trkpt>
      <trkpt lat="44.45606" lon="0.9306">
        <ele>69</ele>
        <time>2012-06-24T08:58:01Z</time>
      </trkpt>
      <trkpt lat="44.4561" lon="0.93114">
        <ele>70</ele>
        <time>2012-06-24T08:58:06Z</time>
      </trkpt>
      <trkpt lat="44.45598" lon="0.93168">
        <ele>70</ele>
        <time>2012-06-24T08:58:11Z</time>
      </trkpt>
      <trkpt lat="44.45586" lon="0.93221">
        <ele>70</ele>
        <time>2012-06-24T08:58:16Z</time>
      </trkpt>
      <trkpt lat="44.45574" lon="0.93274">
        <ele>70</ele>
        <time>2012-06-24T08:58:21Z</time>
      </trkpt>
      <trkpt lat="44.45562" lon="0.93326">
        <ele>70</ele>
        <time>2012-06-24T08:58:26Z</time>
      </trkpt>
      <trkpt lat="44.45554" lon="0.93377">
        <ele>70</ele>
        <time>2012-06-24T08:58:31Z</time>
      </trkpt>
      <trkpt lat="44.45547" lon="0.9342">
        <ele>71</ele>
        <time>2012-06-24T08:58:36Z</time>
      </trkpt>
      <trkpt lat="44.45566" lon="0.93454">
        <ele>72</ele>
        <time>2012-06-24T08:58:41Z</time>
      </trkpt>
      <trkpt lat="44.45598" lon="0.93487">
        <ele>72</ele>
        <time>2012-06-24T08:58:46Z</time>
      </trkpt>
      <trkpt lat="44.45633" lon="0.9352">
        <ele>72</ele>
        <time>2012-06-24T08:58:51Z</time>
      </trkpt>
      <trkpt lat="44.45673" lon="0.93546">
        <ele>72</ele>
        <time>2012-06-24T08:58:56Z</time>
      </trkpt>
      <trkpt lat="44.45714" lon="0.93559">
        <ele>72</ele>
        <time>2012-06-24T08:59:01Z</time>
      </trkpt>
      <trkpt lat="44.45755" lon="0.93563">
        <ele>72</ele>
        <time>2012-06-24T08:59:06Z</time>
      </trkpt>
      <trkpt lat="44.45795" lon="0.9356">
        <ele>72</ele>
        <time>2012-06-24T08:59:11Z</time>
      </trkpt>
      <trkpt lat="44.45832" lon="0.93552">
        <ele>72</ele>
        <time>2012-06-24T08:59:16Z</time>
      </trkpt>
      <trkpt lat="44.45868" lon="0.93544">
        <ele>72</ele>
        <time>2012-06-24T08:59:21Z</time>
      </trkpt>
      <trkpt lat="44.45905" lon="0.93535">
        <ele>72</ele>
        <time>2012-06-24T08:59:26Z</time>
      </trkpt>
      <trkpt lat="44.45944" lon="0.93526">
        <ele>72</ele>
        <time>2012-06-24T08:59:31Z</time>
      </trkpt>
      <trkpt lat="44.45983" lon="0.93517">
        <ele>72</ele>
        <time>2012-06-24T08:59:36Z</time>
      </trkpt>
      <trkpt lat="44.46022" lon="0.93507">
        <ele>72</ele>
        <time>2012-06-24T08:59:41Z</time>
      </trkpt>
      <trkpt lat="44.46053" lon="0.93508">
        <ele>72</ele>
        <time>2012-06-24T08:59:46Z</time>
      </trkpt>
      <trkpt lat="44.46078" lon="0.93544">
        <ele>72</ele>
        <time>2012-06-24T08:59:51Z</time>
      </trkpt>
      <trkpt lat="44.46107" lon="0.93585">
        <ele>72</ele>
        <time>2012-06-24T08:59:56Z</time>
      </trkpt>
      <trkpt lat="44.46136" lon="0.93629">
        <ele>72</ele>
        <time>2012-06-24T09:00:01Z</time>
      </trkpt>
      <trkpt lat="44.46165" lon="0.93672">
        <ele>72</ele>
        <time>2012-06-24T09:00:06Z</time>
      </trkpt>
      <trkpt lat="44.46195" lon="0.93714">
        <ele>71</ele>
        <time>2012-06-24T09:00:11Z</time>
      </trkpt>
      <trkpt lat="44.46226" lon="0.93745">
        <ele>70</ele>
        <time>2012-06-24T09:00:16Z</time>
      </trkpt>
      <trkpt lat="44.46249" lon="0.9373">
        <ele>69</ele>
        <time>2012-06-24T09:00:21Z</time>
      </trkpt>
      <trkpt lat="44.46264" lon="0.93691">
        <ele>68</ele>
        <time>2012-06-24T09:00:26Z</time>
      </trkpt>
      <trkpt lat="44.46283" lon="0.93668">
        <ele>66</ele>
        <time>2012-06-24T09:00:31Z</time>
      </trkpt>
      <trkpt lat="44.46301" lon="0.93691">
        <ele>66</ele>
        <time>2012-06-24T09:00:36Z</time>
      </trkpt>
      <trkpt lat="44.4632" lon="0.93722">
        <ele>66</ele>
        <time>2012-06-24T09:00:41Z</time>
      </trkpt>
      <trkpt lat="44.46341" lon="0.93755">
        <ele>66</ele>
        <time>2012-06-24T09:00:46Z</time>
      </trkpt>
      <trkpt lat="44.46363" lon="0.93785">
        <ele>67</ele>
        <time>2012-06-24T09:00:51Z</time>
      </trkpt>
      <trkpt lat="44.46385" lon="0.93814">
        <ele>67</ele>
        <time>2012-06-24T09:00:56Z</time>
      </trkpt>
      <trkpt lat="44.46406" lon="0.93844">
        <ele>67</ele>
        <time>2012-06-24T09:01:01Z</time>
      </trkpt>
      <trkpt lat="44.46434" lon="0.93849">
        <ele>67</ele>
        <time>2012-06-24T09:01:06Z</time>
      </trkpt>
      <trkpt lat="44.46464" lon="0.93858">
        <ele>67</ele>
        <time>2012-06-24T09:01:11Z</time>
      </trkpt>
      <trkpt lat="44.46493" lon="0.9388">
        <ele>68</ele>
        <time>2012-06-24T09:01:16Z</time>
      </trkpt>
      <trkpt lat="44.46522" lon="0.93904">
        <ele>69</ele>
        <time>2012-06-24T09:01:21Z</time>
      </trkpt>
      <trkpt lat="44.46551" lon="0.93931">
        <ele>71</ele>
        <time>2012-06-24T09:01:26Z</time>
      </trkpt>
      <trkpt lat="44.46579" lon="0.93957">
        <ele>72</ele>
        <time>2012-06-24T09:01:31Z</time>
      </trkpt>
      <trkpt lat="44.46608" lon="0.93982">
        <ele>73</ele>
        <time>2012-06-24T09:01:36Z</time>
      </trkpt>
      <trkpt lat="44.46641" lon="0.93999">
        <ele>73</ele>
        <time>2012-06-24T09:01:41Z</time>
      </trkpt>
      <trkpt lat="44.46676" lon="0.94011">
        <ele>73</ele>
        <time>2012-06-24T09:01:46Z</time>
      </trkpt>
      <trkpt lat="44.46711" lon="0.94024">
        <ele>73</ele>
        <time>2012-06-24T09:01:51Z</time>
      </trkpt>
      <trkpt lat="44.46738" lon="0.9401">
        <ele>73</ele>
        <time>2012-06-24T09:01:56Z</time>
      </trkpt>
      <trkpt lat="44.46753" lon="0.93964">
        <ele>73</ele>
        <time>2012-06-24T09:02:01Z</time>
      </trkpt>
      <trkpt lat="44.4677" lon="0.93913">
        <ele>73</ele>
        <time>2012-06-24T09:02:06Z</time>
      </trkpt>
      <trkpt lat="44.46787" lon="0.9386">
        <ele>73</ele>
        <time>2012-06-24T09:02:11Z</time>
      </trkpt>
      <trkpt lat="44.46805" lon="0.93807">
        <ele>73</ele>
        <time>2012-06-24T09:02:16Z</time>
      </trkpt>
      <trkpt lat="44.46822" lon="0.93755">
        <ele>73</ele>
        <time>2012-06-24T09:02:21Z</time>
      </trkpt>
      <trkpt lat="44.46838" lon="0.93705">
        <ele>73</ele>
        <time>2012-06-24T09:02:26Z</time>
      </trkpt>
      <trkpt lat="44.46854" lon="0.9366">
        <ele>72</ele>
        <time>2012-06-24T09:02:31Z</time>
      </trkpt>
      <trkpt lat="44.4687" lon="0.9363">
        <ele>70</ele>
        <time>2012-06-24T09:02:36Z</time>
      </trkpt>
      <trkpt lat="44.46889" lon="0.93621">
        <ele>70</ele>
        <time>2012-06-24T09:02:41Z</time>
      </trkpt>
      <trkpt lat="44.46901" lon="0.93588">
        <ele>68</ele>
        <time>2012-06-24T09:02:46Z</time>
      </trkpt>
      <trkpt lat="44.46926" lon="0.93585">
        <ele>65</ele>
        <time>2012-06-24T09:02:51Z</time>
      </trkpt>
      <trkpt lat="44.46958" lon="0.93593">
        <ele>64</ele>
        <time>2012-06-24T09:02:56Z</time>
      </trkpt>
      <trkpt lat="44.46991" lon="0.9357">
        <ele>64</ele>
        <time>2012-06-24T09:03:01Z</time>
      </trkpt>
      <trkpt lat="44.4702" lon="0.93542">
        <ele>63</ele>
        <time>2012-06-24T09:03:06Z</time>
      </trkpt>
      <trkpt lat="44.47048" lon="0.93515">
        <ele>61</ele>
        <time>2012-06-24T09:03:11Z</time>
      </trkpt>
      <trkpt lat="44.47074" lon="0.9349">
        <ele>60</ele>
        <time>2012-06-24T09:03:16Z</time>
      </trkpt>
      <trkpt lat="44.47095" lon="0.93475">
        <ele>60</ele>
        <time>2012-06-24T09:03:21Z</time>
      </trkpt>
      <trkpt lat="44.47115" lon="0.93488">
        <ele>60</ele>
        <time>2012-06-24T09:03:26Z</time>
      </trkpt>
      <trkpt lat="44.47142" lon="0.93478">
        <ele>60</ele>
        <time>2012-06-24T09:03:31Z</time>
      </trkpt>
      <trkpt lat="44.47171" lon="0.93466">
        <ele>60</ele>
        <time>2012-06-24T09:03:36Z</time>
      </trkpt>
      <trkpt lat="44.47197" lon="0.93452">
        <ele>60</ele>
        <time>2012-06-24T09:03:41Z</time>
      </trkpt>
      <trkpt lat="44.4721" lon="0.9344">
        <ele>60</ele>
        <time>2012-06-24T09:03:46Z</time>
      </trkpt>
      <trkpt lat="44.47215" lon="0.93437">
        <ele>60</ele>
        <time>2012-06-24T09:03:55Z</time>
      </trkpt>
      <trkpt lat="44.47215" lon="0.93438">
        <ele>60</ele>
        <time>2012-06-24T09:03:58Z</time>
      </trkpt>
    </trkseg>
  </trk>
</gpx>